[[{"header":{"parameterUnit":"m.s-1","parameterCategory":1,"la1":30.6,"la2":29.2853,"lo1":-89.7004,"lo2":-87.6739,"dy":0.0162,"dx":0.0183,"nx":112,"ny":82,"refTime":"2024-09-03T12:00:00:Z","depth":0,"parameterNumber":2,"parameterNumberName":"U-component_of_WINDS"},"data":[0.0,0.0,0.0,0.0,0.0,0.0,0.0,0.0,0.0,0.0,0.0,0.0,0.0,0.0,0.0,0.0,0.0,0.0,0.0,0.0,0.0,0.0,0.0,0.0,0.0,0.0,0.0,0.0,0.0,0.0,0.0,0.0,0.0,0.0,0.0,0.0,0.0,0.0,0.0,0.0,0.0,0.0,0.0,0.0,0.0,0.0,0.0,0.0,0.0,0.0,0.0,0.0,0.0,0.0,0.0,0.0,0.0,0.0,0.0,0.0,0.0,0.0,0.0,0.0,0.0,0.0,0.0,0.0,0.0,0.0,0.0,0.0,0.0,0.0,0.0,0.0,0.0,0.0,0.0,0.0,0.0,0.0,0.0,0.0,0.0,0.0,0.0,0.0,0.0,0.0,3.4336,3.7366,4.2088,4.4817,4.4349,4.4614,4.174,3.4555,0.0,0.0,0.0,0.0,0.0,0.0,0.0,0.0,0.0,0.0,0.0,0.0,0.0,0.0,0.0,0.0,0.0,0.0,0.0,0.0,0.0,0.0,0.0,0.0,0.0,0.0,0.0,0.0,0.0,0.0,0.0,0.0,0.0,0.0,0.0,0.0,0.0,0.0,0.0,0.0,0.0,0.0,0.0,0.0,0.0,0.0,0.0,0.0,0.0,0.0,0.0,0.0,0.0,0.0,0.0,0.0,0.0,0.0,0.0,0.0,0.0,0.0,0.0,0.0,0.0,0.0,0.0,0.0,0.0,0.0,0.0,0.0,0.0,0.0,0.0,0.0,0.0,0.0,0.0,0.0,0.0,0.0,0.0,0.0,0.0,0.0,0.0,0.0,0.0,0.0,0.0,0.0,0.0,0.0,0.0,0.0,0.0,0.0,0.0,0.0,0.0,0.0,0.0,0.0,3.5097,4.1519,4.3883,4.4817,4.4349,4.404,4.108,3.444,0.0,0.0,0.0,0.0,0.0,0.0,0.0,0.0,0.0,0.0,0.0,0.0,0.0,0.0,0.0,0.0,0.0,0.0,0.0,0.0,0.0,0.0,0.0,0.0,0.0,0.0,0.0,0.0,0.0,0.0,0.0,0.0,0.0,0.0,0.0,0.0,0.0,0.0,0.0,0.0,0.0,0.0,0.0,0.0,0.0,0.0,0.0,0.0,0.0,0.0,0.0,0.0,0.0,0.0,0.0,0.0,0.0,0.0,0.0,0.0,0.0,0.0,0.0,0.0,0.0,0.0,0.0,0.0,0.0,0.0,0.0,0.0,0.0,0.0,0.0,0.0,0.0,0.0,0.0,0.0,0.0,0.0,0.0,0.0,0.0,0.0,0.0,0.0,0.0,0.0,0.0,0.0,0.0,0.0,0.0,0.0,0.0,0.0,0.0,0.0,0.0,0.0,0.0,3.3745,3.7379,4.2635,4.441,4.4968,4.4358,4.3761,4.0735,3.4436,3.2546,0.0,0.0,0.0,0.0,0.0,0.0,0.0,0.0,0.0,0.0,0.0,0.0,0.0,0.0,0.0,0.0,0.0,0.0,0.0,0.0,0.0,0.0,0.0,0.0,0.0,0.0,0.0,0.0,0.0,0.0,0.0,0.0,0.0,0.0,0.0,0.0,0.0,0.0,0.0,0.0,0.0,0.0,0.0,0.0,0.0,0.0,0.0,0.0,0.0,0.0,0.0,0.0,0.0,0.0,0.0,0.0,0.0,0.0,0.0,0.0,0.0,0.0,0.0,0.0,0.0,0.0,0.0,0.0,0.0,0.0,0.0,0.0,0.0,0.0,0.0,0.0,0.0,0.0,0.0,0.0,0.0,0.0,0.0,0.0,0.0,0.0,0.0,0.0,0.0,0.0,0.0,0.0,0.0,0.0,0.0,0.0,0.0,0.0,0.0,0.0,0.0,0.0,3.7303,3.9858,4.2837,4.4303,4.4785,4.4053,4.2627,3.9399,3.3845,3.0795,0.0,0.0,0.0,0.0,0.0,0.0,0.0,0.0,0.0,0.0,0.0,0.0,0.0,0.0,0.0,0.0,0.0,0.0,0.0,0.0,0.0,0.0,0.0,0.0,0.0,0.0,0.0,0.0,0.0,0.0,0.0,0.0,0.0,0.0,0.0,0.0,0.0,0.0,0.0,0.0,0.0,0.0,0.0,0.0,0.0,0.0,0.0,0.0,0.0,0.0,0.0,0.0,0.0,0.0,0.0,0.0,0.0,0.0,0.0,0.0,0.0,0.0,0.0,0.0,0.0,0.0,0.0,0.0,0.0,0.0,0.0,0.0,0.0,0.0,0.0,0.0,0.0,0.0,0.0,0.0,0.0,0.0,0.0,0.0,0.0,0.0,0.0,0.0,0.0,0.0,0.0,0.0,0.0,0.0,0.0,0.0,0.0,0.0,0.0,0.0,0.0,0.0,3.7707,4.1769,4.2902,4.3739,4.3898,4.3155,3.974,3.5938,3.192,2.7554,0.0,0.0,0.0,0.0,0.0,0.0,0.0,0.0,0.0,0.0,0.0,0.0,0.0,0.0,0.0,0.0,0.0,0.0,0.0,0.0,0.0,0.0,0.0,0.0,0.0,0.0,0.0,0.0,0.0,0.0,0.0,0.0,0.0,0.0,0.0,0.0,0.0,0.0,0.0,0.0,0.0,0.0,0.0,0.0,0.0,0.0,0.0,0.0,0.0,0.0,0.0,0.0,0.0,0.0,0.0,0.0,0.0,0.0,0.0,0.0,0.0,0.0,0.0,0.0,0.0,0.0,0.0,0.0,0.0,0.0,0.0,0.0,0.0,0.0,0.0,0.0,0.0,0.0,0.0,0.0,0.0,0.0,0.0,0.0,0.0,0.0,0.0,0.0,0.0,0.0,0.0,0.0,0.0,0.0,0.0,0.0,0.0,0.0,0.0,0.0,0.0,0.0,3.6459,4.0508,4.2591,4.3515,4.3652,4.2886,4.1121,3.7626,3.1924,0.0,0.0,0.0,0.0,0.0,0.0,0.0,0.0,0.0,0.0,0.0,0.0,0.0,0.0,0.0,0.0,0.0,0.0,0.0,0.0,0.0,0.0,0.0,0.0,0.0,0.0,0.0,0.0,0.0,0.0,0.0,0.0,0.0,0.0,0.0,0.0,0.0,0.0,0.0,0.0,0.0,0.0,0.0,0.0,0.0,0.0,0.0,0.0,0.0,0.0,0.0,0.0,0.0,0.0,0.0,0.0,0.0,0.0,0.0,0.0,0.0,0.0,0.0,0.0,0.0,0.0,0.0,0.0,0.0,0.0,0.0,0.0,0.0,0.0,0.0,0.0,0.0,0.0,0.0,0.0,0.0,0.0,0.0,0.0,0.0,0.0,0.0,0.0,0.0,0.0,0.0,0.0,0.0,0.0,0.0,0.0,0.0,0.0,0.0,0.0,0.0,0.0,3.1198,3.623,4.0262,4.2415,4.2914,4.2995,4.2675,4.0749,3.7238,3.1851,0.0,0.0,0.0,0.0,0.0,0.0,0.0,0.0,0.0,0.0,0.0,0.0,0.0,0.0,0.0,0.0,0.0,0.0,0.0,0.0,0.0,0.0,0.0,0.0,0.0,0.0,0.0,0.0,0.0,0.0,0.0,0.0,0.0,0.0,0.0,0.0,0.0,0.0,0.0,0.0,0.0,0.0,0.0,0.0,0.0,0.0,0.0,0.0,0.0,0.0,0.0,0.0,0.0,0.0,0.0,0.0,0.0,0.0,0.0,0.0,0.0,0.0,0.0,0.0,0.0,0.0,0.0,0.0,0.0,0.0,0.0,0.0,0.0,0.0,0.0,0.0,0.0,0.0,0.0,0.0,0.0,0.0,0.0,0.0,0.0,0.0,0.0,0.0,0.0,0.0,0.0,0.0,0.0,0.0,0.0,0.0,0.0,0.0,0.0,0.0,0.0,0.0,3.1558,3.732,4.1527,4.2396,4.1865,4.1695,4.2443,3.775,3.376,0.0,0.0,0.0,0.0,0.0,0.0,0.0,0.0,0.0,0.0,0.0,0.0,0.0,0.0,0.0,0.0,0.0,0.0,0.0,0.0,0.0,0.0,0.0,0.0,0.0,0.0,0.0,0.0,0.0,0.0,0.0,0.0,0.0,0.0,0.0,0.0,0.0,0.0,0.0,0.0,0.0,0.0,0.0,0.0,0.0,0.0,0.0,0.0,0.0,0.0,0.0,0.0,0.0,0.0,0.0,0.0,0.0,0.0,0.0,0.0,0.0,0.0,0.0,0.0,0.0,0.0,0.0,0.0,0.0,0.0,0.0,0.0,0.0,0.0,0.0,0.0,0.0,0.0,0.0,0.0,0.0,0.0,0.0,0.0,0.0,0.0,0.0,0.0,0.0,0.0,0.0,0.0,0.0,0.0,0.0,0.0,0.0,0.0,0.0,0.0,0.0,0.0,0.0,3.1323,3.7635,4.2076,4.2319,4.2149,4.2116,4.2332,3.9593,3.6015,3.1657,0.0,0.0,0.0,0.0,0.0,0.0,0.0,0.0,0.0,0.0,0.0,0.0,0.0,0.0,0.0,0.0,0.0,0.0,0.0,0.0,0.0,0.0,0.0,0.0,0.0,0.0,0.0,0.0,0.0,0.0,0.0,0.0,0.0,0.0,0.0,0.0,0.0,0.0,0.0,0.0,0.0,0.0,0.0,0.0,0.0,0.0,0.0,0.0,0.0,0.0,0.0,0.0,0.0,0.0,0.0,0.0,0.0,0.0,0.0,0.0,0.0,0.0,0.0,0.0,0.0,0.0,0.0,0.0,0.0,0.0,0.0,0.0,0.0,0.0,0.0,0.0,0.0,0.0,0.0,0.0,0.0,0.0,0.0,0.0,0.0,0.0,0.0,0.0,0.0,0.0,0.0,0.0,0.0,0.0,0.0,0.0,0.0,0.0,0.0,0.0,0.0,0.0,3.1209,3.7509,4.1847,4.1847,4.1847,4.1847,4.1847,4.0197,3.7136,3.2472,0.0,0.0,0.0,0.0,0.0,0.0,0.0,0.0,0.0,0.0,0.0,0.0,0.0,0.0,0.0,0.0,0.0,0.0,0.0,0.0,0.0,0.0,0.0,0.0,0.0,0.0,0.0,0.0,0.0,0.0,0.0,0.0,0.0,0.0,0.0,0.0,0.0,0.0,0.0,0.0,0.0,0.0,0.0,0.0,0.0,0.0,0.0,0.0,0.0,0.0,0.0,0.0,0.0,0.0,0.0,0.0,0.0,0.0,0.0,0.0,0.0,0.0,0.0,0.0,0.0,0.0,0.0,0.0,0.0,0.0,0.0,0.0,0.0,0.0,0.0,0.0,0.0,0.0,0.0,0.0,0.0,0.0,0.0,0.0,0.0,0.0,0.0,0.0,0.0,0.0,0.0,0.0,0.0,0.0,0.0,0.0,0.0,0.0,0.0,0.0,0.0,0.0,3.1414,3.7271,4.1292,4.1292,4.1292,4.1271,4.1204,3.9851,3.7461,3.384,0.0,0.0,0.0,0.0,0.0,0.0,0.0,0.0,0.0,0.0,0.0,0.0,0.0,0.0,0.0,0.0,0.0,0.0,0.0,0.0,0.0,0.0,0.0,0.0,0.0,0.0,0.0,0.0,0.0,0.0,0.0,0.0,0.0,0.0,0.0,0.0,0.0,0.0,0.0,0.0,0.0,0.0,0.0,0.0,0.0,0.0,0.0,0.0,0.0,0.0,0.0,0.0,0.0,0.0,0.0,0.0,0.0,0.0,0.0,0.0,3.2844,3.0386,0.0,0.0,0.0,0.0,0.0,0.0,0.0,0.0,0.0,0.0,0.0,0.0,0.0,0.0,0.0,0.0,0.0,0.0,0.0,0.0,0.0,0.0,0.0,0.0,0.0,0.0,0.0,0.0,0.0,0.0,0.0,0.0,0.0,0.0,0.0,0.0,0.0,0.0,0.0,0.0,3.2947,3.8391,4.2063,4.2063,4.2063,4.1813,4.1271,3.9851,3.7958,3.544,3.228,0.0,0.0,0.0,0.0,0.0,0.0,0.0,0.0,0.0,0.0,0.0,0.0,0.0,0.0,0.0,0.0,0.0,0.0,0.0,0.0,0.0,0.0,0.0,0.0,0.0,0.0,0.0,0.0,0.0,0.0,0.0,0.0,0.0,0.0,0.0,0.0,0.0,0.0,0.0,0.0,0.0,0.0,0.0,0.0,0.0,0.0,0.0,0.0,0.0,0.0,0.0,0.0,0.0,0.0,0.0,0.0,0.0,0.0,0.0,3.8044,3.6018,0.0,0.0,0.0,0.0,0.0,0.0,0.0,0.0,0.0,0.0,0.0,0.0,0.0,0.0,0.0,0.0,0.0,0.0,0.0,0.0,0.0,0.0,0.0,0.0,0.0,0.0,0.0,0.0,0.0,0.0,0.0,0.0,0.0,0.0,0.0,0.0,0.0,0.0,0.0,0.0,3.3901,3.8945,4.2151,4.1813,4.2097,4.186,4.0764,3.9965,3.8759,3.6932,3.4629,0.0,0.0,0.0,0.0,0.0,0.0,0.0,0.0,0.0,0.0,0.0,0.0,0.0,0.0,0.0,0.0,0.0,0.0,0.0,0.0,0.0,0.0,0.0,0.0,0.0,0.0,0.0,0.0,0.0,0.0,0.0,0.0,0.0,0.0,0.0,0.0,0.0,0.0,0.0,0.0,0.0,0.0,0.0,0.0,0.0,0.0,0.0,0.0,0.0,0.0,0.0,0.0,0.0,4.5548,4.6362,4.6983,4.6969,4.7243,4.7448,4.3799,4.2693,4.3119,3.8446,0.0,0.0,0.0,0.0,0.0,0.0,0.0,0.0,0.0,0.0,0.0,0.0,0.0,0.0,0.0,0.0,0.0,0.0,0.0,0.0,0.0,0.0,3.758,3.8193,3.9108,3.8674,3.4406,0.0,0.0,0.0,0.0,0.0,0.0,0.0,0.0,0.0,0.0,0.0,3.5129,3.951,4.213,4.1644,4.2016,4.1758,4.0405,4.0168,3.9592,3.8362,3.6862,3.4878,0.0,0.0,0.0,0.0,0.0,0.0,0.0,0.0,0.0,0.0,0.0,0.0,0.0,0.0,0.0,0.0,0.0,0.0,0.0,0.0,0.0,0.0,0.0,0.0,0.0,0.0,0.0,0.0,0.0,0.0,0.0,0.0,3.0134,3.1963,0.0,0.0,0.0,0.0,0.0,0.0,0.0,0.0,0.0,0.0,0.0,0.0,0.0,4.3298,4.5389,4.7492,4.9039,5.0065,5.1982,5.3063,5.3306,5.3822,5.3743,5.3109,5.2419,0.0,4.4537,4.2654,0.0,0.0,0.0,0.0,0.0,0.0,0.0,0.0,0.0,0.0,0.0,0.0,0.0,0.0,0.0,0.0,0.0,0.0,0.0,0.0,0.0,0.0,4.3491,4.3593,4.3193,4.2658,4.1961,3.7374,3.2869,3.1011,2.9565,2.8024,0.0,0.0,0.0,0.0,0.0,0.0,3.8053,4.0726,4.2523,4.3051,4.2625,4.1961,4.1136,4.0472,4.0011,3.9829,3.843,3.7168,3.6209,3.346,0.0,0.0,0.0,0.0,0.0,0.0,0.0,0.0,0.0,0.0,0.0,0.0,0.0,0.0,0.0,0.0,0.0,0.0,0.0,0.0,0.0,0.0,0.0,0.0,0.0,0.0,0.0,0.0,0.0,2.9851,3.3554,3.4697,3.5283,3.4835,0.0,0.0,0.0,0.0,0.0,0.0,0.0,0.0,0.0,4.5614,4.6969,4.8692,5.0847,5.2229,5.331,5.4164,5.5045,5.5526,5.5642,5.577,5.5636,5.5228,5.5144,5.3054,4.9527,4.7002,4.4414,4.1878,0.0,0.0,0.0,0.0,4.0136,4.0687,4.3015,4.3009,4.1918,4.1422,0.0,0.0,0.0,0.0,0.0,0.0,0.0,3.9676,4.1146,4.3078,4.4854,4.5664,4.5568,4.5331,4.5331,4.242,3.8877,3.5666,3.4557,3.2982,2.9354,2.9075,0.0,0.0,0.0,3.6401,3.9331,4.1594,4.3051,4.3389,4.2726,4.1982,4.1271,4.0506,4.0113,4.0113,3.9491,3.8826,3.8117,3.6051,3.3698,0.0,0.0,0.0,0.0,0.0,0.0,0.0,0.0,0.0,0.0,0.0,0.0,0.0,0.0,0.0,0.0,0.0,0.0,0.0,0.0,0.0,0.0,0.0,0.0,0.0,0.0,0.0,0.0,3.3333,3.6607,3.7387,3.9353,3.9583,0.0,0.0,0.0,0.0,0.0,0.0,4.3699,4.5939,4.8112,5.0217,5.1661,5.3138,5.4691,5.5275,5.5925,5.6695,5.6662,5.6799,5.7004,5.6782,5.6558,5.6301,5.6249,5.5398,5.3839,5.0673,4.8367,4.6655,4.5389,4.4395,4.3803,4.5205,4.579,4.6195,4.861,4.8697,4.763,4.6651,4.4569,4.1972,3.9423,0.0,0.0,0.0,0.0,4.2179,4.4073,4.5049,4.5837,4.7086,4.7225,4.709,4.709,4.609,4.4059,4.0324,3.9177,3.7519,3.3439,3.3032,0.0,3.3577,3.5915,3.8454,4.0718,4.2414,4.349,4.3707,4.3031,4.2286,4.1542,4.0811,4.0303,4.0113,4.0113,3.9863,3.9288,3.8084,3.6435,3.4303,0.0,0.0,0.0,0.0,0.0,0.0,0.0,0.0,0.0,0.0,0.0,0.0,0.0,0.0,0.0,0.0,0.0,0.0,0.0,0.0,0.0,0.0,0.0,0.0,0.0,0.0,0.0,0.0,0.0,4.0572,4.394,0.0,0.0,0.0,0.0,4.3337,4.496,4.713,4.9991,5.161,5.3128,5.4715,5.5518,5.5996,5.6099,5.5996,5.6405,5.726,5.712,5.7547,5.8405,5.8176,5.7713,5.7031,5.6854,5.6325,5.5412,5.3261,5.1004,4.8778,4.8135,4.7432,4.6874,4.767,4.8384,4.9082,4.9791,5.0015,5.0049,5.0676,4.8443,4.5596,4.622,4.4359,0.0,0.0,4.4854,4.5771,4.7278,4.7718,4.7921,4.8714,4.836,4.7853,4.7853,4.7259,4.6225,4.4567,4.2536,4.0743,3.9774,0.0,3.8848,3.958,3.9804,4.0738,4.2949,4.3321,4.3693,4.4465,4.3809,4.3051,4.23,4.1576,4.0832,4.0146,4.0113,4.0079,4.0045,3.9288,3.8171,3.666,3.3658,0.0,0.0,0.0,0.0,0.0,0.0,0.0,0.0,0.0,0.0,0.0,0.0,0.0,0.0,0.0,0.0,0.0,0.0,0.0,0.0,0.0,0.0,0.0,0.0,0.0,0.0,0.0,0.0,4.4042,4.6713,0.0,4.5077,4.6274,4.7415,4.7933,4.9903,5.1691,5.3108,5.4261,5.5315,5.6354,5.6747,5.7088,5.7495,5.7424,5.756,5.787,5.7833,5.7969,5.8312,5.8241,5.7981,5.7618,5.7546,5.7103,5.6359,5.56,5.4245,5.2553,5.1841,5.1417,5.1214,5.1485,5.1722,5.1993,5.2215,5.1961,5.1488,5.1269,4.9984,4.8594,4.8911,4.7879,4.6733,4.7304,4.7627,4.7936,4.8462,4.8597,4.8665,4.8951,4.8815,4.8597,4.8597,4.8022,4.7346,4.6819,4.4925,4.2976,4.1724,4.1318,4.0899,4.021,4.1313,4.2496,4.3288,4.3842,4.4296,4.4581,4.3876,4.3085,4.2367,4.161,4.0899,4.0146,3.966,3.9389,3.9389,3.8667,3.7821,3.6829,3.4753,3.1495,0.0,0.0,0.0,0.0,0.0,0.0,0.0,0.0,0.0,0.0,0.0,0.0,0.0,0.0,0.0,0.0,0.0,0.0,0.0,0.0,0.0,0.0,0.0,0.0,0.0,4.1767,4.5418,4.6681,4.9699,5.098,4.915,5.0624,5.1789,5.2092,5.3804,5.4975,5.5328,5.6178,5.6893,5.7368,5.7441,5.7696,5.8081,5.8081,5.8081,5.8081,5.8081,5.8081,5.8081,5.8081,5.8009,5.79,5.79,5.7611,5.7137,5.69,5.6224,5.5243,5.4262,5.3856,5.3856,5.3585,5.3518,5.3518,5.3518,5.3145,5.2638,5.2114,5.1454,5.0845,5.0845,5.0338,4.9679,4.9458,4.9357,4.9323,4.9052,4.9018,4.9018,4.9018,4.9018,4.9018,4.9018,4.8597,4.8259,4.8259,4.6684,4.4939,4.3673,4.345,4.3031,4.18,4.2861,4.3809,4.3809,4.4262,4.4615,4.4615,4.4113,4.3403,4.2401,4.1847,4.1149,4.018,3.9423,3.9017,3.9017,3.8058,3.7291,3.6829,3.5058,3.2544,2.9321,0.0,0.0,0.0,0.0,0.0,0.0,0.0,0.0,0.0,0.0,0.0,0.0,0.0,0.0,0.0,0.0,0.0,0.0,0.0,0.0,0.0,0.0,0.0,4.0601,4.5732,4.924,4.8577,5.3044,5.5229,5.2836,5.477,5.6081,5.5768,5.6586,5.7029,5.6833,5.7509,5.79,5.79,5.79,5.79,5.79,5.79,5.79,5.79,5.79,5.79,5.79,5.79,5.79,5.79,5.79,5.79,5.7832,5.7137,5.6833,5.6697,5.5209,5.4617,5.4516,5.3788,5.3518,5.3518,5.3518,5.3518,5.3518,5.3518,5.2976,5.2334,5.2334,5.181,5.11,5.0371,5.015,4.9947,4.9221,4.9018,4.9018,4.9018,4.9018,4.9018,4.9018,4.9018,4.9018,4.9018,4.7834,4.6616,4.5906,4.5722,4.5466,4.4736,4.4601,0.0,4.4615,4.4615,4.4615,4.4615,4.4615,4.3992,4.2435,4.23,4.1657,4.018,3.9356,3.8983,3.8983,3.7562,3.6829,3.6829,3.4607,3.3085,3.2361,0.0,0.0,0.0,0.0,0.0,0.0,0.0,0.0,0.0,0.0,0.0,0.0,0.0,0.0,0.0,0.0,0.0,0.0,0.0,0.0,0.0,4.3504,4.6984,4.5978,4.8636,5.1228,5.2686,5.4635,5.555,5.4889,5.5923,5.6601,5.6494,5.7225,5.7683,5.7595,5.7798,5.79,5.79,5.79,5.79,5.79,5.79,5.79,5.79,5.79,5.79,5.79,5.79,5.79,5.79,5.79,5.79,5.79,5.7697,5.7577,5.7442,5.5987,5.5074,5.4583,5.4363,5.3957,5.3518,5.3518,5.3518,5.3518,5.3518,5.3348,5.3179,5.3179,5.2638,5.1961,5.1758,5.0913,5.0049,4.9846,4.939,4.9018,4.9018,4.9018,4.9018,4.9018,4.9018,4.9018,4.9018,4.868,4.8173,4.7413,4.6399,4.5635,4.5432,4.4939,4.4615,4.4615,4.4615,4.4615,4.4615,4.4615,4.3992,4.2435,4.23,4.1454,3.9423,3.8599,3.8193,3.8193,3.7291,3.7054,3.7584,3.5351,3.411,0.0,0.0,0.0,0.0,0.0,0.0,0.0,0.0,0.0,0.0,0.0,0.0,0.0,0.0,0.0,0.0,0.0,0.0,0.0,0.0,0.0,0.0,4.7579,5.0759,5.1524,5.2723,5.4042,5.5344,5.6156,5.663,5.663,5.7002,5.7273,5.7273,5.7645,5.79,5.79,5.79,5.79,5.79,5.79,5.79,5.79,5.79,5.79,5.79,5.79,5.79,5.79,5.79,5.79,5.79,5.79,5.79,5.79,5.79,5.79,5.778,0.0,0.0,0.0,0.0,5.4126,5.3518,5.3518,5.3518,5.3518,5.3518,5.3518,5.3518,5.3518,5.3179,5.2739,5.2401,5.1691,5.0947,5.0642,4.9999,4.9458,4.9458,4.9221,4.9018,4.9018,4.9018,4.9018,4.9018,4.9018,0.0,4.8428,4.7158,4.6075,4.5771,4.5074,4.4615,4.4615,4.4615,4.4615,4.4615,4.4615,4.4093,4.2861,4.2503,0.0,0.0,0.0,3.8091,3.7449,3.7021,0.0,0.0,0.0,0.0,0.0,3.7224,0.0,0.0,3.5735,3.5735,0.0,0.0,0.0,0.0,0.0,0.0,0.0,0.0,0.0,0.0,0.0,0.0,0.0,0.0,0.0,0.0,5.0425,5.2644,5.6302,5.6705,5.6702,5.6916,5.7476,5.7863,5.7772,5.7845,5.7863,5.7772,5.7845,5.7934,5.8017,5.8017,0.0,0.0,0.0,5.8103,5.8017,5.8017,5.8001,5.79,5.79,5.79,5.79,5.79,5.79,5.79,5.79,5.79,5.79,5.79,5.79,5.7832,5.7103,5.6799,5.663,5.5141,5.4194,5.3619,5.3551,0.0,0.0,5.3518,5.3518,5.3518,5.3518,5.3518,5.3348,5.2638,5.2367,5.2164,5.1472,5.0777,5.0202,5.0202,4.9661,4.912,4.912,4.9052,4.9018,4.9018,4.9018,4.9018,4.9018,4.7834,4.6684,4.594,4.521,4.4702,4.4601,4.4615,4.4615,4.4615,4.4615,0.0,4.3457,4.2794,4.2049,4.1271,3.9952,3.8679,3.7359,3.7371,3.8048,3.9356,3.9389,4.0358,4.2435,4.3152,4.3592,4.3558,3.9559,3.8792,0.0,0.0,0.0,0.0,0.0,0.0,0.0,0.0,0.0,0.0,0.0,0.0,0.0,0.0,0.0,5.0156,5.2271,5.4328,5.65,5.6094,5.6111,5.7499,5.7832,5.7609,5.6901,5.748,5.7625,5.6901,5.7498,5.8152,5.8761,5.8795,5.9066,5.9674,5.9674,5.9404,5.8776,5.8795,5.849,5.79,5.79,0.0,5.79,5.79,5.79,5.79,5.79,5.79,5.79,5.79,5.79,5.7832,5.7103,5.6799,5.663,5.5141,5.4516,5.4296,5.3721,5.3518,5.3518,5.3518,5.3518,5.3518,5.3518,5.3518,0.0,5.3315,5.2807,5.2266,5.2131,5.1539,5.0998,5.0998,5.0439,4.988,4.988,4.9424,4.9018,4.9018,4.9018,4.9018,4.9018,4.8259,4.7447,4.6684,4.5974,4.5263,4.4668,4.4615,4.4615,4.4615,4.4615,4.4262,4.3457,4.3288,4.2611,4.1258,4.0933,4.0663,4.0358,4.0912,4.1386,4.1657,4.1657,4.2151,4.3186,4.3978,4.4654,4.5215,4.3755,4.3653,0.0,0.0,0.0,0.0,0.0,0.0,0.0,0.0,0.0,0.0,0.0,4.2483,4.5358,0.0,5.0043,5.2235,5.314,5.4132,5.5826,5.5247,5.5442,5.7628,5.7129,5.6787,5.7218,5.6863,5.6787,5.7218,5.7591,5.7959,5.827,5.8657,5.8797,5.8694,5.9144,5.9226,5.8858,5.8942,5.8829,5.8457,5.8103,5.79,5.79,5.79,5.79,5.7863,5.7424,5.7256,5.7218,5.6787,5.6581,5.6586,5.6686,5.674,5.6644,5.5474,5.4611,5.3872,5.3096,5.2587,5.2292,5.2292,5.2573,5.2903,5.2903,5.2903,5.2903,5.2903,5.2341,5.1799,5.2197,5.1748,5.1263,5.166,5.0913,5.0117,5.0117,4.9526,4.9018,4.9018,4.9018,4.9018,4.9018,4.8698,4.8191,4.7447,4.6718,4.5974,4.5229,4.5142,4.5007,4.4635,4.4615,4.4432,4.4045,4.3626,4.2916,4.1813,4.1745,4.1745,4.1745,4.2097,4.2672,4.345,4.345,4.3992,4.5094,4.5872,4.6447,4.6805,4.6786,4.6786,0.0,0.0,0.0,0.0,0.0,0.0,0.0,3.724,3.8961,4.2888,4.4825,4.6671,4.9563,5.0743,5.1913,5.3858,5.3406,5.3439,5.5072,5.4401,5.4674,5.7091,5.6152,5.5796,5.7015,5.6034,5.5848,5.7234,5.7401,5.7549,5.7765,5.8345,5.8379,5.7774,5.8469,5.8794,5.8662,5.8986,5.9107,5.8938,5.8518,5.834,5.834,5.834,5.8248,5.801,5.6975,5.6474,5.627,5.5595,5.5312,5.5373,5.6074,5.6402,5.6426,5.5757,5.4792,5.364,5.2503,5.175,5.1283,5.114,5.1549,5.2092,5.2092,5.2092,5.2092,5.2092,5.1604,5.1276,5.211,5.1826,5.1554,5.232,5.1522,5.0523,5.0523,4.983,4.9221,4.9221,4.9086,4.9018,4.9018,4.9018,4.8748,4.8022,4.738,4.6684,4.5805,4.5703,4.5432,4.4668,4.4615,4.4615,4.4615,4.4012,4.3403,4.2773,4.274,4.2807,4.2943,4.2963,4.3619,4.5007,4.5007,4.5684,4.7022,4.7616,4.7988,4.8124,4.8698,4.8665,3.3067,3.3799,3.5403,3.8372,3.8541,3.9672,0.0,4.6607,4.6233,4.9198,5.0449,5.1153,5.1502,5.2175,5.2986,5.3872,5.3287,5.3349,5.5055,5.3879,5.3543,5.5393,5.5434,5.5055,5.4506,5.4952,5.5325,5.5325,5.6045,5.7036,5.8355,5.8485,5.8766,5.9328,5.9447,5.9166,5.8431,5.9334,5.9431,5.8734,5.9482,5.9844,5.9844,5.9844,5.9391,5.8509,5.6984,5.5998,5.5454,5.5353,5.5312,5.5312,5.5414,5.545,5.548,5.5504,5.5421,5.4977,5.2829,5.2055,5.1893,5.1283,5.1164,5.1238,5.1238,5.1238,5.1238,5.1238,5.1164,5.1276,5.211,5.2223,5.2352,5.3163,5.2706,5.2063,5.2063,5.0947,4.9981,4.9981,4.9458,4.9018,4.9018,4.9018,4.8748,4.8022,4.7819,4.7278,4.5858,4.5703,4.5432,4.4668,4.4615,4.4615,4.4615,4.4499,4.4432,4.433,4.4344,4.4635,4.5297,4.5331,4.5703,4.653,4.6563,4.6955,4.7785,4.7853,4.8225,4.8883,4.8951,4.8951,3.8794,3.9443,3.9994,4.2178,4.3253,4.4633,4.7773,4.8112,4.844,5.0816,5.1553,5.1886,5.2278,5.258,5.2881,5.3183,5.2944,5.2966,5.3695,5.2816,5.2401,5.3141,5.3195,5.3608,5.4683,5.4179,5.4335,5.5666,5.5996,5.6612,5.7579,5.8048,5.8237,5.7971,5.8501,5.8613,5.8272,5.8777,5.9139,5.9389,5.8764,5.8767,5.9276,5.8727,5.7981,5.7055,5.6018,5.5099,5.4348,5.396,5.3772,5.3836,5.4338,5.4548,5.4558,5.461,5.4398,5.3781,5.1941,5.1034,5.0594,4.989,4.9974,5.0384,5.0384,5.0384,5.0384,5.0384,5.0033,4.9837,5.0672,5.0914,5.1121,5.1915,5.1483,5.0887,5.0887,4.9766,4.8743,4.8743,4.8546,4.837,4.837,4.8736,4.8917,4.8612,4.8529,4.8157,4.7109,4.6974,4.6703,4.5954,4.5887,4.5887,4.5887,4.5887,4.5887,4.5887,4.5887,4.6022,4.6312,4.6346,4.664,4.7245,4.7278,4.7649,4.8407,4.8298,4.8482,4.8879,4.9317,4.9456,4.2004,4.294,4.3525,4.5053,4.6942,4.8512,4.8696,4.923,5.0174,5.1682,5.1836,5.1867,5.2306,5.2399,5.2399,5.2399,5.2575,5.2676,5.2676,5.2144,5.1713,5.1713,5.1528,5.2197,5.4113,5.334,5.3597,5.5697,5.5787,5.6068,5.69,5.7488,5.7519,5.681,5.7472,5.7817,5.7817,5.8163,5.8691,5.942,5.842,5.8276,5.8914,5.799,5.7081,5.627,5.5498,5.4629,5.366,5.3168,5.286,5.2765,5.339,5.3642,5.3642,5.3642,5.35,5.307,5.1506,5.0543,4.9857,4.9158,4.9191,4.953,4.953,4.953,4.953,4.953,4.9097,4.8811,4.967,4.9888,5.0104,5.09,5.0649,5.0223,5.0223,4.923,4.8322,4.8357,4.805,4.7802,4.7852,4.8326,4.8689,4.8642,4.8673,4.8498,4.7958,4.7718,4.738,4.6853,4.68,4.68,4.68,4.68,4.68,4.68,4.68,4.6872,4.7031,4.7031,4.7278,4.7851,4.7835,4.812,4.8722,4.8563,4.8697,4.9009,4.9581,4.9836,4.0768,4.2509,4.5022,4.7004,4.9066,5.0759,5.1436,5.2113,5.2583,5.2645,5.2144,5.1713,5.1744,5.1744,5.1744,5.1744,5.2298,5.2676,5.2676,5.2144,5.1713,5.1713,5.1128,5.0996,5.1739,5.2351,5.3252,5.4653,5.4722,5.5362,5.671,5.6834,5.6834,5.681,5.6834,5.6834,5.6834,5.777,5.8226,5.8272,5.9113,5.9544,5.9522,5.8596,5.776,5.7006,5.6093,5.4938,5.3691,5.3691,5.3291,5.2676,5.2721,5.2721,5.2721,5.2721,5.3258,5.3743,5.2197,5.1221,5.0543,4.9887,4.921,4.8625,4.8625,4.8625,4.8625,4.8625,4.8604,4.8811,4.967,4.9888,5.0104,5.09,5.1075,5.1056,5.1056,5.0255,4.9576,4.9794,4.8572,4.7584,4.7761,4.7898,4.7885,4.7671,4.782,4.7944,4.7897,4.7293,4.6819,4.68,4.68,4.68,4.68,4.68,4.68,4.68,4.68,4.7016,4.7542,4.7576,4.7851,4.8482,4.8466,4.8466,4.8515,4.8499,4.8868,4.9571,4.9605,4.999,4.4399,4.5895,4.7065,4.9127,5.0513,5.1528,5.2206,5.2544,5.2553,5.2144,5.1498,5.0882,5.0473,5.0359,5.0513,5.0944,5.159,5.2206,5.2614,5.2513,5.2206,5.1744,5.1898,5.1959,5.1713,5.1898,5.2768,5.4583,5.4706,5.5291,5.6724,5.681,5.681,5.681,5.681,5.681,5.681,5.7091,5.7559,5.8211,5.8501,5.8341,5.7723,5.7424,5.7134,5.6862,5.6066,5.5191,5.4337,5.3876,5.3291,5.2676,5.2676,5.2676,5.2676,5.2676,5.29,5.2998,5.2039,5.1251,5.0574,4.9918,4.9189,4.8583,4.8583,4.8583,4.8583,4.8583,4.8583,4.8666,4.8975,4.9056,4.9117,4.939,4.9349,4.9249,4.9249,4.8537,4.792,4.8139,4.7652,4.7101,4.6914,4.7177,4.7261,4.6759,4.7272,4.7737,4.7876,4.769,4.7729,4.8195,4.8183,4.8121,4.8121,4.8121,4.8075,4.7934,4.7539,4.7576,4.816,4.7698,4.7685,4.8292,4.8308,4.8308,4.8308,4.8694,4.906,4.9425,5.041,5.0942,4.6922,4.7958,4.8512,5.0851,5.1744,5.2175,5.2583,5.2491,5.2082,5.1159,5.0051,4.9035,4.8378,4.804,4.8348,4.9712,5.0728,5.1744,5.2891,5.3045,5.2891,5.2483,5.2583,5.2614,5.2429,5.2421,5.3045,5.4583,5.4922,5.5561,5.6724,5.681,5.681,5.681,5.681,5.681,5.681,5.681,5.7091,5.77,5.77,5.7377,5.681,5.681,5.681,5.6755,5.6293,5.5684,5.5014,5.4337,5.366,5.3014,5.2768,5.2676,5.2676,5.2676,5.2676,5.2614,5.2206,5.1621,5.0944,5.0288,4.9558,4.8943,4.8676,4.8583,4.8583,4.8583,4.8583,4.8563,4.85,4.848,4.8459,4.8396,4.8301,4.8197,4.8197,4.7672,4.7294,4.7514,4.717,4.6817,4.6652,4.6849,4.6916,4.6552,4.6959,4.7398,4.7655,4.795,4.8177,4.8353,4.8578,4.8468,4.7918,4.8129,4.8113,4.7688,4.7306,4.7239,4.7572,4.707,4.6951,4.7288,4.7549,4.7799,4.81,4.8706,4.92,4.9584,5.0507,5.0904,4.8173,4.8737,4.9445,5.2029,5.2676,5.2676,5.2645,5.2113,5.1221,4.9826,4.7896,4.6203,4.5484,4.4929,4.5453,4.805,4.9712,5.1405,5.3414,5.3722,5.3753,5.3753,5.3199,5.3076,5.3691,5.3783,5.406,5.4706,5.5345,5.6016,5.6779,5.681,5.681,5.681,5.681,5.681,5.681,5.681,5.681,5.681,5.681,5.681,5.681,5.681,5.681,5.681,5.681,5.6385,5.5653,5.5014,5.4337,5.3629,5.2983,5.2729,5.2676,5.2676,5.2676,5.2676,5.2676,5.2267,5.159,5.0913,5.0236,4.9558,4.882,4.8583,4.8583,4.8583,4.8563,4.8521,4.8343,4.8301,4.8239,4.8049,4.7986,4.7986,4.7986,4.7773,4.7666,4.7922,4.7229,4.668,4.694,4.6833,4.6767,4.6893,4.6846,4.6906,4.7246,4.7919,4.8098,4.7421,4.7984,4.782,4.636,4.6881,4.6951,4.6208,4.6138,4.6081,4.5885,4.585,4.5791,4.576,4.6374,4.7089,4.7908,4.8551,4.9244,4.9941,4.9974,4.9916,4.9589,5.0913,5.1814,5.2522,5.2676,5.2553,5.2082,5.1036,4.9651,4.7773,4.5792,4.3852,4.2122,4.334,4.4991,4.6172,4.8789,5.1405,5.3414,5.4122,5.446,5.446,5.476,5.4822,5.4491,5.4914,5.5253,5.5438,5.5592,5.6016,5.6779,5.681,5.681,5.681,5.681,5.681,5.681,5.681,5.681,5.681,5.681,5.681,5.681,5.681,5.681,5.681,5.681,5.6385,5.5684,5.553,5.476,5.3691,5.3506,5.3137,5.2676,5.2676,5.2676,5.2676,5.2676,5.2267,5.159,5.0913,5.0236,4.9558,4.882,4.8583,4.8563,4.8427,4.8385,4.8343,4.8133,4.807,4.807,4.8007,4.7837,4.7688,4.7688,4.7516,4.743,4.7645,4.7102,4.6587,4.6491,4.6045,4.5706,4.5717,4.6223,4.6702,4.7013,4.6869,4.7016,4.7822,4.7545,4.7134,4.6739,4.6883,4.6674,4.5877,4.541,4.5337,4.5719,4.5203,4.5347,4.6418,4.6608,4.7017,4.7691,4.8409,4.8853,4.9031,4.9591,4.9843,5.1097,5.2144,5.2676,5.2676,5.2483,5.1906,5.0614,4.9312,4.7404,4.4172,4.2355,4.0649,3.8292,4.0078,4.2417,4.4018,4.7373,5.0697,5.3322,5.4522,5.5253,5.5592,5.593,5.6046,5.5653,5.5961,5.617,5.617,5.617,5.6354,5.6779,5.681,5.681,5.681,5.681,5.681,5.681,5.681,5.681,5.681,5.681,5.6737,5.664,5.6737,5.6737,5.664,5.6761,5.657,5.617,5.5807,5.5253,5.4514,5.3937,5.3376,5.2939,5.2633,5.2473,5.2382,5.2382,5.2168,5.1731,5.1146,5.045,4.9711,4.9122,4.8651,4.8343,4.8322,4.8239,4.8133,4.788,4.7816,4.7794,4.7709,4.7559,4.7482,4.7482,4.7396,4.7331,4.746,4.7173,4.686,4.6741,4.6441,4.6172,4.6172,4.6562,4.6904,4.7099,4.6916,4.6931,4.7352,4.7265,4.6913,4.6257,4.6526,4.637,4.5588,4.5209,4.517,4.5519,4.5092,4.5236,4.6074,4.6363,4.688,4.7594,4.8301,4.8664,4.8664,4.909,4.9075,5.2359,5.2676,5.2676,5.2676,5.2144,5.1036,4.8922,4.7157,4.4664,4.0153,3.8491,3.7092,3.469,3.6476,3.9261,4.1999,4.5753,4.9568,5.3199,5.4699,5.5745,5.6693,5.681,5.6816,5.6909,5.6909,5.6939,5.7014,5.7014,5.6946,5.681,5.681,5.681,5.681,5.6761,5.6761,5.681,5.6737,5.6713,5.6737,5.6713,5.6567,5.6348,5.6592,5.6567,5.6372,5.6592,5.6689,5.6627,5.5988,5.5681,5.5497,5.4306,5.3614,5.3208,5.2597,5.2216,5.2002,5.2002,5.1979,5.188,5.1408,5.0753,5.002,4.9456,4.8721,4.8149,4.8175,4.8091,4.788,4.7624,4.7559,4.7516,4.7352,4.7309,4.7309,4.7309,4.7309,4.7309,4.7309,4.7309,4.7309,4.7309,4.7309,4.7309,4.7309,4.7309,4.7309,4.7309,4.7374,4.7216,4.6648,4.711,4.6891,4.5548,4.6072,4.6163,4.5346,4.5304,4.5304,4.5304,4.5304,4.5334,4.5424,4.6001,4.6731,4.7569,4.8152,4.8428,4.8428,4.8428,4.8019,5.2513,5.2676,5.2676,5.2676,5.1775,5.0328,4.8266,4.5033,4.1586,3.8477,3.5953,3.3983,3.2936,3.546,3.8569,4.134,4.4695,4.8543,5.3045,5.3906,5.473,5.657,5.681,5.7025,5.7555,5.7617,5.7765,5.8118,5.8123,5.7733,5.6847,5.681,5.681,5.681,5.6592,5.6567,5.681,5.6372,5.625,5.647,5.625,5.6102,5.6077,5.6127,5.6102,5.6077,5.6127,5.6151,5.6151,5.6005,5.5609,5.5007,5.4794,5.4009,5.3043,5.2922,5.2504,5.2002,5.2002,5.1834,5.1597,5.119,5.0931,5.0605,4.9404,4.8957,4.865,4.7924,4.7688,4.7602,4.7417,4.7352,4.7352,4.7309,4.7309,4.7309,4.7309,4.7309,4.7309,4.7309,4.7309,4.7309,4.7309,4.7309,4.7309,4.7309,4.7309,4.7309,4.7309,4.6855,4.668,4.7125,4.678,4.6406,4.6142,4.6269,4.6049,4.5355,4.5304,4.5304,4.5304,4.5304,4.5574,4.6121,4.6241,4.6655,4.7336,4.7456,4.7516,4.7516,4.7516,4.743,5.2513,5.2676,5.2637,5.2267,5.0882,4.882,4.5711,4.2417,3.8908,3.5091,3.3289,3.1934,3.0566,3.3412,3.6492,3.8138,4.1555,4.5649,5.0368,5.166,5.316,5.5892,5.6878,5.7432,5.7771,5.7986,5.8199,5.8385,5.8232,5.7907,5.7392,5.702,5.6708,5.6372,5.625,5.625,5.6397,5.6127,5.6053,5.6201,5.6053,5.5929,5.5805,5.5929,5.5929,5.5805,5.5929,5.6003,5.6003,5.6003,5.5791,5.5432,5.5044,5.4455,5.3754,5.3034,5.251,5.2031,5.17,5.1509,5.1356,5.1171,5.0886,5.0487,4.9988,4.9279,4.8566,4.8205,4.7787,4.7439,4.7331,4.7309,4.7309,4.7309,4.7309,4.7309,4.7309,4.7309,4.7309,4.7309,4.7309,4.7309,4.7309,4.7309,4.7309,4.7309,4.7309,4.7309,4.7309,4.7018,4.6929,4.7279,4.6988,4.6809,4.6809,4.6809,4.6681,4.6352,4.6352,4.6352,4.6352,4.6352,4.6501,4.6809,4.6809,4.698,4.7309,4.7309,4.7309,4.7309,4.7309,4.7309,5.2359,5.2606,5.2544,5.1867,5.0051,4.7373,4.3476,4.0139,3.663,3.2304,3.1072,3.0351,2.9089,3.1565,3.432,3.5691,3.897,4.3063,4.7907,4.9928,5.2082,5.5315,5.6939,5.7839,5.7912,5.8358,5.8609,5.8634,5.8325,5.8075,5.7931,5.7259,5.6677,5.6216,5.6015,5.5954,5.6003,5.588,5.5855,5.5904,5.5855,5.5731,5.5506,5.5731,5.5706,5.5531,5.5731,5.583,5.583,5.583,5.583,5.5769,5.52,5.4805,5.4392,5.3164,5.2504,5.2097,5.1415,5.1206,5.1206,5.1206,5.0847,5.0421,5.0501,4.9682,4.87,4.8577,4.8039,4.7489,4.7339,4.7309,4.7309,4.7309,4.7309,4.7309,4.7309,4.7309,4.7309,4.7309,4.7309,4.7309,4.7309,4.7309,4.7309,4.7309,4.7309,4.7309,4.7309,4.7309,4.7309,4.7309,4.7309,4.7309,4.7309,4.7309,4.7309,4.7309,4.7309,4.7309,4.7309,4.7309,4.7309,4.7309,4.7309,4.7309,4.7309,4.7309,4.7309,4.7309,4.7309,4.7309,5.1775,5.2236,5.2544,5.1867,4.9682,4.6819,4.3402,3.9062,3.4952,3.1996,2.995,2.8984,3.003,3.1028,3.292,3.6692,3.9168,4.2461,4.7845,5.0359,5.2637,5.5376,5.6939,5.7949,5.8307,5.893,5.9314,5.9395,5.9135,5.8647,5.7936,5.7259,5.6864,5.6829,5.6058,5.5755,5.6003,5.5506,5.5381,5.5631,5.5381,5.5255,5.5229,5.5255,5.5255,5.5229,5.5255,5.5255,5.5255,5.5255,5.5255,5.5255,5.5195,5.478,5.4156,5.3402,5.2749,5.2097,5.1415,5.1206,5.1206,5.1206,5.1146,5.0996,5.0421,5.0129,4.98,4.8648,4.8259,4.8079,4.7459,4.7309,4.7309,4.7309,4.7309,4.7309,4.7309,4.7309,4.7309,4.7309,4.7309,4.7309,4.7309,4.7309,4.7309,4.7309,4.7309,4.7309,4.7309,4.7309,4.7309,4.7309,4.7309,4.7309,4.7309,4.7309,4.7309,4.7309,4.7309,4.7309,4.7309,4.7309,4.7309,4.7309,4.7309,4.7309,4.7309,4.7309,4.7309,4.7309,4.7309,4.7309,5.1251,5.2206,5.2452,5.1374,4.9035,4.6018,4.2214,3.7984,3.4121,3.1366,2.9507,2.8676,2.963,3.003,3.1274,3.4506,3.5691,3.7968,4.3014,4.5526,4.8378,5.2565,5.4986,5.6916,5.8557,5.9166,5.9388,5.9258,5.9153,5.897,5.8644,5.7587,5.686,5.6469,5.5736,5.5406,5.5506,5.5305,5.5255,5.5355,5.5229,5.5179,5.5179,5.5179,5.5179,5.5179,5.5179,5.5179,5.5179,5.5179,5.5179,5.5179,5.5179,5.5029,5.467,5.3618,5.3049,5.2636,5.1565,5.1206,5.1206,5.1206,5.1206,5.1146,5.0877,5.0518,5.0039,4.9157,4.8618,4.8169,4.7489,4.7309,4.7309,4.7309,4.7309,4.7309,4.7309,4.7309,4.7309,4.7309,4.7309,4.7309,4.7309,4.7309,4.7309,4.7309,4.7309,4.7309,4.7309,4.7309,4.7309,4.7309,4.7309,4.7309,4.7309,4.7309,4.7309,4.7309,4.7309,4.7309,4.7309,4.7309,4.7309,4.7309,4.7309,4.7309,4.7309,4.7309,4.7309,4.7309,4.7309,4.7309,4.9866,5.1282,5.1775,5.042,4.8019,4.4972,4.1107,3.7092,3.3474,3.0909,2.9322,2.8584,2.9292,2.9569,3.0522,3.2998,3.3921,3.5922,4.0491,4.3008,4.6034,5.0503,5.3131,5.5488,5.7703,5.8833,5.9288,5.9099,5.9099,5.9099,5.9099,5.7842,5.6885,5.6492,5.5653,5.5179,5.5179,5.5179,5.5179,5.5179,5.5179,5.5179,5.5179,5.5179,5.5179,5.5179,5.5179,5.5179,5.5179,5.5179,5.5179,5.5179,5.5179,5.5179,5.5029,5.3707,5.3198,5.3019,5.1678,5.1206,5.1206,5.1206,5.1206,5.1206,5.1206,5.0877,5.0368,4.9733,4.8947,4.8169,4.7489,4.7309,4.7309,4.7309,4.7309,4.7309,4.7309,4.7309,4.7309,4.7309,4.7309,4.7309,4.7309,4.7309,4.7309,4.7309,4.7309,4.7309,4.7309,4.7309,4.7309,4.7309,4.7309,4.7309,4.7309,4.7309,4.7309,4.7309,4.7309,4.7309,4.7309,4.7309,4.7309,4.7309,4.7309,4.7309,4.7309,4.7309,4.7309,4.7309,4.7309,4.7084,4.7281,4.9158,5.0389,4.8974,4.6603,4.3728,4.0276,3.6338,3.2844,3.0817,2.9322,2.8584,2.9292,2.9938,3.1032,3.309,3.5122,3.7892,4.2017,4.4707,4.7283,4.9983,5.1911,5.3715,5.548,5.7731,5.9099,5.9099,5.9099,5.9099,5.9099,5.7842,5.7094,5.7094,5.5867,5.5179,5.5179,5.5179,5.5179,5.5179,5.5179,5.5179,5.5179,5.5179,5.5179,5.5179,5.5179,5.5179,5.5179,5.5179,5.5179,5.5179,5.5179,5.5179,5.5029,5.3707,5.3198,5.3019,5.1678,5.1206,5.1206,5.1206,5.1206,5.1206,5.1206,5.1206,5.1056,5.0398,4.9284,4.8169,4.7489,4.7309,4.7309,4.7309,4.7309,4.7309,4.7309,4.7309,4.7309,4.7309,4.7309,4.7309,4.7309,4.7309,4.7309,4.7309,4.7309,4.7309,4.7309,4.7309,4.7309,4.7309,4.7309,4.7309,4.7309,4.7309,4.7309,4.7309,4.7309,4.7309,4.7309,4.7309,4.7309,4.7309,4.7309,4.7309,4.7309,4.7309,4.7309,4.7309,4.7309,4.6616,4.2368,4.4264,4.5391,4.3537,4.243,4.1014,3.8108,3.5337,3.2844,3.0817,2.9322,2.8584,2.9292,2.9505,3.0807,3.4621,3.572,3.7485,4.1565,4.4389,4.7114,5.0085,5.4411,5.7389,5.7944,5.8674,5.9099,5.9099,5.9099,5.9099,5.9099,5.7842,5.7094,5.7094,5.5867,5.5179,5.5179,5.5179,5.5179,5.5179,5.5179,5.5179,5.5179,5.5179,5.5179,5.5179,5.5179,5.5179,5.5179,5.5179,5.5179,5.5179,5.5179,5.5179,5.5089,5.4192,5.3593,5.3079,5.2187,5.1565,5.1206,5.1206,5.1206,5.1206,5.1206,5.1206,5.0966,4.9883,4.8955,4.8169,4.7489,4.7309,4.7309,4.7309,4.7309,4.7309,4.7309,4.7309,4.7309,4.7309,4.7309,4.7309,4.7309,4.7309,4.7309,4.7309,4.7309,4.7309,4.7309,4.7309,4.7309,4.7309,4.7127,4.7019,4.7019,4.7019,4.7019,4.7019,4.7019,4.7106,4.7287,4.7106,4.7019,4.7019,4.6887,4.6829,4.6829,4.6077,4.5366,4.4697,4.4909,4.4651,3.8522,4.0693,4.174,4.0461,3.9537,3.843,3.6245,3.3921,3.1845,3.0325,2.9169,2.8535,2.8953,2.9314,3.0693,3.4088,3.5155,3.6973,4.0988,4.376,4.6843,5.0688,5.5195,5.7992,5.7992,5.868,5.9099,5.9099,5.9099,5.9099,5.9099,5.7842,5.7094,5.7094,5.5867,5.5179,5.5179,5.5179,5.5179,5.5179,5.5179,5.5179,5.5179,5.5179,5.5179,5.5179,5.5179,5.5179,0.0,5.5179,5.5179,5.5179,5.5179,5.5179,5.5119,5.4461,5.3773,5.3109,5.2426,5.1768,5.1206,5.1206,5.1206,5.1206,5.1206,5.1206,5.0966,4.9942,4.9164,4.8528,4.7848,4.7489,4.7309,4.7309,4.7309,4.7309,4.7309,4.7309,4.7309,4.7309,4.7309,4.7309,4.7309,4.7309,4.7309,4.7309,4.7222,4.7127,4.7127,4.7092,4.7048,4.7048,4.6887,4.6756,4.6616,4.6734,4.68,4.68,4.68,4.6844,4.7048,4.6484,4.6366,4.6778,4.5898,4.5627,4.5987,4.4932,4.4116,4.3504,4.3669,4.3409,0.0,3.7768,3.8813,3.8782,3.7445,3.5784,3.4475,3.2201,0.0,2.95,2.8836,2.8437,2.8621,2.9534,3.0775,3.2395,3.4197,3.676,4.0673,4.3492,4.6971,5.1971,5.4785,5.6342,5.6402,5.8022,5.9099,5.9099,5.9099,5.9069,5.9039,5.7812,5.7064,5.7034,5.5837,5.5179,5.5179,5.5179,5.5179,5.5179,5.5179,5.5179,5.5179,5.5179,5.5179,5.5179,5.5179,5.5179,5.5179,5.5179,5.5179,5.5179,5.5179,5.5149,5.5059,5.4491,5.3773,5.3049,5.2456,5.1798,5.1206,5.1206,5.1129,5.1082,5.1082,5.1129,5.1056,5.0398,4.9763,4.9157,4.8468,4.7788,4.7309,4.7309,4.7309,4.7309,4.7309,4.7309,4.7309,4.7309,4.7287,4.7287,4.7287,4.7266,4.7244,4.7244,4.704,4.6887,4.6887,4.6646,4.6491,4.6491,4.6403,4.6269,4.5994,4.6291,4.6447,4.6447,4.6403,4.6358,4.638,4.5395,4.5326,4.6336,4.4447,4.3882,4.472,4.3811,4.3313,4.3242,4.3242,4.2593,2.8974,0.0,3.2261,3.174,3.1946,3.206,0.0,3.0552,2.9898,2.9233,2.8563,2.8703,3.0701,3.0805,3.2007,3.6383,3.8241,4.0166,4.3108,4.7486,5.1785,5.5508,5.6974,5.7872,5.8351,5.883,5.9099,5.9099,5.9099,5.889,5.8354,5.7543,5.6885,5.6432,5.5598,5.5179,5.5179,5.5179,5.5179,5.5179,5.5179,5.5179,5.5179,5.5179,5.5179,5.5179,5.5179,5.5179,5.5179,5.5179,5.5179,5.5179,5.5179,5.488,5.4491,5.482,5.3892,5.2486,5.2839,5.2187,5.1206,5.1206,5.0656,4.9979,4.9979,5.0531,5.1056,5.0398,4.9763,4.9157,4.8468,4.7788,4.7309,4.7309,4.7309,4.7309,4.7309,4.7309,4.7309,4.7309,4.7127,4.6997,4.6997,4.6866,4.6756,4.6756,4.669,4.6668,4.6668,4.592,4.5395,4.5395,4.4517,4.3882,4.3811,4.4661,4.515,4.515,4.4377,4.3999,4.421,4.3787,4.3669,4.3905,4.3293,4.2668,4.2108,4.2059,4.1541,4.0592,4.0794,4.0617,2.6305,2.852,3.0538,3.0508,3.0985,3.1356,3.0992,2.9959,2.8974,2.8614,2.8493,2.9009,3.0711,3.1601,3.3322,3.7114,3.9229,4.1833,4.5992,5.0092,5.3677,5.6372,5.7513,5.8115,5.8171,5.8471,5.853,5.8201,5.8171,5.8022,5.7663,5.7034,5.6551,5.6222,5.5564,5.5179,5.5179,5.5179,5.5179,5.5179,5.5179,5.5179,5.5179,5.5179,5.5179,5.5179,5.5179,5.5179,5.5179,5.5179,5.5179,5.5179,5.5179,5.479,5.4227,5.461,5.3653,5.2175,5.2043,5.134,5.0388,4.9902,4.9684,4.9513,4.9018,4.9264,4.9645,4.9296,4.8922,4.8407,4.752,4.6619,4.592,4.592,4.592,4.592,4.592,4.592,4.5898,4.5756,4.5981,4.6054,4.5434,4.6061,4.6425,4.592,4.6173,4.6269,4.5792,4.5121,4.4494,4.405,4.3388,4.2958,4.2958,4.3054,4.3293,4.3819,4.3269,4.303,4.3174,4.2571,4.201,4.1541,4.1889,4.1543,4.0516,4.0642,4.0364,3.9697,3.9852,3.9826,2.583,2.8667,3.1259,3.1453,3.1802,3.2017,3.1819,3.0095,2.8538,2.8538,2.9005,2.9732,3.0912,3.2779,3.4916,3.7338,3.9829,4.3419,4.9097,5.1791,5.3947,5.5953,5.7154,5.7633,5.7154,5.7633,5.7723,5.7124,5.7094,5.7064,5.6944,5.6492,5.6162,5.6042,5.5504,5.5179,5.5179,5.5179,5.5179,5.5179,5.5179,5.5179,5.5179,5.5179,5.5179,5.5179,5.5179,5.5179,5.5179,5.5179,5.5179,5.5179,5.5089,5.464,5.4017,5.3868,5.293,5.1654,5.0572,4.9824,4.9219,4.8321,4.8496,4.8919,4.8016,4.7765,4.7712,4.7534,4.7599,4.7438,4.6361,4.5272,4.4401,4.434,4.4312,4.4312,4.4312,4.4289,4.4167,4.3929,4.4512,4.4697,4.3622,4.4892,4.5695,4.4794,4.5235,4.5378,4.4522,4.4078,4.3484,4.2647,4.2428,4.233,4.233,4.1493,4.1344,4.2282,4.233,4.233,4.233,4.1444,4.0567,3.9723,4.0542,4.0541,3.9697,3.9697,3.9697,3.9697,3.9697,3.9697,2.6711,2.9752,3.1776,2.9793,3.087,3.2137,3.0982,3.0834,3.0969,3.0969,3.1029,3.2182,3.5644,3.6167,3.7439,4.1613,4.4496,4.7728,5.2001,5.2959,5.3947,5.5953,5.6372,5.6671,5.7064,5.7184,5.7214,5.7094,5.7094,5.6881,5.6372,5.6252,5.5953,5.5359,5.5239,5.5179,5.5179,5.5179,5.5179,5.5179,5.5179,5.5179,5.5179,5.5179,5.5179,5.5179,5.5179,5.5179,5.5179,5.5179,5.5179,5.5119,5.4581,5.3952,5.3226,5.2331,5.1133,4.9829,4.8788,4.8327,4.8217,4.8041,4.751,4.6869,4.6713,4.6661,4.6452,4.5475,4.6142,4.6957,4.6279,4.5581,4.4935,4.4401,4.4312,4.4312,4.4312,4.4121,4.3952,4.3905,4.3669,4.3385,4.3194,4.3293,4.3344,4.315,4.3249,4.3273,4.3105,4.2255,4.1617,4.1468,4.0668,4.0185,4.0185,4.0032,4.0006,4.0185,4.0185,4.0185,4.0185,4.0006,3.9852,3.9697,3.9852,3.9852,3.9697,3.9697,3.9697,3.9697,3.9697,3.9697,2.6099,2.8989,3.1314,3.0906,3.3261,3.5429,3.4442,3.3918,3.3649,3.3649,3.3948,3.4981,3.7494,3.8619,4.0655,4.5244,4.7938,5.0301,5.2839,5.3503,5.4221,5.5504,5.5983,5.6162,5.6077,5.6376,5.6436,5.6107,5.6077,5.5927,5.5683,5.5683,5.5534,5.5209,5.5179,5.5179,5.5179,5.5179,5.5179,5.5179,5.5179,5.5179,5.5179,5.5179,5.5179,5.5179,5.5179,5.482,5.4252,5.4252,5.386,5.3253,5.2587,5.195,5.1233,5.0086,4.8878,4.7791,4.7306,4.7126,4.7023,4.6399,4.6321,4.6295,4.5688,4.5475,4.5368,4.4857,4.5418,4.5901,4.4746,4.3999,4.3429,4.2809,4.2577,4.2452,4.2452,4.2257,4.2037,4.1862,4.2108,4.2084,4.1394,4.2135,4.2598,4.2037,4.2428,4.2598,4.2012,4.1518,4.0969,4.0465,3.9981,3.9697,3.9697,3.9697,3.9697,3.9697,3.9697,3.9697,3.9697,3.9697,3.9697,3.9697,3.9697,3.9697,3.9697,3.9697,3.9697,3.9697,3.9697,3.9697,2.593,2.8432,3.0911,3.2542,3.5489,3.799,3.8093,3.7225,3.658,3.7208,3.7614,3.826,3.9529,4.1553,4.4337,4.8327,5.0481,5.2127,5.3498,5.4102,5.461,5.5119,5.5653,5.5773,5.5239,5.5683,5.5743,5.5239,5.5179,5.5179,5.5179,5.5179,5.5179,5.5179,5.5179,5.5179,5.5179,5.5179,5.5179,5.5179,5.5179,5.5179,5.5179,5.5179,5.5053,5.4769,5.4769,5.4123,5.2989,5.2989,5.2398,5.1449,5.0802,4.9941,4.8893,4.7973,4.6945,4.5979,4.5979,4.5979,4.5874,4.4992,4.5288,4.5848,4.4965,4.4695,4.4695,4.4695,4.4944,4.4886,4.3389,4.2709,4.2186,4.1405,4.1047,4.0896,4.082,4.0593,4.0338,4.0134,4.0668,4.0844,3.9852,4.102,4.179,4.097,4.1543,4.1766,4.097,4.0844,4.0541,3.98,3.9697,3.9697,3.9697,3.9697,3.9697,3.9697,3.9697,3.9697,3.9697,3.9697,3.9697,3.9697,3.9697,3.9697,3.9697,3.9697,3.9697,3.9697,3.9697,3.9697,2.75,2.9428,3.112,3.3709,3.5506,3.7272,3.9649,3.9631,3.981,4.2263,4.2312,4.2361,4.3658,4.6022,4.8506,5.0637,5.2157,5.3528,5.485,5.5089,5.5149,5.5179,5.5239,5.5239,5.5179,5.5239,5.5239,5.5179,5.5179,5.5179,5.5179,5.5179,5.5179,5.5179,5.5179,5.5179,5.5179,5.5179,5.5179,5.5179,5.5179,5.5179,5.5179,5.5179,5.459,5.3518,5.3518,5.2886,5.181,5.181,5.1418,5.0802,5.0129,4.8574,4.6613,4.6558,4.5821,4.483,4.483,4.483,4.4803,4.4722,4.4749,4.4803,4.4722,4.4695,4.4695,4.4695,4.4533,4.4166,4.3232,4.2971,4.2605,4.1256,4.0921,4.0846,4.0567,4.0313,4.0134,4.0109,3.9955,3.9826,3.9723,3.9801,3.9878,3.9801,3.9852,3.9878,3.9801,3.9826,3.98,3.9723,3.9697,3.9697,3.9697,3.9697,3.9697,3.9697,3.9697,3.9697,3.9697,3.9697,3.9697,3.9697,3.9697,3.9697,3.9697,3.9697,3.9697,3.9697,3.9697,3.9697,2.5651,2.8863,3.2108,3.353,3.6434,3.929,4.0715,4.1773,4.307,4.5313,4.5603,4.5574,4.6082,4.769,4.9307,5.0398,5.2067,5.3528,5.4461,5.494,5.5179,5.5179,5.5179,5.5179,5.5179,5.5179,5.5179,5.5179,5.5179,5.5179,5.5179,5.5179,5.4845,5.4094,5.4068,5.3756,5.3018,5.3018,5.3018,5.3045,5.4513,5.4794,5.4068,5.4068,5.344,5.2323,5.2323,5.1674,5.0546,5.0216,4.95,4.8534,4.7566,4.641,4.5342,4.5342,4.5073,4.4695,4.4695,4.4695,4.4695,4.4695,4.4695,4.4695,4.4695,4.4695,4.4695,4.4695,4.4271,4.3641,4.2917,4.2631,4.2189,4.0952,4.0516,4.0389,4.0287,4.0032,3.9852,3.9852,3.9774,3.9697,3.9697,3.9697,3.9697,3.9697,3.9697,3.9697,3.9697,3.9697,3.9697,3.9697,3.9697,3.9697,3.9697,3.9697,3.9697,3.9697,3.9697,3.9697,3.9697,3.9697,3.9697,3.9697,3.9697,3.9697,3.9697,3.9697,3.9697,3.9697,3.8921,3.858,2.5364,2.8803,3.2512,3.3814,3.6956,4.0277,4.2211,4.3658,4.5304,4.7706,4.8057,4.7938,4.7938,4.8678,4.9636,5.0667,5.2157,5.3528,5.4401,5.491,5.5053,5.4692,5.4976,5.4926,5.4175,5.4769,5.4845,5.399,5.4304,5.4329,5.3964,5.3938,5.3597,5.2883,5.2857,5.2484,5.1702,5.1674,5.1674,5.1702,5.3337,5.3652,5.2857,5.2857,5.2216,5.1127,5.1127,5.0352,4.9038,4.8691,4.7837,4.668,4.5687,4.506,4.4695,4.4695,4.4695,4.4695,4.4695,4.4695,4.4695,4.4695,4.4641,4.4559,4.4559,4.4531,4.4449,4.4449,4.3844,4.3088,4.2496,4.216,4.167,4.0619,4.0236,4.0083,3.9981,3.9826,3.9697,3.9697,3.9697,3.9697,3.9697,3.9697,3.9697,3.9697,3.9697,3.9697,3.9697,3.9697,3.9697,3.9697,3.9697,3.9697,3.9697,3.9697,3.9697,3.9697,3.9697,3.9697,3.9697,3.9697,3.9517,3.9154,3.9128,3.9128,3.9128,3.8661,3.8635,3.8973,3.7687,3.7099,2.7405,2.9535,3.2168,3.4845,3.6985,3.9649,4.4257,4.5304,4.6262,4.9508,4.9733,4.9307,4.9307,4.9307,4.9935,5.1858,5.2725,5.3648,5.497,5.5179,5.4713,5.3515,5.4432,5.4252,5.1919,5.3782,5.4042,5.1373,5.2295,5.2455,5.1236,5.1181,5.1346,5.1647,5.1674,5.1647,5.1647,5.1647,5.1647,5.1647,5.1647,5.1674,5.1674,5.1674,5.1017,4.9873,4.9873,4.8898,4.7307,4.7281,4.6628,4.5531,4.493,4.4695,4.4695,4.4695,4.4695,4.4695,4.4695,4.4695,4.4695,4.4695,4.4531,4.4285,4.4285,4.4094,4.3899,4.3899,4.3245,4.2468,4.1936,4.1589,4.1157,4.0312,4.0109,4.0032,3.9774,3.9697,3.9697,3.9697,3.9697,3.9697,3.9697,3.9697,3.9697,3.9697,3.9697,3.9697,3.9697,3.9697,3.9697,3.9697,3.9697,3.9697,3.9697,3.9697,3.9697,3.9697,3.9697,3.9697,3.9697,3.9697,3.9128,3.7923,3.7897,3.7897,3.7897,3.6406,3.6325,3.745,3.5972,3.5288,2.6973,3.0177,3.4023,3.5759,3.9768,4.3748,4.5583,4.6381,4.7519,5.0308,5.0398,4.992,4.992,4.992,5.0129,5.0697,5.1768,5.2636,5.3025,5.2852,5.254,5.218,5.2122,5.1722,5.0812,5.1375,5.1544,5.0906,5.0845,5.0816,5.0851,5.0851,5.0546,4.9818,4.979,4.9392,4.8558,4.8389,4.8503,4.8875,4.8702,4.9268,5.0434,5.0434,4.9571,4.8061,4.8061,4.7545,4.6708,4.6262,4.5661,4.4956,4.4773,4.4695,4.4695,4.4695,4.4695,4.4695,4.4695,4.4559,4.4449,4.4641,4.4531,4.4285,4.4285,4.4231,4.4044,4.3441,4.2659,4.1884,4.1326,4.069,4.0157,3.9877,3.9801,3.98,3.9723,3.9697,3.9697,3.9697,3.9697,3.9697,3.9697,3.9697,3.9697,3.9697,3.9697,3.9697,3.9697,3.9697,3.9697,3.9697,3.9697,3.9697,3.9697,3.9697,3.9697,3.9697,3.9697,3.9697,3.9697,3.8868,3.8267,3.7923,3.7126,3.67,3.67,3.6027,3.589,3.619,3.4736,3.4041,2.9428,3.2841,3.6553,3.8661,4.2282,4.5753,4.7467,4.8155,4.8962,5.0817,5.0667,5.0285,5.0548,5.0398,5.0229,5.0337,5.1052,5.1473,5.1162,5.0908,5.0549,4.9977,5.0051,4.9687,4.8543,4.9308,4.95,4.8557,4.8623,4.8651,4.8473,4.8471,4.8216,4.7672,4.7643,4.7296,4.6594,4.6434,4.6547,4.6856,4.6694,4.7181,4.8211,4.8677,4.8311,4.7281,4.6811,4.6445,4.6107,4.5478,4.5034,4.4695,4.4695,4.4613,4.4558,4.4641,4.4613,4.4559,4.4641,4.4531,4.434,4.4504,4.4259,4.3931,4.3931,4.372,4.3355,4.2807,4.201,4.1193,4.0864,4.0229,3.9697,3.9697,3.9697,3.9697,3.9697,3.9697,3.9697,3.9697,3.9697,3.9697,3.9697,3.9697,3.9697,3.9697,3.9697,3.9697,3.9697,3.9697,3.9697,3.9697,3.9697,3.9697,3.9697,3.9697,3.9516,3.8999,3.8973,3.879,3.8319,3.8056,3.7394,3.6371,3.5827,3.5393,3.5123,3.4459,3.4342,3.4626,3.3162,3.2473,3.323,3.6224,3.911,4.2472,4.4476,4.6471,4.9501,5.0255,5.0458,5.1056,5.0727,5.0488,5.1086,5.0604,5.02,5.0426,5.0382,5.0054,4.9356,4.9203,4.8646,4.7294,4.8056,4.7839,4.5688,4.7428,4.7675,4.5224,4.6033,4.6174,4.511,4.5048,4.5192,4.5508,4.5508,4.5508,4.5508,4.5485,4.5514,4.5537,4.5514,4.5543,4.5648,4.6708,4.7174,4.7098,4.5973,4.5475,4.5451,4.4903,4.4641,4.4641,4.4641,4.4531,4.434,4.4558,4.4476,4.4285,4.4558,4.4449,4.4231,4.4258,4.3848,4.3381,4.3381,4.2861,4.224,4.2162,4.1329,4.0474,4.045,4.0074,3.9697,3.9697,3.9697,3.9697,3.9697,3.9697,3.9697,3.9697,3.9697,3.9697,3.9697,3.9697,3.9697,3.9697,3.9697,3.9697,3.9697,3.9697,3.9697,3.9697,3.9697,3.9697,3.9697,3.962,3.9051,3.795,3.774,3.718,3.5995,3.6992,3.6426,3.405,3.4162,3.3944,3.3339,3.2264,3.217,3.2907,3.1556,3.0898,3.1645,3.4815,3.8524,4.2352,4.5903,4.8768,4.992,5.0607,5.1026,5.1176,5.1086,5.1026,5.1176,5.0217,4.9441,4.9482,4.8563,4.778,4.7636,4.691,4.6249,4.5929,4.5729,4.538,4.4645,4.5042,4.514,4.4738,4.4561,4.4542,4.468,4.4705,4.4734,4.4792,4.4821,4.4821,4.4821,4.4675,4.4789,4.5221,4.4991,4.5158,4.5622,4.6093,4.6141,4.5895,4.497,4.4576,4.4576,4.4446,4.4395,4.4395,4.4395,4.434,4.4285,4.4121,4.4037,4.401,4.4064,4.3874,4.3628,4.3901,4.3736,4.3381,4.3381,4.2998,4.2383,4.1685,4.1001,4.0399,3.9973,3.9798,3.9697,3.9697,3.9697,3.9697,3.9697,3.9697,3.9697,3.9697,3.9697,3.9697,3.9697,3.9697,3.9697,3.9697,3.9697,3.9697,3.9697,3.9697,3.9697,3.9697,3.9697,3.9697,3.9697,3.8816,3.8108,3.761,3.6676,3.5535,3.4153,3.4564,3.4558,3.4022,3.2921,3.2313,3.217,3.1672,3.1498,3.1681,3.1141,3.0898,3.1675,3.5353,3.9433,4.3916,4.649,4.8087,4.8734,4.9426,4.9774,4.9184,5.0176,5.1182,5.1035,5.0017,4.8989,4.8343,4.7148,4.6083,4.5422,4.4859,4.4453,4.4317,4.4077,4.3835,4.3695,4.3695,4.3737,4.3815,4.3564,4.3539,4.3815,4.384,4.384,4.384,4.384,4.384,4.384,4.3733,4.3818,4.4096,4.3962,4.4102,4.4576,4.5114,4.5156,4.4753,4.4331,4.4094,4.4094,4.4094,4.4094,4.4094,4.4094,4.4011,4.3848,4.3874,4.3791,4.3681,4.3844,4.3681,4.3434,4.36,4.3462,4.3212,4.3212,4.2629,4.1868,4.143,4.0725,4.0049,3.9772,3.9697,3.9697,3.9697,3.9697,3.9697,3.9697,3.9697,3.9697,3.9697,3.9697,3.9697,3.9697,3.9697,3.9697,3.9697,3.9697,3.9697,3.9697,3.9697,3.9697,3.9697,3.918,3.8842,3.8842,3.7607,3.6565,3.5886,3.5096,3.4069,3.2729,3.2693,3.2693,3.2693,3.2113,3.1643,3.1373,3.1325,3.1238,3.1112,3.0966,3.0898,3.1196,3.5551,4.0065,4.4843,4.5966,4.6089,4.6742,4.7496,4.7775,4.6711,4.8682,5.0532,5.021,4.9235,4.8114,4.6997,4.582,4.467,4.3492,4.3351,4.324,4.3042,4.3014,4.3014,4.3014,4.3014,4.3014,4.3014,4.3014,4.3014,4.3014,4.3014,4.3014,4.3014,4.3014,4.3014,4.3014,4.3014,4.3014,4.3014,4.3014,4.3101,4.3351,4.4084,4.4226,4.3899,4.3844,4.3791,4.3791,4.3791,4.3791,4.3791,4.3791,4.3653,4.3434,4.3653,4.357,4.3379,4.3653,4.357,4.3326,4.3224,4.3033,4.2838,4.2738,4.198,4.1177,4.1177,4.0449,3.9697,3.9697,3.9697,3.9697,3.9697,3.9697,3.9697,3.9697,3.9697,3.9697,3.9697,3.9697,3.9697,3.9697,3.9697,3.9697,3.9697,3.9697,3.9697,3.9697,3.9697,3.9697,3.9697,3.8633,3.7897,3.782,3.6402,3.5035,3.3916,3.3445,3.2729,3.1672,3.1383,3.1238,3.1238,3.1498,3.1402,3.0898,3.1112,3.1112,3.0898,3.0898,3.0898,2.6939,3.2152,3.7949,4.1574,4.3245,4.4132,4.4749,4.5427,4.5867,4.5706,4.7044,4.8134,4.7673,4.6474,4.5502,4.5316,4.4208,4.3268,4.3073,4.3045,4.3042,4.3014,4.3014,4.3014,4.3014,4.3014,4.3014,4.3014,4.3014,4.3014,4.3014,4.3014,4.3014,4.3014,4.3014,4.3014,4.3014,4.3014,4.3014,4.3014,4.3014,4.3042,4.307,4.3148,4.348,4.3872,4.3572,4.3462,4.3462,4.3462,4.3462,4.3462,4.3462,4.3434,4.3379,4.3184,4.3098,4.3045,4.3098,4.3098,4.2969,4.2491,4.2341,4.221,4.1706,4.1102,4.06,4.06,4.0174,3.9697,3.9697,3.9697,3.9697,3.9697,3.9697,3.9697,3.9697,3.9697,3.9697,3.9697,3.9697,3.9697,3.9697,3.9697,3.9697,3.9697,3.9697,3.9697,3.9697,3.9697,3.9697,3.9697,3.8633,3.7793,3.7583,3.5777,3.4252,3.3275,3.2465,3.173,3.1054,3.0986,3.0937,3.0937,3.0995,3.0986,3.0898,3.0937,3.0937,3.0898,3.0898,3.0898,2.8345,3.2061,3.5682,3.9631,4.1119,4.1734,4.228,4.3239,4.3781,4.3083,4.3804,4.4886,4.5816,4.4956,4.4045,4.3914,4.2847,4.2057,4.2057,4.2057,4.2183,4.2512,4.2537,4.2663,4.2964,4.3014,4.3014,4.3014,4.3014,4.3014,4.3014,4.3014,4.3014,4.3014,4.3014,4.3014,4.3014,4.3014,4.3014,4.3014,4.3014,4.3014,4.3014,4.3014,4.3154,4.3376,4.3265,4.3184,4.3184,4.3184,4.3184,4.3184,4.3184,4.3184,4.3131,4.2718,4.2738,4.2964,4.2663,4.2537,4.2512,4.2288,4.1984,4.1656,4.1378,4.0926,4.0499,4.0499,4.0124,3.9697,3.9697,3.9697,3.9697,3.9697,3.9697,3.9697,3.9697,3.9697,3.9697,3.9697,3.9697,3.9697,3.9697,3.9697,3.9697,3.9697,3.9697,3.9439,3.8764,3.8685,3.8372,3.7554,3.6402,3.5585,3.5266,3.367,3.2522,3.2121,3.1585,3.117,3.0928,3.0898,3.0898,3.0898,3.0898,3.0898,3.0898,3.0898,3.0898,3.0898,3.0898,3.0898,2.8145,3.0405,3.22,3.6338,3.7913,3.8687,3.9657,4.0773,4.138,4.0721,4.108,4.1953,4.3438,4.3276,4.2814,4.2605,4.1865,4.1302,4.1302,4.1302,4.1478,4.1934,4.1984,4.2135,4.2534,4.2559,4.2559,4.2559,4.2559,4.2559,4.2559,4.2559,4.2559,4.2559,4.2559,4.2635,4.2788,4.2788,4.2788,4.2788,4.2788,4.2864,4.3014,4.3014,4.3014,4.3014,4.3014,4.2914,4.2788,4.2788,4.2713,4.2559,4.2559,4.2559,4.2509,4.2135,4.2208,4.2509,4.211,4.1984,4.1959,4.1808,4.1266,4.0676,4.0846,4.0414,3.9881,4.0195,4.0023,3.9697,3.9697,3.9697,3.962,3.931,3.9232,3.9232,3.9232,3.9232,3.9232,3.9232,3.9232,3.9232,3.9232,3.9232,3.9154,3.8842,3.8738,3.8372,3.7474,3.7287,3.6807,3.5727,3.4564,3.3726,3.3424,3.2178,3.1354,3.1228,3.1083,3.0966,3.0898,3.0898,3.0898,3.0898,3.0898,3.0898,3.0898,3.0898,3.0898,3.0898,3.0557,3.0392,2.2831,2.4742,2.6659,3.0184,3.2664,3.4788,3.6904,3.7835,3.8541,3.9548,3.9825,3.9876,3.9979,4.0758,4.141,4.1383,4.1329,4.1302,4.1302,4.1302,4.1327,4.1352,4.1352,4.1378,4.1403,4.1403,4.1403,4.1403,4.1403,4.1403,4.1403,4.1403,4.1403,4.1403,4.1403,4.1681,4.2263,4.2263,4.2263,4.2263,4.2263,4.2487,4.3014,4.3014,4.3014,4.3014,4.3014,4.2713,4.2263,4.2263,4.1882,4.1403,4.1403,4.1403,4.1403,4.1378,4.1378,4.1378,4.1378,4.1352,4.1277,4.075,3.9861,3.9021,3.9611,3.8968,3.8262,3.9437,3.9722,3.9697,3.9697,3.9697,3.9413,3.8267,3.8003,3.8003,3.8003,3.8003,3.8003,3.8003,3.8003,3.8003,3.8003,3.8003,3.7634,3.6538,3.6108,3.589,3.5809,3.559,3.5398,3.5316,3.4236,3.3424,3.3134,3.2293,3.1547,3.0957,3.1141,3.117,3.0928,3.0898,3.0898,3.0898,3.0898,3.0898,3.0898,3.0898,3.0898,3.085,2.9589,2.9009,2.1497,2.3198,2.509,2.7799,3.0407,3.2692,3.422,3.608,3.7688,3.8442,3.8919,3.9296,3.9622,4.0023,4.0248,4.0248,4.0248,4.0248,4.0248,4.0248,4.0399,4.075,4.0775,4.0926,4.1277,4.1302,4.1302,4.1302,4.1302,4.1302,4.1302,4.1302,4.1302,4.1302,4.1302,4.1403,4.163,4.163,4.163,4.163,4.2009,4.2286,4.2487,4.2487,4.2487,4.2462,4.2082,4.2007,4.2187,4.1781,4.1503,4.1302,4.1302,4.1302,4.1277,4.0926,4.1001,4.1252,4.0901,4.0775,4.0644,3.9703,3.8878,3.827,3.8498,3.7713,3.7046,3.8214,3.853,3.853,3.853,3.853,3.824,3.7099,3.6831,3.6615,3.5881,3.629,3.6831,3.6831,3.6831,3.6831,3.6831,3.6831,3.6673,3.6267,3.589,3.5426,3.4703,3.432,3.3789,3.2843,3.235,3.1977,3.171,3.1383,3.1112,3.0928,3.0995,3.0995,3.0898,3.0898,3.0898,3.0898,3.0898,3.0898,3.0898,3.0898,3.045,2.9589,2.9128,2.8474,1.9827,2.1353,2.3355,2.5845,2.7695,2.9654,3.2462,3.422,3.5655,3.716,3.7939,3.8567,3.9296,3.9446,3.9471,3.9672,3.9697,3.9697,3.9697,3.9697,3.9823,4.0199,4.0249,4.0349,4.0725,4.075,4.075,4.075,4.075,4.075,4.075,4.075,4.075,4.075,4.0951,4.0951,4.075,4.0951,4.1026,4.1051,4.143,4.1733,4.1909,4.1909,4.1909,4.1884,4.1277,4.1279,4.1607,4.1177,4.0926,4.075,4.075,4.075,4.0725,4.0349,4.0449,4.07,4.0375,3.9962,3.9489,3.8723,3.7705,3.6831,3.7207,3.6534,3.5881,3.7019,3.734,3.734,3.734,3.7046,3.6561,3.5827,3.5333,3.4808,3.4071,3.483,3.5635,3.5635,3.553,3.5448,3.5448,3.5366,3.5151,3.4786,3.4453,3.3951,3.3204,3.2815,3.2264,3.1267,3.117,3.1083,3.0928,3.0898,3.0898,3.0898,3.0898,3.0898,3.0898,3.0898,3.0898,3.0898,3.0898,3.0674,3.0245,3.0245,2.9785,2.889,2.8026,2.6927,0.0,0.0,0.0,2.3946,2.4315,2.5536,3.1507,3.2035,3.2236,3.5552,3.6683,3.7411,3.8592,3.8843,3.9044,3.9572,3.9697,3.9697,3.9697,3.9697,3.9697,3.9697,3.9697,3.9697,3.9697,3.9697,3.9697,3.9697,3.9697,3.9697,3.9697,3.9697,3.9697,3.9697,4.0199,4.0249,3.9697,4.0224,4.0474,4.0474,4.0474,4.0775,4.1277,4.1277,4.1277,4.1252,4.07,4.0474,4.0474,4.0474,4.0174,3.9697,3.9697,3.9697,3.9697,3.9697,3.9671,3.9645,3.9645,3.8842,3.7844,3.7817,3.629,3.4719,3.5804,3.5361,3.4692,3.5831,3.6158,3.6158,3.6158,3.5333,3.4469,3.4441,3.3537,3.2698,3.2698,3.3614,3.4463,3.4463,3.419,3.3966,3.3966,3.367,3.3077,3.1969,3.1498,3.1296,3.1296,3.1054,3.0898,3.0898,3.0898,3.0898,3.0898,3.0898,3.0898,3.0898,3.0898,3.0898,3.0898,3.0869,3.084,3.084,3.0791,3.0157,2.8831,2.889,2.8861,2.8742,2.6216,2.4332,1.7748,0.0,0.0,0.0,0.0,0.0,2.6523,2.7795,2.9271,3.2185,3.3194,3.4299,3.6658,3.7411,3.7989,3.8969,3.9446,3.9697,3.9697,3.9697,3.9697,3.9697,3.9697,3.9697,3.9697,3.9697,3.9697,3.9697,3.9697,3.9697,3.9697,3.9697,3.9697,3.9697,3.9848,3.9848,3.9697,3.9848,3.9923,3.9923,4.0299,4.0575,4.0725,4.0725,4.0725,4.0675,4.0149,3.9923,3.9923,3.9923,3.9823,3.9697,3.9697,3.9697,3.9697,3.9697,3.9154,3.8398,3.8398,3.7634,3.6511,3.5717,3.5024,3.4552,3.4886,3.4155,3.3445,3.4636,3.4969,3.4969,3.4969,3.4747,3.4295,3.3416,3.2955,3.2698,3.2698,3.2955,3.319,3.319,3.2962,3.2771,3.2771,3.2485,3.217,3.1845,3.1498,3.1296,3.1296,3.1054,3.0898,3.0898,3.0898,3.0898,3.0898,3.0898,3.0898,3.0898,3.0898,3.0898,3.0898,2.9962,2.9442,2.9442,2.8552,2.7894,2.7516,2.8444,2.7949,2.6125,2.4425,2.3448,0.0,0.0,0.0,2.1744,0.0,0.0,2.5544,2.6214,2.7168,3.0407,3.1486,3.2566,3.4924,3.5627,3.6281,3.7637,3.814,3.8642,3.9572,3.9697,3.9697,3.9697,3.9697,3.9697,3.9697,3.9697,3.9697,3.9697,3.9697,3.9697,3.9697,3.9697,3.9697,3.9697,3.9697,3.9697,3.9697,3.9697,3.9697,3.9697,4.0023,4.0174,4.0174,4.0174,4.0174,4.0149,3.9848,3.9697,3.9697,3.9697,3.9697,3.9697,3.9697,3.9388,3.8947,3.8947,3.8188,3.7207,3.7207,3.6453,3.5388,3.4719,3.4155,3.3734,3.3734,3.3247,3.2841,3.3558,3.3734,3.3734,3.3734,3.3734,3.3586,3.2869,3.2698,3.2698,3.2698,3.2612,3.2584,3.2669,3.2383,3.2076,3.2076,3.1701,3.1431,3.1431,3.1257,3.1141,3.1141,3.0995,3.0898,3.0898,3.0898,3.0898,3.0898,3.0898,3.0898,3.0898,3.0898,3.0645,3.0098,2.9324,2.8653,2.8116,2.7366,2.6749,2.6233,2.6944,2.6261,2.424,2.3448,2.3106,2.1395,2.1496,0.0,2.4239,2.3,0.0,2.6515,2.6021,2.567,2.9057,3.0156,3.1035,3.2842,3.3269,3.3897,3.5552,3.5981,3.6935,3.9195,3.9496,3.9496,3.9496,3.9572,3.9597,3.9597,3.9672,3.9697,3.9697,3.9697,3.9697,3.9697,3.9697,3.9697,3.9697,3.9697,3.9697,3.9697,3.9697,3.9697,3.9697,3.9697,3.9697,3.9697,3.9697,3.9697,3.9697,3.9697,3.9697,3.9697,3.9568,3.9594,3.9697,3.9568,3.8842,3.7897,3.7764,3.6992,3.5995,3.5995,3.5251,3.4323,3.4323,3.3586,3.2698,3.2698,3.2698,3.2698,3.2698,3.2698,3.2698,3.2698,3.2698,3.2698,3.2698,3.2698,3.2698,3.2669,3.2469,3.2363,3.2555,3.2133,3.173,3.173,3.1286,3.0898,3.0898,3.0898,3.0898,3.0898,3.0898,3.0898,3.0898,3.0898,3.0898,3.0898,3.0898,3.0898,3.0898,3.0898,3.0304,2.895,2.8772,2.8086,2.681,2.6658,2.6003,2.4887,2.4887,2.427,2.3106,2.3106,2.3106,2.3794,2.4054,2.4698,2.4255,2.4773,0.0,2.3728,2.3828,2.4214,2.4499,2.465,2.5519,2.8115,2.9302,3.0412,3.2089,3.3495,3.5303,3.7965,3.8341,3.8341,3.8341,3.8743,3.907,3.907,3.9446,3.9697,3.9697,3.9697,3.9697,3.9697,3.9697,3.9697,3.9697,3.9697,3.9697,3.9697,3.9697,3.9697,3.9697,3.9697,3.9697,3.9697,3.9697,3.9697,3.9697,3.9697,3.9697,3.962,3.8659,3.8816,3.962,3.8633,3.8108,3.7791,3.6885,3.5827,3.483,3.483,3.4043,3.3069,3.3069,3.2898,3.2698,3.2698,3.2698,3.2698,3.2698,3.2698,3.2698,3.2698,3.2698,3.2698,3.2698,3.2698,3.2641,3.242,3.2334,3.2248,3.2018,3.1643,3.1412,3.1412,3.1112,3.0898,3.0898,3.0898,3.0898,3.0898,3.0898,3.0898,3.0898,3.0898,3.0898,3.0898,3.0898,3.0898,3.0898,3.0898,3.0304,2.895,2.7907,2.6762,2.5501,2.4425,2.3759,2.3479,2.3479,2.3355,2.3106,2.3106,2.3106,2.618,2.6055,2.6381,2.6113,2.6055,0.0,0.0,2.4381,2.4305,2.5369,2.47,2.4641,2.6884,2.7745,2.8549,2.991,3.1562,3.3119,3.45,3.6157,3.7211,3.7186,3.7713,3.8039,3.8039,3.8542,3.8969,3.9296,3.9296,3.9421,3.9672,3.9697,3.9697,3.9697,3.9697,3.9697,3.9697,3.9697,3.9697,3.9697,3.9697,3.9697,3.9697,3.9697,3.9697,3.9697,3.9697,3.9697,3.9671,3.905,3.879,3.8685,3.7501,3.7046,3.6911,3.5772,3.4608,3.3614,3.3614,3.3218,3.2698,3.2698,3.2698,3.2698,3.2698,3.2698,3.2698,3.2698,3.2698,3.2698,3.2698,3.2698,3.2698,3.2698,3.2698,3.2641,3.2363,3.2162,3.196,3.1614,3.1315,3.1141,3.1267,3.1083,3.0898,3.0898,3.0898,3.0898,3.0898,3.0898,3.0898,3.0898,3.0898,3.0898,3.0898,3.0898,3.0898,3.0898,3.0274,2.9324,2.8009,2.6732,2.5439,2.4116,2.3448,2.3106,2.3106,2.3106,2.3106,2.3106,2.3106,2.3106,2.8348,2.8015,2.8216,2.8122,2.757,2.6992,0.0,0.0,0.0,2.6774,2.572,2.4917,2.6389,2.6582,2.6816,2.7802,2.9453,3.0532,3.0306,3.2993,3.5077,3.5401,3.6105,3.6607,3.6709,3.691,3.7462,3.8492,3.819,3.8416,3.9471,3.9546,3.9597,3.9697,3.9697,3.9697,3.9697,3.9697,3.9697,3.9697,3.9697,3.9697,3.9697,3.9697,3.9697,3.9697,3.9697,3.9568,3.9336,3.9128,3.8451,3.7474,3.6538,3.6077,3.5745,3.458,3.3558,3.2698,3.2698,3.2698,3.2698,3.2698,3.2698,3.2698,3.2698,3.2698,3.2698,3.2698,3.2698,3.2698,3.2698,3.2669,3.2612,3.2612,3.2584,3.244,3.2162,3.1903,3.1614,3.1267,3.1054,3.0966,3.1199,3.1054,3.0898,3.0898,3.0898,3.0898,3.0898,3.0898,3.0898,3.0898,3.0898,3.0898,3.0898,3.0645,3.0509,3.0509,2.9264,2.7949,2.6685,2.5393,2.4209,2.3106,2.3106,2.3106,2.3106,2.3106,2.3106,2.3106,2.3106,2.3106,2.9955,3.0557,3.1065,2.8699,3.0181,3.1004,2.6171,0.0,2.6314,2.4114,0.0,2.3521,2.423,0.0,0.0,2.4456,2.6364,2.7412,2.6389,2.8298,3.0312,3.1788,3.3319,3.4474,3.4929,3.4173,3.4698,3.721,3.5579,3.578,3.8818,3.8994,3.922,3.9672,3.9697,3.9697,3.9697,3.9697,3.9697,3.9697,3.9697,3.9697,3.9697,3.9697,3.9697,3.9697,3.9697,3.9102,3.8029,3.7019,3.6511,3.6375,3.624,3.558,3.4552,3.336,3.2812,3.2698,3.2698,3.2698,3.2698,3.2698,3.2698,3.2698,3.2698,3.2698,3.2698,3.2698,3.2698,3.2698,3.2698,3.2526,3.2334,3.2334,3.2104,3.1816,3.1469,3.1383,3.1286,3.0995,3.0908,3.0928,3.0937,3.0908,3.0898,3.0898,3.0898,3.0898,3.0898,3.0898,3.0898,3.0898,3.0898,3.0898,3.0898,2.9815,2.9128,2.9128,2.7907,2.6641,2.5378,2.4023,2.3261,2.3106,2.3106,2.3106,2.3106,2.3106,2.3106,2.3106,2.3106,2.3106,3.0231,3.0984,3.1692,2.9603,3.0382,3.0783,2.7451,2.6515,2.618,2.5636,0.0,0.0,0.0,0.0,0.0,0.0,2.5034,2.5335,2.3904,2.5318,2.725,2.9252,3.0362,3.1591,3.3097,3.229,3.2667,3.5102,3.3822,3.4248,3.7286,3.8039,3.8642,3.922,3.9521,3.9697,3.9697,3.9697,3.9697,3.9697,3.9697,3.9697,3.9697,3.9697,3.9697,3.9671,3.8947,3.8372,3.7817,3.6673,3.5827,3.5195,3.5195,3.4914,3.4351,3.3133,3.2698,3.2698,3.2698,3.2698,3.2698,3.2698,3.2698,3.2698,3.2698,3.2698,3.2698,3.2698,3.2698,3.2698,3.2698,3.2498,3.2305,3.2305,3.2047,3.1701,3.1354,3.1296,3.1208,3.0937,3.0898,3.0898,3.0898,3.0898,3.0898,3.0898,3.0898,3.0898,3.0898,3.0898,3.0898,3.0898,3.0898,3.0587,2.9815,2.9216,2.8593,2.7847,2.6611,2.5317,2.3992,2.3386,2.3106,2.3106,2.3106,2.3106,2.3106,2.3106,2.3106,2.3106,2.3106,2.3106,3.0638,3.1434,3.221,2.991,2.998,3.0086,2.8097,2.7067,2.6666,2.7185,2.6407,0.0,0.0,0.0,2.4531,2.4079,0.0,2.4164,2.2347,2.3261,2.4766,2.6523,2.7752,2.9082,3.0708,2.9584,2.9955,3.2792,3.1537,3.221,3.5753,3.681,3.7739,3.8617,3.917,3.9546,3.9697,3.9697,3.9697,3.9697,3.9697,3.9697,3.9697,3.9697,3.9697,3.9645,3.8398,3.7737,3.734,3.6208,3.5057,3.4015,3.4015,3.4015,3.3903,3.304,3.2698,3.2698,3.2698,3.2698,3.2698,3.2698,3.2698,3.2698,3.2698,3.2698,3.2698,3.2698,3.2698,3.2698,3.2698,3.244,3.2162,3.2162,3.1845,3.1469,3.1238,3.1179,3.1141,3.0937,3.0898,3.0898,3.0898,3.0898,3.0898,3.0898,3.0898,3.0898,3.0898,3.0898,3.0898,3.0898,3.0587,2.9962,2.8979,2.8265,2.7306,2.6003,2.5071,2.4116,2.3137,2.3106,2.3106,2.3106,2.3106,2.3106,2.3106,2.3106,2.3106,2.3106,2.3106,2.3106,3.1624,3.2556,3.3242,2.9176,2.9402,2.9905,2.7178,2.772,2.8505,2.7512,2.8542,2.9277,2.8222,2.7135,0.0,0.0,2.444,0.0,0.0,2.202,2.2608,2.3195,2.5686,2.7386,2.7462,2.5502,2.6013,3.0362,2.8216,2.9045,3.4452,3.5282,3.631,3.799,3.8617,3.917,3.9697,3.9697,3.9697,3.9697,3.9697,3.9697,3.9697,3.9697,3.9697,3.9645,3.8398,3.7287,3.6158,3.5002,3.3847,3.2755,3.2755,3.2755,3.2755,3.2698,3.2698,3.2698,3.2698,3.2698,3.2698,3.2698,3.2698,3.2698,3.2698,3.2698,3.2698,3.2698,3.2698,3.2698,3.2698,3.2268,3.1816,3.1816,3.1373,3.0928,3.0928,3.0928,3.0928,3.0898,3.0898,3.0898,3.0898,3.0898,3.0898,3.0898,3.0898,3.0898,3.0898,3.0898,3.0898,3.0898,2.9756,2.895,2.889,2.6641,2.4641,2.3324,2.3199,2.3137,2.3106,2.3106,2.3106,2.3106,2.3106,2.3106,2.3106,2.3106,2.3106,2.3106,2.3106,2.3106,3.3162,3.4288,3.4876,3.141,3.1249,3.1161,2.8236,2.8254,2.8605,2.7519,2.8643,2.9453,2.8323,2.7211,0.0,0.0,0.0,0.0,0.0,2.0539,2.0977,2.192,2.3853,2.5125,2.5125,2.4431,2.5234,2.8197,2.7228,2.8417,3.2796,3.4276,3.5732,3.7412,3.8391,3.917,3.9697,3.9697,3.9697,3.9697,3.9697,3.9697,3.9671,3.8868,3.8528,3.8398,3.648,3.5416,3.4974,3.379,3.3048,3.2698,3.2698,3.2698,3.2698,3.2698,3.2698,3.2698,3.2698,3.2698,3.2698,3.2698,3.2698,3.2698,3.2698,3.2698,3.2698,3.2698,3.2698,3.2698,3.2698,3.2268,3.1787,3.1787,3.1344,3.0898,3.0898,3.0898,3.0898,3.0898,3.0898,3.0898,3.0898,3.0898,3.0898,3.0898,3.0898,3.0898,3.0898,3.0898,3.0898,3.0898,2.9697,2.8564,2.7697,2.527,2.3573,2.3137,2.3106,2.3106,2.3106,2.3106,2.3106,2.3106,2.3106,2.3106,2.3106,2.3106,2.3106,2.3106,2.3106,2.3106,3.4477,3.5257,3.5599,3.2934,3.2383,3.1854,2.9391,2.9443,2.9668,2.8569,2.942,3.0217,2.9696,2.8212,2.6673,0.0,0.0,0.0,0.0,1.9987,2.0326,2.0829,2.2211,2.3366,2.3929,2.31,2.3768,2.6783,2.6147,2.7286,3.1135,3.3119,3.4901,3.6558,3.7914,3.8944,3.9697,3.9697,3.9697,3.9697,3.9697,3.9697,3.9671,3.8451,3.7897,3.7791,3.5471,3.4497,3.4407,3.319,3.2698,3.2698,3.2698,3.2698,3.2698,3.2698,3.2698,3.2698,3.2698,3.2698,3.2698,3.2698,3.2698,3.2698,3.2698,3.2698,3.2698,3.2698,3.2641,3.2555,3.2555,3.2076,3.1614,3.1614,3.1257,3.0898,3.0898,3.0898,3.0898,3.0898,3.0898,3.0898,3.0898,3.0898,3.0898,3.0898,3.0898,3.0898,3.0898,3.0898,3.0898,3.0898,2.9294,2.7516,2.576,2.4054,2.3106,2.3106,2.3106,2.3106,2.3106,2.3106,2.3106,2.3106,2.3106,2.3106,2.3106,2.3106,2.3106,2.3106,2.3106,2.3106]},{"header":{"parameterUnit":"m.s-1","parameterCategory":1,"la1":30.6,"la2":29.2853,"lo1":-89.7004,"lo2":-87.6739,"dy":0.0162,"dx":0.0183,"nx":112,"ny":82,"refTime":"2024-09-03T12:00:00:Z","depth":0,"parameterNumber":3,"parameterNumberName":"V-component_of_WINDS"},"data":[0.0,0.0,0.0,0.0,0.0,0.0,0.0,0.0,0.0,0.0,0.0,0.0,0.0,0.0,0.0,0.0,0.0,0.0,0.0,0.0,0.0,0.0,0.0,0.0,0.0,0.0,0.0,0.0,0.0,0.0,0.0,0.0,0.0,0.0,0.0,0.0,0.0,0.0,0.0,0.0,0.0,0.0,0.0,0.0,0.0,0.0,0.0,0.0,0.0,0.0,0.0,0.0,0.0,0.0,0.0,0.0,0.0,0.0,0.0,0.0,0.0,0.0,0.0,0.0,0.0,0.0,0.0,0.0,0.0,0.0,0.0,0.0,0.0,0.0,0.0,0.0,0.0,0.0,0.0,0.0,0.0,0.0,0.0,0.0,0.0,0.0,0.0,0.0,0.0,0.0,1.7189,1.8988,2.0813,2.2345,2.3426,2.2487,2.0811,1.8301,0.0,0.0,0.0,0.0,0.0,0.0,0.0,0.0,0.0,0.0,0.0,0.0,0.0,0.0,0.0,0.0,0.0,0.0,0.0,0.0,0.0,0.0,0.0,0.0,0.0,0.0,0.0,0.0,0.0,0.0,0.0,0.0,0.0,0.0,0.0,0.0,0.0,0.0,0.0,0.0,0.0,0.0,0.0,0.0,0.0,0.0,0.0,0.0,0.0,0.0,0.0,0.0,0.0,0.0,0.0,0.0,0.0,0.0,0.0,0.0,0.0,0.0,0.0,0.0,0.0,0.0,0.0,0.0,0.0,0.0,0.0,0.0,0.0,0.0,0.0,0.0,0.0,0.0,0.0,0.0,0.0,0.0,0.0,0.0,0.0,0.0,0.0,0.0,0.0,0.0,0.0,0.0,0.0,0.0,0.0,0.0,0.0,0.0,0.0,0.0,0.0,0.0,0.0,0.0,1.7237,2.1758,2.2029,2.2345,2.3426,2.2409,2.0734,1.8433,0.0,0.0,0.0,0.0,0.0,0.0,0.0,0.0,0.0,0.0,0.0,0.0,0.0,0.0,0.0,0.0,0.0,0.0,0.0,0.0,0.0,0.0,0.0,0.0,0.0,0.0,0.0,0.0,0.0,0.0,0.0,0.0,0.0,0.0,0.0,0.0,0.0,0.0,0.0,0.0,0.0,0.0,0.0,0.0,0.0,0.0,0.0,0.0,0.0,0.0,0.0,0.0,0.0,0.0,0.0,0.0,0.0,0.0,0.0,0.0,0.0,0.0,0.0,0.0,0.0,0.0,0.0,0.0,0.0,0.0,0.0,0.0,0.0,0.0,0.0,0.0,0.0,0.0,0.0,0.0,0.0,0.0,0.0,0.0,0.0,0.0,0.0,0.0,0.0,0.0,0.0,0.0,0.0,0.0,0.0,0.0,0.0,0.0,0.0,0.0,0.0,0.0,0.0,1.671,1.8789,2.2491,2.3057,2.3253,2.3493,2.2781,2.1149,1.8358,1.7419,0.0,0.0,0.0,0.0,0.0,0.0,0.0,0.0,0.0,0.0,0.0,0.0,0.0,0.0,0.0,0.0,0.0,0.0,0.0,0.0,0.0,0.0,0.0,0.0,0.0,0.0,0.0,0.0,0.0,0.0,0.0,0.0,0.0,0.0,0.0,0.0,0.0,0.0,0.0,0.0,0.0,0.0,0.0,0.0,0.0,0.0,0.0,0.0,0.0,0.0,0.0,0.0,0.0,0.0,0.0,0.0,0.0,0.0,0.0,0.0,0.0,0.0,0.0,0.0,0.0,0.0,0.0,0.0,0.0,0.0,0.0,0.0,0.0,0.0,0.0,0.0,0.0,0.0,0.0,0.0,0.0,0.0,0.0,0.0,0.0,0.0,0.0,0.0,0.0,0.0,0.0,0.0,0.0,0.0,0.0,0.0,0.0,0.0,0.0,0.0,0.0,0.0,1.9367,2.0804,2.2777,2.368,2.3938,2.3485,2.2755,2.1087,1.8138,1.6633,0.0,0.0,0.0,0.0,0.0,0.0,0.0,0.0,0.0,0.0,0.0,0.0,0.0,0.0,0.0,0.0,0.0,0.0,0.0,0.0,0.0,0.0,0.0,0.0,0.0,0.0,0.0,0.0,0.0,0.0,0.0,0.0,0.0,0.0,0.0,0.0,0.0,0.0,0.0,0.0,0.0,0.0,0.0,0.0,0.0,0.0,0.0,0.0,0.0,0.0,0.0,0.0,0.0,0.0,0.0,0.0,0.0,0.0,0.0,0.0,0.0,0.0,0.0,0.0,0.0,0.0,0.0,0.0,0.0,0.0,0.0,0.0,0.0,0.0,0.0,0.0,0.0,0.0,0.0,0.0,0.0,0.0,0.0,0.0,0.0,0.0,0.0,0.0,0.0,0.0,0.0,0.0,0.0,0.0,0.0,0.0,0.0,0.0,0.0,0.0,0.0,0.0,1.9944,2.2945,2.3233,2.3656,2.3773,2.334,2.1689,1.9767,1.7671,1.5313,0.0,0.0,0.0,0.0,0.0,0.0,0.0,0.0,0.0,0.0,0.0,0.0,0.0,0.0,0.0,0.0,0.0,0.0,0.0,0.0,0.0,0.0,0.0,0.0,0.0,0.0,0.0,0.0,0.0,0.0,0.0,0.0,0.0,0.0,0.0,0.0,0.0,0.0,0.0,0.0,0.0,0.0,0.0,0.0,0.0,0.0,0.0,0.0,0.0,0.0,0.0,0.0,0.0,0.0,0.0,0.0,0.0,0.0,0.0,0.0,0.0,0.0,0.0,0.0,0.0,0.0,0.0,0.0,0.0,0.0,0.0,0.0,0.0,0.0,0.0,0.0,0.0,0.0,0.0,0.0,0.0,0.0,0.0,0.0,0.0,0.0,0.0,0.0,0.0,0.0,0.0,0.0,0.0,0.0,0.0,0.0,0.0,0.0,0.0,0.0,0.0,0.0,1.9462,2.1994,2.3396,2.3904,2.3979,2.3589,2.2501,2.0589,1.7582,0.0,0.0,0.0,0.0,0.0,0.0,0.0,0.0,0.0,0.0,0.0,0.0,0.0,0.0,0.0,0.0,0.0,0.0,0.0,0.0,0.0,0.0,0.0,0.0,0.0,0.0,0.0,0.0,0.0,0.0,0.0,0.0,0.0,0.0,0.0,0.0,0.0,0.0,0.0,0.0,0.0,0.0,0.0,0.0,0.0,0.0,0.0,0.0,0.0,0.0,0.0,0.0,0.0,0.0,0.0,0.0,0.0,0.0,0.0,0.0,0.0,0.0,0.0,0.0,0.0,0.0,0.0,0.0,0.0,0.0,0.0,0.0,0.0,0.0,0.0,0.0,0.0,0.0,0.0,0.0,0.0,0.0,0.0,0.0,0.0,0.0,0.0,0.0,0.0,0.0,0.0,0.0,0.0,0.0,0.0,0.0,0.0,0.0,0.0,0.0,0.0,0.0,1.6873,1.9722,2.2117,2.3632,2.3941,2.3956,2.3808,2.2529,2.0483,1.7633,0.0,0.0,0.0,0.0,0.0,0.0,0.0,0.0,0.0,0.0,0.0,0.0,0.0,0.0,0.0,0.0,0.0,0.0,0.0,0.0,0.0,0.0,0.0,0.0,0.0,0.0,0.0,0.0,0.0,0.0,0.0,0.0,0.0,0.0,0.0,0.0,0.0,0.0,0.0,0.0,0.0,0.0,0.0,0.0,0.0,0.0,0.0,0.0,0.0,0.0,0.0,0.0,0.0,0.0,0.0,0.0,0.0,0.0,0.0,0.0,0.0,0.0,0.0,0.0,0.0,0.0,0.0,0.0,0.0,0.0,0.0,0.0,0.0,0.0,0.0,0.0,0.0,0.0,0.0,0.0,0.0,0.0,0.0,0.0,0.0,0.0,0.0,0.0,0.0,0.0,0.0,0.0,0.0,0.0,0.0,0.0,0.0,0.0,0.0,0.0,0.0,0.0,1.678,2.09,2.3855,2.3986,2.3656,2.356,2.3982,2.1331,1.9101,0.0,0.0,0.0,0.0,0.0,0.0,0.0,0.0,0.0,0.0,0.0,0.0,0.0,0.0,0.0,0.0,0.0,0.0,0.0,0.0,0.0,0.0,0.0,0.0,0.0,0.0,0.0,0.0,0.0,0.0,0.0,0.0,0.0,0.0,0.0,0.0,0.0,0.0,0.0,0.0,0.0,0.0,0.0,0.0,0.0,0.0,0.0,0.0,0.0,0.0,0.0,0.0,0.0,0.0,0.0,0.0,0.0,0.0,0.0,0.0,0.0,0.0,0.0,0.0,0.0,0.0,0.0,0.0,0.0,0.0,0.0,0.0,0.0,0.0,0.0,0.0,0.0,0.0,0.0,0.0,0.0,0.0,0.0,0.0,0.0,0.0,0.0,0.0,0.0,0.0,0.0,0.0,0.0,0.0,0.0,0.0,0.0,0.0,0.0,0.0,0.0,0.0,0.0,1.7296,2.1374,2.4231,2.4279,2.4182,2.4163,2.4256,2.2515,2.035,1.782,0.0,0.0,0.0,0.0,0.0,0.0,0.0,0.0,0.0,0.0,0.0,0.0,0.0,0.0,0.0,0.0,0.0,0.0,0.0,0.0,0.0,0.0,0.0,0.0,0.0,0.0,0.0,0.0,0.0,0.0,0.0,0.0,0.0,0.0,0.0,0.0,0.0,0.0,0.0,0.0,0.0,0.0,0.0,0.0,0.0,0.0,0.0,0.0,0.0,0.0,0.0,0.0,0.0,0.0,0.0,0.0,0.0,0.0,0.0,0.0,0.0,0.0,0.0,0.0,0.0,0.0,0.0,0.0,0.0,0.0,0.0,0.0,0.0,0.0,0.0,0.0,0.0,0.0,0.0,0.0,0.0,0.0,0.0,0.0,0.0,0.0,0.0,0.0,0.0,0.0,0.0,0.0,0.0,0.0,0.0,0.0,0.0,0.0,0.0,0.0,0.0,0.0,1.75,2.1438,2.416,2.416,2.416,2.416,2.416,2.3033,2.1145,1.8442,0.0,0.0,0.0,0.0,0.0,0.0,0.0,0.0,0.0,0.0,0.0,0.0,0.0,0.0,0.0,0.0,0.0,0.0,0.0,0.0,0.0,0.0,0.0,0.0,0.0,0.0,0.0,0.0,0.0,0.0,0.0,0.0,0.0,0.0,0.0,0.0,0.0,0.0,0.0,0.0,0.0,0.0,0.0,0.0,0.0,0.0,0.0,0.0,0.0,0.0,0.0,0.0,0.0,0.0,0.0,0.0,0.0,0.0,0.0,0.0,0.0,0.0,0.0,0.0,0.0,0.0,0.0,0.0,0.0,0.0,0.0,0.0,0.0,0.0,0.0,0.0,0.0,0.0,0.0,0.0,0.0,0.0,0.0,0.0,0.0,0.0,0.0,0.0,0.0,0.0,0.0,0.0,0.0,0.0,0.0,0.0,0.0,0.0,0.0,0.0,0.0,0.0,1.7615,2.1302,2.387,2.387,2.387,2.3828,2.3789,2.3008,2.1601,1.9513,0.0,0.0,0.0,0.0,0.0,0.0,0.0,0.0,0.0,0.0,0.0,0.0,0.0,0.0,0.0,0.0,0.0,0.0,0.0,0.0,0.0,0.0,0.0,0.0,0.0,0.0,0.0,0.0,0.0,0.0,0.0,0.0,0.0,0.0,0.0,0.0,0.0,0.0,0.0,0.0,0.0,0.0,0.0,0.0,0.0,0.0,0.0,0.0,0.0,0.0,0.0,0.0,0.0,0.0,0.0,0.0,0.0,0.0,0.0,0.0,1.7441,1.6156,0.0,0.0,0.0,0.0,0.0,0.0,0.0,0.0,0.0,0.0,0.0,0.0,0.0,0.0,0.0,0.0,0.0,0.0,0.0,0.0,0.0,0.0,0.0,0.0,0.0,0.0,0.0,0.0,0.0,0.0,0.0,0.0,0.0,0.0,0.0,0.0,0.0,0.0,0.0,0.0,1.8475,2.1942,2.4254,2.4254,2.4254,2.4141,2.3828,2.3008,2.1832,2.0256,1.8543,0.0,0.0,0.0,0.0,0.0,0.0,0.0,0.0,0.0,0.0,0.0,0.0,0.0,0.0,0.0,0.0,0.0,0.0,0.0,0.0,0.0,0.0,0.0,0.0,0.0,0.0,0.0,0.0,0.0,0.0,0.0,0.0,0.0,0.0,0.0,0.0,0.0,0.0,0.0,0.0,0.0,0.0,0.0,0.0,0.0,0.0,0.0,0.0,0.0,0.0,0.0,0.0,0.0,0.0,0.0,0.0,0.0,0.0,0.0,2.0308,1.9126,0.0,0.0,0.0,0.0,0.0,0.0,0.0,0.0,0.0,0.0,0.0,0.0,0.0,0.0,0.0,0.0,0.0,0.0,0.0,0.0,0.0,0.0,0.0,0.0,0.0,0.0,0.0,0.0,0.0,0.0,0.0,0.0,0.0,0.0,0.0,0.0,0.0,0.0,0.0,0.0,1.901,2.2231,2.4336,2.4141,2.4274,2.4137,2.3535,2.3045,2.2321,2.1188,1.9943,0.0,0.0,0.0,0.0,0.0,0.0,0.0,0.0,0.0,0.0,0.0,0.0,0.0,0.0,0.0,0.0,0.0,0.0,0.0,0.0,0.0,0.0,0.0,0.0,0.0,0.0,0.0,0.0,0.0,0.0,0.0,0.0,0.0,0.0,0.0,0.0,0.0,0.0,0.0,0.0,0.0,0.0,0.0,0.0,0.0,0.0,0.0,0.0,0.0,0.0,0.0,0.0,0.0,2.425,2.4716,2.5047,2.5403,2.5717,2.5829,2.3627,2.288,2.3078,2.055,0.0,0.0,0.0,0.0,0.0,0.0,0.0,0.0,0.0,0.0,0.0,0.0,0.0,0.0,0.0,0.0,0.0,0.0,0.0,0.0,0.0,0.0,2.1154,2.1499,2.2182,2.2076,1.9466,0.0,0.0,0.0,0.0,0.0,0.0,0.0,0.0,0.0,0.0,0.0,1.9774,2.2582,2.4293,2.4043,2.4258,2.4079,2.3298,2.3162,2.283,2.2148,2.1309,2.0137,0.0,0.0,0.0,0.0,0.0,0.0,0.0,0.0,0.0,0.0,0.0,0.0,0.0,0.0,0.0,0.0,0.0,0.0,0.0,0.0,0.0,0.0,0.0,0.0,0.0,0.0,0.0,0.0,0.0,0.0,0.0,0.0,1.6213,1.7017,0.0,0.0,0.0,0.0,0.0,0.0,0.0,0.0,0.0,0.0,0.0,0.0,0.0,2.2991,2.4134,2.5585,2.6419,2.6655,2.804,2.8586,2.8381,2.9071,2.9218,2.8911,2.887,0.0,2.4719,2.328,0.0,0.0,0.0,0.0,0.0,0.0,0.0,0.0,0.0,0.0,0.0,0.0,0.0,0.0,0.0,0.0,0.0,0.0,0.0,0.0,0.0,0.0,2.4983,2.5042,2.4875,2.4629,2.4196,2.128,1.8455,1.7456,1.66,1.5754,0.0,0.0,0.0,0.0,0.0,0.0,2.1667,2.3366,2.4551,2.4887,2.4609,2.4196,2.375,2.3337,2.3042,2.2967,2.2187,2.1405,2.0643,1.9076,0.0,0.0,0.0,0.0,0.0,0.0,0.0,0.0,0.0,0.0,0.0,0.0,0.0,0.0,0.0,0.0,0.0,0.0,0.0,0.0,0.0,0.0,0.0,0.0,0.0,0.0,0.0,0.0,0.0,1.5997,1.7935,1.8449,1.876,1.8522,0.0,0.0,0.0,0.0,0.0,0.0,0.0,0.0,0.0,2.4541,2.5073,2.5992,2.7428,2.8321,2.887,2.9179,2.9848,3.0109,2.9976,3.0478,3.0721,3.0732,3.0882,2.9978,2.8199,2.6154,2.4619,2.3393,0.0,0.0,0.0,0.0,2.2506,2.2961,2.4399,2.4488,2.3958,2.3645,0.0,0.0,0.0,0.0,0.0,0.0,0.0,2.2448,2.3576,2.4683,2.5669,2.6298,2.6309,2.6172,2.6172,2.4337,2.2192,2.0411,1.9676,1.8731,1.6735,1.6513,0.0,0.0,0.0,2.0858,2.2422,2.3894,2.4887,2.5082,2.4668,2.4238,2.3828,2.3357,2.3101,2.3101,2.2771,2.236,2.1869,2.0605,1.9211,0.0,0.0,0.0,0.0,0.0,0.0,0.0,0.0,0.0,0.0,0.0,0.0,0.0,0.0,0.0,0.0,0.0,0.0,0.0,0.0,0.0,0.0,0.0,0.0,0.0,0.0,0.0,0.0,1.777,1.9516,1.9879,2.0924,2.1074,0.0,0.0,0.0,0.0,0.0,0.0,2.4379,2.5333,2.6327,2.7443,2.7977,2.8777,2.9927,3.0325,3.0682,3.0984,3.1045,3.112,3.1152,3.1475,3.1715,3.1854,3.1946,3.1703,3.1045,2.8633,2.7156,2.6295,2.5517,2.5054,2.4909,2.5446,2.5841,2.6236,2.7678,2.7762,2.7188,2.6697,2.5538,2.402,2.2418,0.0,0.0,0.0,0.0,2.3894,2.5382,2.5878,2.6231,2.7117,2.7266,2.7187,2.7187,2.6576,2.5406,2.3281,2.2534,2.1498,1.9112,1.8879,0.0,1.8949,2.0527,2.2146,2.3302,2.4426,2.5141,2.5234,2.4844,2.4414,2.3984,2.3532,2.324,2.3101,2.3101,2.2986,2.2654,2.1849,2.0877,1.9805,0.0,0.0,0.0,0.0,0.0,0.0,0.0,0.0,0.0,0.0,0.0,0.0,0.0,0.0,0.0,0.0,0.0,0.0,0.0,0.0,0.0,0.0,0.0,0.0,0.0,0.0,0.0,0.0,0.0,2.1544,2.3363,0.0,0.0,0.0,0.0,2.4146,2.4762,2.5923,2.7853,2.8718,2.9525,3.0368,3.0774,3.1039,3.1096,3.144,3.1669,3.174,3.2071,3.2269,3.2333,3.2664,3.2611,3.2308,3.2618,3.2519,3.1992,3.0325,2.9078,2.8091,2.7407,2.6904,2.6621,2.7039,2.7444,2.7875,2.8602,2.884,2.8859,2.9258,2.7969,2.6259,2.635,2.5354,0.0,0.0,2.5669,2.6426,2.733,2.7585,2.7702,2.8125,2.7956,2.7663,2.7663,2.7285,2.6654,2.5698,2.4528,2.3493,2.2906,0.0,2.2401,2.2852,2.301,2.358,2.4828,2.5043,2.5258,2.564,2.5293,2.4887,2.4391,2.4004,2.3574,2.312,2.3101,2.3081,2.3062,2.2654,2.201,2.1112,1.9359,0.0,0.0,0.0,0.0,0.0,0.0,0.0,0.0,0.0,0.0,0.0,0.0,0.0,0.0,0.0,0.0,0.0,0.0,0.0,0.0,0.0,0.0,0.0,0.0,0.0,0.0,0.0,0.0,2.4162,2.5628,0.0,2.4954,2.5453,2.6215,2.705,2.809,2.9134,3.0277,3.0699,3.1137,3.1681,3.1617,3.1808,3.2281,3.2406,3.2483,3.2491,3.2637,3.2714,3.274,3.2867,3.2929,3.3015,3.314,3.2969,3.2539,3.1979,3.12,3.0303,2.9817,2.9536,2.942,2.9575,2.9711,2.9867,3.0108,3.0,2.9726,2.9637,2.8894,2.802,2.8096,2.7539,2.6947,2.7208,2.7428,2.7676,2.8015,2.8093,2.8132,2.8262,2.8184,2.8093,2.8093,2.7761,2.737,2.7031,2.5937,2.4781,2.4059,2.3825,2.3613,2.3245,2.3912,2.4597,2.5024,2.5312,2.5542,2.5674,2.5332,2.4906,2.443,2.4023,2.3613,2.312,2.2869,2.2713,2.2713,2.2324,2.1836,2.121,2.004,1.8184,0.0,0.0,0.0,0.0,0.0,0.0,0.0,0.0,0.0,0.0,0.0,0.0,0.0,0.0,0.0,0.0,0.0,0.0,0.0,0.0,0.0,0.0,0.0,0.0,0.0,2.3271,2.5305,2.6009,2.7655,2.8404,2.7596,2.8242,2.904,2.9773,3.0635,3.1341,3.1903,3.2149,3.2394,3.2664,3.2457,3.256,3.307,3.307,3.307,3.307,3.307,3.307,3.307,3.307,3.3197,3.3386,3.3386,3.3262,3.2988,3.2851,3.2461,3.1894,3.1328,3.1094,3.1094,3.0937,3.0898,3.0898,3.0898,3.0684,3.0391,3.0126,2.9707,2.9355,2.9355,2.9062,2.8718,2.8555,2.8496,2.8476,2.832,2.8301,2.8301,2.8301,2.8301,2.8301,2.8301,2.8093,2.7897,2.7897,2.6953,2.5913,2.5215,2.5054,2.4844,2.4163,2.4746,2.5293,2.5293,2.5523,2.5693,2.5693,2.5469,2.5059,2.4449,2.416,2.3728,2.314,2.2732,2.2498,2.2498,2.1973,2.1503,2.121,2.0215,1.8789,1.695,0.0,0.0,0.0,0.0,0.0,0.0,0.0,0.0,0.0,0.0,0.0,0.0,0.0,0.0,0.0,0.0,0.0,0.0,0.0,0.0,0.0,0.0,0.0,2.2796,2.5545,2.7435,2.71,2.9516,3.089,3.0045,3.0751,3.1528,3.2157,3.2301,3.2471,3.2812,3.3203,3.3386,3.3386,3.3386,3.3386,3.3386,3.3386,3.3386,3.3386,3.3386,3.3386,3.3386,3.3386,3.3386,3.3386,3.3386,3.3386,3.3347,3.2988,3.2812,3.2734,3.1875,3.1494,3.1435,3.1055,3.0898,3.0898,3.0898,3.0898,3.0898,3.0898,3.0586,3.0215,3.0215,2.995,2.954,2.9082,2.8918,2.8801,2.8418,2.8301,2.8301,2.8301,2.8301,2.8301,2.8301,2.8301,2.8301,2.8301,2.7617,2.6914,2.6504,2.6431,2.625,2.5796,2.5718,0.0,2.5693,2.5693,2.5693,2.5693,2.5693,2.5367,2.4469,2.4391,2.402,2.314,2.2693,2.2479,2.2479,2.1659,2.121,2.121,1.998,1.9102,1.8637,0.0,0.0,0.0,0.0,0.0,0.0,0.0,0.0,0.0,0.0,0.0,0.0,0.0,0.0,0.0,0.0,0.0,0.0,0.0,0.0,0.0,2.5117,2.7058,2.6379,2.7868,2.9316,3.0151,3.1227,3.183,3.157,3.2044,3.2432,3.2617,3.2914,3.3136,3.3211,3.3328,3.3386,3.3386,3.3386,3.3386,3.3386,3.3386,3.3386,3.3386,3.3386,3.3386,3.3386,3.3386,3.3386,3.3386,3.3386,3.3386,3.3386,3.3269,3.3242,3.3164,3.2324,3.1797,3.1474,3.1387,3.1152,3.0898,3.0898,3.0898,3.0898,3.0898,3.0801,3.0703,3.0703,3.0391,3.0,2.9883,2.9394,2.8859,2.8742,2.8516,2.8301,2.8301,2.8301,2.8301,2.8301,2.8301,2.8301,2.8301,2.8105,2.7812,2.7409,2.6822,2.6348,2.623,2.5913,2.5693,2.5693,2.5693,2.5693,2.5693,2.5693,2.5367,2.4469,2.4391,2.3903,2.2732,2.2285,2.2051,2.2051,2.1503,2.1366,2.1699,2.041,1.9669,0.0,0.0,0.0,0.0,0.0,0.0,0.0,0.0,0.0,0.0,0.0,0.0,0.0,0.0,0.0,0.0,0.0,0.0,0.0,0.0,0.0,0.0,2.8131,3.0198,2.9898,3.0478,3.124,3.1953,3.2422,3.2695,3.2695,3.291,3.3066,3.3066,3.3281,3.3386,3.3386,3.3386,3.3386,3.3386,3.3386,3.3386,3.3386,3.3386,3.3386,3.3386,3.3386,3.3386,3.3386,3.3386,3.3386,3.3386,3.3386,3.3386,3.3386,3.3386,3.3386,3.3359,0.0,0.0,0.0,0.0,3.125,3.0898,3.0898,3.0898,3.0898,3.0898,3.0898,3.0898,3.0898,3.0703,3.0449,3.0254,2.9844,2.9414,2.9238,2.8867,2.8555,2.8555,2.8418,2.8301,2.8301,2.8301,2.8301,2.8301,2.8301,0.0,2.7995,2.7226,2.6602,2.6426,2.5991,2.5693,2.5693,2.5693,2.5693,2.5693,2.5693,2.5425,2.4746,2.4508,0.0,0.0,0.0,2.1992,2.1621,2.1347,0.0,0.0,0.0,0.0,0.0,2.1464,0.0,0.0,2.0605,2.0605,0.0,0.0,0.0,0.0,0.0,0.0,0.0,0.0,0.0,0.0,0.0,0.0,0.0,0.0,0.0,0.0,3.0976,3.2736,3.2793,3.3111,3.3192,3.2902,3.3184,3.3449,3.3607,3.3481,3.3449,3.3607,3.3481,3.3406,3.3496,3.3496,0.0,0.0,0.0,3.3503,3.3496,3.3496,3.3445,3.3386,3.3386,3.3386,3.3386,3.3386,3.3386,3.3386,3.3386,3.3386,3.3386,3.3386,3.3386,3.3347,3.2969,3.2793,3.2695,3.1836,3.1289,3.0957,3.0918,0.0,0.0,3.0898,3.0898,3.0898,3.0898,3.0898,3.0801,3.0391,3.0234,3.0117,2.9755,2.9316,2.8984,2.8984,2.8672,2.8359,2.8359,2.832,2.8301,2.8301,2.8301,2.8301,2.8301,2.7617,2.6953,2.6523,2.6069,2.5776,2.5718,2.5693,2.5693,2.5693,2.5693,0.0,2.5121,2.4707,2.4277,2.3828,2.3066,2.2303,2.1542,2.1522,2.1912,2.2693,2.2713,2.3301,2.4469,2.4945,2.52,2.518,2.281,2.234,0.0,0.0,0.0,0.0,0.0,0.0,0.0,0.0,0.0,0.0,0.0,0.0,0.0,0.0,0.0,3.1189,3.3905,3.5113,3.3074,3.4881,3.5661,3.3532,3.3347,3.3808,3.4912,3.4027,3.3859,3.4912,3.3996,3.3574,3.3926,3.3945,3.4101,3.4453,3.4453,3.4297,3.3977,3.3945,3.3769,3.3386,3.3386,0.0,3.3386,3.3386,3.3386,3.3386,3.3386,3.3386,3.3386,3.3386,3.3386,3.3347,3.2969,3.2793,3.2695,3.1836,3.1435,3.1348,3.1016,3.0898,3.0898,3.0898,3.0898,3.0898,3.0898,3.0898,0.0,3.0781,3.0488,3.0176,3.0098,2.9794,2.9481,2.9481,2.9121,2.8762,2.8762,2.8535,2.8301,2.8301,2.8301,2.8301,2.8301,2.7897,2.7428,2.6953,2.6543,2.6133,2.5757,2.5693,2.5693,2.5693,2.5693,2.5523,2.5121,2.5024,2.4633,2.3851,2.3633,2.3477,2.3301,2.3591,2.3864,2.402,2.402,2.4336,2.4965,2.5391,2.5781,2.6138,2.523,2.5171,0.0,0.0,0.0,0.0,0.0,0.0,0.0,0.0,0.0,0.0,0.0,2.8386,3.02,0.0,3.2888,3.4247,3.6266,3.703,3.5309,3.6915,3.7045,3.3776,3.4539,3.5098,3.4465,3.4974,3.5098,3.4465,3.4604,3.4825,3.5142,3.5332,3.5855,3.6765,3.6111,3.5675,3.5453,3.4547,3.3965,3.375,3.3503,3.3386,3.3386,3.3386,3.3386,3.3449,3.4121,3.4403,3.4465,3.5098,3.5355,3.5273,3.444,3.359,3.2827,3.3045,3.2813,3.245,3.2897,3.29,3.2636,3.2636,3.2256,3.1787,3.1787,3.1787,3.1787,3.1787,3.2036,3.2171,3.1596,3.1132,3.065,3.0052,2.9394,2.8898,2.8898,2.8594,2.8301,2.8301,2.8301,2.8301,2.8301,2.8151,2.7858,2.7428,2.6973,2.6543,2.6113,2.603,2.5952,2.5737,2.5693,2.562,2.543,2.5219,2.4809,2.4141,2.4102,2.4102,2.4102,2.4274,2.4606,2.5054,2.5054,2.5367,2.6035,2.6484,2.6816,2.7057,2.7012,2.7012,0.0,0.0,0.0,0.0,0.0,0.0,0.0,2.6963,2.7983,3.0415,3.1532,3.2641,3.4504,3.5202,3.5846,3.7015,3.8271,3.8693,3.7454,3.8625,3.8238,3.4601,3.6032,3.6581,3.4725,3.6215,3.6572,3.4816,3.5738,3.653,3.6845,3.717,3.7912,3.9107,3.8061,3.7411,3.7327,3.5618,3.473,3.4631,3.3956,3.364,3.364,3.364,3.3799,3.4128,3.5387,3.5891,3.5848,3.6885,3.7309,3.7218,3.6154,3.4903,3.3737,3.4461,3.4238,3.3722,3.4834,3.4906,3.455,3.4413,3.3797,3.3027,3.3027,3.3027,3.3027,3.3027,3.3713,3.414,3.2998,3.2424,3.1825,3.0627,2.9746,2.9133,2.9133,2.8769,2.8418,2.8418,2.834,2.8301,2.8301,2.8301,2.8144,2.7761,2.7389,2.6953,2.6445,2.6387,2.623,2.5757,2.5693,2.5693,2.5693,2.541,2.5059,2.4664,2.4645,2.4684,2.4762,2.4805,2.5152,2.5952,2.5952,2.6342,2.7148,2.7526,2.7741,2.7819,2.8151,2.8132,2.3262,2.4388,2.6167,2.8524,2.9274,3.0752,0.0,3.6087,3.5356,3.6156,3.6695,3.7122,3.7504,3.7907,3.832,3.8827,4.0018,4.0065,3.7618,3.9416,3.9937,3.7188,3.7127,3.7618,3.8477,3.7768,3.7846,3.9145,3.8384,3.8245,3.9084,3.9171,3.9452,4.0017,3.9909,3.9627,3.9181,3.78,3.6912,3.6479,3.5169,3.4551,3.4551,3.4551,3.5246,3.6472,3.7405,3.7549,3.7097,3.7248,3.7309,3.7309,3.7158,3.6963,3.6635,3.5232,3.4631,3.4604,3.505,3.5153,3.5043,3.455,3.4308,3.4196,3.4196,3.4196,3.4196,3.4196,3.4308,3.414,3.2998,3.2672,3.2317,3.112,3.043,3.0059,3.0059,2.9414,2.882,2.882,2.8555,2.8301,2.8301,2.8301,2.8144,2.7761,2.7643,2.733,2.6509,2.6387,2.623,2.5757,2.5693,2.5693,2.5693,2.5659,2.562,2.5562,2.5538,2.5737,2.6152,2.6172,2.6387,2.683,2.685,2.7109,2.7624,2.7663,2.7878,2.8223,2.8262,2.8262,2.9134,2.9959,3.0654,3.2364,3.3528,3.4871,3.7324,3.7589,3.7676,3.8817,3.9202,3.941,3.9798,3.9982,4.0166,4.035,4.0855,4.0826,3.9732,4.0253,4.0345,3.9233,3.9094,3.8859,3.8156,3.9003,3.9387,3.8932,3.9346,3.9963,4.0693,4.0977,4.1588,4.2555,4.1824,4.1328,4.1135,3.9506,3.8176,3.72,3.7167,3.6722,3.597,3.6786,3.7879,3.9122,3.9179,3.9529,4.0032,3.9701,3.9562,3.9474,3.8714,3.8417,3.8335,3.7576,3.7125,3.692,3.7565,3.7548,3.7224,3.6665,3.6018,3.5443,3.5443,3.5443,3.5443,3.5443,3.5936,3.6208,3.503,3.4747,3.4441,3.3233,3.2601,3.2302,3.2302,3.159,3.0941,3.0941,3.0005,2.9244,2.9244,2.8708,2.8242,2.8066,2.8054,2.7839,2.7233,2.7154,2.6998,2.6498,2.6459,2.6459,2.6459,2.6459,2.6459,2.6459,2.6459,2.6537,2.6738,2.6758,2.7029,2.7621,2.7641,2.7858,2.8265,2.845,2.8523,2.8541,2.8797,2.9023,3.278,3.3549,3.4006,3.5159,3.6675,3.7902,3.8046,3.8506,3.92,4.0379,4.0499,4.0523,4.0912,4.0984,4.0984,4.0984,4.1076,4.1201,4.1201,4.0739,4.0403,4.0403,4.0258,3.9647,3.8288,4.0012,4.071,3.9499,4.0578,4.1583,4.2296,4.2684,4.3295,4.4285,4.3357,4.2831,4.2831,4.1153,3.9774,3.8819,3.9127,3.8709,3.7804,3.9207,4.0248,4.0977,4.0973,4.1353,4.1971,4.1586,4.1345,4.1086,4.0141,3.9738,3.9738,3.9738,3.9273,3.8735,3.9522,3.9489,3.8908,3.8407,3.7533,3.6692,3.6692,3.6692,3.6692,3.6692,3.7334,3.7708,3.6503,3.6204,3.5904,3.4697,3.4163,3.3956,3.3956,3.3402,3.2862,3.281,3.1653,3.0673,3.0595,2.9542,2.8787,2.8867,2.8814,2.8496,2.7793,2.7585,2.7389,2.7051,2.6986,2.6986,2.6986,2.6986,2.6986,2.6986,2.6986,2.7096,2.729,2.729,2.7641,2.8362,2.8388,2.8522,2.8807,2.8999,2.908,2.9013,2.9351,2.9686,3.1887,3.3212,3.5135,3.6723,3.8334,3.9657,4.0186,4.0715,4.1129,4.1177,4.0739,4.0403,4.0427,4.0427,4.0427,4.0427,4.086,4.1201,4.1201,4.0739,4.0403,4.0403,3.9946,3.9798,4.0242,4.0855,4.1605,4.2604,4.2706,4.3156,4.4158,4.4254,4.4254,4.4285,4.4254,4.4254,4.4254,4.2894,4.2206,4.2143,4.0817,4.0116,4.0148,4.1556,4.1917,4.156,4.2848,4.2874,4.1995,4.1995,4.1682,4.1201,4.1144,4.1144,4.1144,4.1144,4.0316,3.9271,4.0097,4.0018,3.9489,3.8933,3.8404,3.7947,3.7947,3.7947,3.7947,3.7947,3.7974,3.7708,3.6503,3.6204,3.5904,3.4697,3.437,3.4397,3.4397,3.4257,3.4073,3.3824,3.3188,3.2627,3.2367,3.0957,2.9958,3.0297,3.0063,2.9344,2.7898,2.7305,2.7031,2.6986,2.6986,2.6986,2.6986,2.6986,2.6986,2.6986,2.6986,2.7316,2.804,2.8059,2.8362,2.9059,2.9085,2.9085,2.9079,2.9105,2.9326,2.9749,2.9769,3.0037,3.4727,3.5857,3.6771,3.8383,3.9465,4.0258,4.0787,4.1052,4.1105,4.0739,4.0234,3.9753,3.9389,3.9345,3.9465,3.9801,4.0306,4.0787,4.1153,4.1028,4.0787,4.0427,4.0547,4.0595,4.0403,4.0547,4.1273,4.2693,4.2789,4.3247,4.4268,4.4285,4.4285,4.4285,4.4285,4.4285,4.4285,4.3857,4.3177,4.2293,4.1824,4.2047,4.2957,4.342,4.3544,4.3386,4.346,4.312,4.2501,4.214,4.1682,4.1201,4.1201,4.1201,4.1201,4.1201,4.0913,4.0529,4.0429,4.0042,3.9513,3.8957,3.8431,3.8,3.8,3.8,3.8,3.8,3.8,3.7894,3.7495,3.7388,3.7307,3.6881,3.6935,3.7069,3.7069,3.6909,3.6687,3.6399,3.5422,3.4457,3.3851,3.2804,3.1991,3.1688,3.0845,2.9974,2.9231,2.901,2.8643,2.793,2.8029,2.8134,2.8134,2.8134,2.8213,2.8376,2.8883,2.9047,2.8759,2.9445,2.9689,2.9448,2.9422,2.9422,2.9422,2.9913,3.0138,3.0066,3.0702,3.1179,3.6701,3.7469,3.7902,3.9729,4.0427,4.0763,4.1129,4.1057,4.0691,3.997,3.9104,3.831,3.7755,3.7491,3.7731,3.8839,3.9633,4.0427,4.1369,4.149,4.1369,4.1004,4.1129,4.1153,4.1008,4.0956,4.149,4.2693,4.2958,4.3409,4.4268,4.4285,4.4285,4.4285,4.4285,4.4285,4.4285,4.4285,4.3857,4.2988,4.2988,4.3483,4.4285,4.4285,4.4285,4.4292,4.3931,4.3505,4.303,4.2501,4.1971,4.1466,4.1273,4.1201,4.1201,4.1201,4.1201,4.1153,4.0787,4.0331,3.9801,3.9245,3.8719,3.8238,3.8072,3.8,3.8,3.8,3.8,3.8027,3.8106,3.8133,3.8159,3.8238,3.8421,3.8552,3.8552,3.8518,3.8427,3.8092,3.727,3.6454,3.5838,3.4865,3.4048,3.3551,3.2843,3.1858,3.0396,2.9854,2.9487,2.9197,2.8973,2.9158,2.9906,2.9638,2.9665,3.0198,3.0721,3.0824,3.0453,3.1081,3.1261,3.0893,3.1064,3.0967,3.0569,3.1216,3.1533,3.1512,3.2099,3.2782,3.7637,3.8121,3.8674,4.0696,4.1201,4.1201,4.1177,4.0715,4.0018,3.8884,3.7421,3.6098,3.5496,3.5063,3.5472,3.7541,3.8839,4.0162,4.1779,4.2019,4.2043,4.2043,4.161,4.1514,4.1995,4.2067,4.2284,4.2789,4.3241,4.3715,4.4261,4.4285,4.4285,4.4285,4.4285,4.4285,4.4285,4.4285,4.4285,4.4285,4.4285,4.4285,4.4285,4.4285,4.4285,4.4285,4.4285,4.4003,4.3481,4.303,4.2501,4.1947,4.1442,4.1196,4.1201,4.1201,4.1201,4.1201,4.1201,4.0836,4.0306,3.9777,3.9248,3.8719,3.8142,3.8,3.8,3.8,3.8027,3.808,3.8368,3.8421,3.85,3.8736,3.8815,3.8815,3.8815,3.9076,3.9206,3.8893,3.8631,3.8437,3.8181,3.7003,3.6008,3.578,3.5906,3.4788,3.1382,3.0052,2.9764,3.0759,2.9947,3.0136,3.2199,3.1436,3.1261,3.228,3.2381,3.2529,3.2805,3.2855,3.3003,3.3247,3.3731,3.3472,3.2429,3.2941,3.3451,3.3884,3.3906,3.4749,3.8743,3.9777,4.0527,4.1081,4.1201,4.1105,4.0691,3.9874,3.8791,3.7324,3.5736,3.4222,3.2946,3.3861,3.5111,3.6074,3.8118,4.0162,4.1779,4.2332,4.2597,4.2597,4.2784,4.2832,4.2621,4.2904,4.3168,4.3313,4.3433,4.3715,4.4261,4.4285,4.4285,4.4285,4.4285,4.4285,4.4285,4.4285,4.4285,4.4285,4.4285,4.4285,4.4285,4.4285,4.4285,4.4285,4.4285,4.4003,4.3505,4.3385,4.2784,4.1995,4.1851,4.1562,4.1201,4.1201,4.1201,4.1201,4.1201,4.0836,4.0306,3.9777,3.9248,3.8719,3.8142,3.8,3.8027,3.8262,3.8315,3.8368,3.8631,3.871,3.871,3.8788,3.8998,3.918,3.918,3.9388,3.9491,3.9232,3.8785,3.8489,3.8666,3.8041,3.7469,3.7394,3.6767,3.5836,3.4511,3.378,3.3305,3.3176,3.2753,3.266,3.3223,3.3019,3.2909,3.2951,3.3525,3.3624,3.3103,3.387,3.4133,3.3802,3.394,3.4042,3.4175,3.4649,3.4967,3.5054,3.5414,3.5799,3.9922,4.0739,4.1201,4.1201,4.1004,4.0599,3.9589,3.8527,3.7036,3.4511,3.3092,3.1723,2.9917,3.1312,3.314,3.439,3.7012,3.9609,4.1706,4.2645,4.3168,4.3433,4.3697,4.3739,4.3481,4.3721,4.3835,4.3835,4.3835,4.3979,4.4261,4.4285,4.4285,4.4285,4.4285,4.4285,4.4285,4.4285,4.4285,4.4285,4.4285,4.4378,4.4501,4.4378,4.4378,4.4501,4.4347,4.4148,4.3835,4.3601,4.3168,4.2591,4.2188,4.189,4.1687,4.1446,4.1459,4.1573,4.1573,4.1403,4.1011,4.0366,3.9861,3.9409,3.8768,3.8483,3.8368,3.8394,3.85,3.8631,3.8945,3.9024,3.905,3.9154,3.9336,3.949,3.949,3.9594,3.9671,3.9516,3.919,3.9016,3.922,3.8969,3.8743,3.8743,3.8212,3.7729,3.7422,3.5878,3.4886,3.5039,3.4498,3.4516,3.5454,3.51,3.4982,3.5298,3.572,3.5769,3.5324,3.5867,3.6063,3.5755,3.602,3.6054,3.5824,3.6315,3.6546,3.6546,3.6825,3.7233,4.0908,4.1201,4.1201,4.1201,4.0739,3.9874,3.8265,3.6843,3.4895,3.1406,3.0107,2.8979,2.7042,2.8498,3.0708,3.285,3.5786,3.877,4.161,4.2735,4.3553,4.4244,4.4285,4.434,4.4412,4.4412,4.4436,4.4594,4.4594,4.4491,4.4285,4.4285,4.4285,4.4285,4.4347,4.4347,4.4285,4.4378,4.4409,4.4378,4.4409,4.4594,4.4871,4.4563,4.4594,4.484,4.4563,4.444,4.4391,4.394,4.3699,4.3554,4.2667,4.2409,4.2418,4.1931,4.1907,4.211,4.211,4.2139,4.2012,4.1167,4.0734,4.0461,3.9604,3.9147,3.886,3.8579,3.8684,3.8945,3.9258,3.9336,3.9388,3.9645,3.9697,3.9697,3.9697,3.9697,3.9697,3.9697,3.9697,3.9697,3.9697,3.9697,3.9697,3.9697,3.9697,3.9697,3.9697,3.7137,3.5742,3.6733,3.5945,3.6103,3.7966,3.7267,3.7092,3.7965,3.8015,3.8015,3.8015,3.8015,3.804,3.8115,3.8642,3.8437,3.7458,3.7917,3.8135,3.8135,3.8135,3.8712,4.1028,4.1201,4.1201,4.1201,4.0451,3.932,3.7709,3.5184,3.2491,3.0062,2.8089,2.655,2.5733,2.7705,3.0134,3.2298,3.4919,3.7926,4.149,4.2164,4.276,4.4148,4.4285,4.4453,4.4917,4.4965,4.5283,4.5971,4.6027,4.5513,4.4364,4.4285,4.4285,4.4285,4.4563,4.4594,4.4285,4.484,4.4994,4.4717,4.4994,4.5178,4.5208,4.5147,4.5178,4.5208,4.5147,4.5117,4.5117,4.5049,4.4731,4.4296,4.4124,4.3541,4.281,4.2712,4.2422,4.211,4.211,4.2256,4.2298,4.1499,4.1198,4.0979,3.9918,3.9601,3.9484,3.9199,3.918,3.9284,3.9568,3.9645,3.9645,3.9697,3.9697,3.9697,3.9697,3.9697,3.9697,3.9697,3.9697,3.9697,3.9697,3.9697,3.9697,3.9697,3.9697,3.9697,3.9697,3.8839,3.8437,3.9064,3.8562,3.8339,3.8718,3.8567,3.8341,3.8015,3.8015,3.8015,3.8015,3.8015,3.8241,3.8743,3.8843,3.9018,3.9238,3.9338,3.9388,3.9388,3.9388,3.9491,4.1028,4.1201,4.1124,4.0836,3.9753,3.8142,3.5713,3.314,3.0398,2.7416,2.5979,2.4922,2.3881,2.6075,2.8478,2.9797,3.2466,3.5665,3.9396,4.0407,4.1533,4.3619,4.4388,4.482,4.5085,4.5507,4.5932,4.6389,4.658,4.6424,4.5754,4.5406,4.5108,4.484,4.4994,4.4994,4.481,4.5147,4.5239,4.5055,4.5239,4.5392,4.5544,4.5392,4.5392,4.5544,4.5392,4.53,4.53,4.53,4.5128,4.4888,4.4623,4.4294,4.3919,4.3379,4.3094,4.2939,4.2665,4.265,4.2712,4.2323,4.1994,4.1618,4.0933,4.0442,4.0079,3.9781,3.9612,3.9542,3.9671,3.9697,3.9697,3.9697,3.9697,3.9697,3.9697,3.9697,3.9697,3.9697,3.9697,3.9697,3.9697,3.9697,3.9697,3.9697,3.9697,3.9697,3.9697,3.9497,3.9421,3.9672,3.9472,3.9321,3.9321,3.9321,3.917,3.8894,3.8894,3.8894,3.8894,3.8894,3.9019,3.9321,3.9321,3.9421,3.9697,3.9697,3.9697,3.9697,3.9697,3.9697,4.0908,4.11,4.1052,4.0523,3.9104,3.7012,3.4005,3.136,2.8619,2.521,2.4249,2.3713,2.2727,2.4633,2.6753,2.7854,3.0446,3.3645,3.7471,3.9008,4.0691,4.3216,4.4436,4.5188,4.5348,4.6109,4.6672,4.6954,4.7336,4.7396,4.7016,4.6419,4.5896,4.5472,4.541,4.5361,4.53,4.5453,4.5483,4.5422,4.5483,4.5635,4.5908,4.5635,4.5666,4.5878,4.5635,4.5514,4.5514,4.5514,4.5514,4.5464,4.505,4.4977,4.4987,4.402,4.3715,4.3714,4.319,4.3014,4.3014,4.3014,4.2713,4.2308,4.1908,4.1366,4.0774,4.0312,4.0042,3.9848,3.9722,3.9697,3.9697,3.9697,3.9697,3.9697,3.9697,3.9697,3.9697,3.9697,3.9697,3.9697,3.9697,3.9697,3.9697,3.9697,3.9697,3.9697,3.9697,3.9697,3.9697,3.9697,3.9697,3.9697,3.9697,3.9697,3.9697,3.9697,3.9697,3.9697,3.9697,3.9697,3.9697,3.9697,3.9697,3.9697,3.9697,3.9697,3.9697,3.9697,3.9697,3.9697,4.0451,4.0812,4.1052,4.0523,3.8815,3.6579,3.3909,3.0518,2.7277,2.497,2.34,2.267,2.3488,2.4242,2.5691,2.8667,3.0636,3.3211,3.7423,3.9345,4.1124,4.3265,4.4436,4.5428,4.6172,4.677,4.7604,4.8744,4.9182,4.8668,4.7073,4.6419,4.6099,4.6019,4.5852,4.5605,4.53,4.5908,4.6059,4.5757,4.6059,4.621,4.624,4.621,4.621,4.624,4.621,4.621,4.621,4.621,4.621,4.621,4.616,4.5864,4.5392,4.4711,4.4213,4.3714,4.319,4.3014,4.3014,4.3014,4.2964,4.2838,4.2308,4.211,4.1833,4.0775,4.0449,4.0299,3.9823,3.9697,3.9697,3.9697,3.9697,3.9697,3.9697,3.9697,3.9697,3.9697,3.9697,3.9697,3.9697,3.9697,3.9697,3.9697,3.9697,3.9697,3.9697,3.9697,3.9697,3.9697,3.9697,3.9697,3.9697,3.9697,3.9697,3.9697,3.9697,3.9697,3.9697,3.9697,3.9697,3.9697,3.9697,3.9697,3.9697,3.9697,3.9697,3.9697,3.9697,3.9697,4.0042,4.0787,4.098,4.0138,3.831,3.5954,3.3019,2.9677,2.6628,2.4506,2.3079,2.243,2.3176,2.3488,2.4434,2.6959,2.7917,2.9697,3.3644,3.5569,3.7882,4.1532,4.3445,4.5223,4.7049,4.7912,4.863,4.9339,4.9525,4.9318,4.8611,4.7682,4.7029,4.6705,4.6304,4.6029,4.5908,4.615,4.621,4.609,4.624,4.6301,4.6301,4.6301,4.6301,4.6301,4.6301,4.6301,4.6301,4.6301,4.6301,4.6301,4.6301,4.6175,4.5874,4.4941,4.4464,4.4166,4.3316,4.3014,4.3014,4.3014,4.3014,4.2964,4.2738,4.2436,4.2034,4.1202,4.075,4.0374,3.9848,3.9697,3.9697,3.9697,3.9697,3.9697,3.9697,3.9697,3.9697,3.9697,3.9697,3.9697,3.9697,3.9697,3.9697,3.9697,3.9697,3.9697,3.9697,3.9697,3.9697,3.9697,3.9697,3.9697,3.9697,3.9697,3.9697,3.9697,3.9697,3.9697,3.9697,3.9697,3.9697,3.9697,3.9697,3.9697,3.9697,3.9697,3.9697,3.9697,3.9697,3.9697,3.896,4.0066,4.0451,3.9393,3.7517,3.5136,3.2152,2.8979,2.6123,2.4203,2.2935,2.2357,2.2911,2.3127,2.3873,2.5781,2.6502,2.8065,3.1671,3.3715,3.625,4.0172,4.2452,4.4633,4.6988,4.8444,4.9364,4.959,4.959,4.959,4.959,4.8535,4.7732,4.735,4.6647,4.6301,4.6301,4.6301,4.6301,4.6301,4.6301,4.6301,4.6301,4.6301,4.6301,4.6301,4.6301,4.6301,4.6301,4.6301,4.6301,4.6301,4.6301,4.6301,4.6175,4.5016,4.4589,4.4439,4.3363,4.3014,4.3014,4.3014,4.3014,4.3014,4.3014,4.2738,4.2311,4.1731,4.1026,4.0374,3.9848,3.9697,3.9697,3.9697,3.9697,3.9697,3.9697,3.9697,3.9697,3.9697,3.9697,3.9697,3.9697,3.9697,3.9697,3.9697,3.9697,3.9697,3.9697,3.9697,3.9697,3.9697,3.9697,3.9697,3.9697,3.9697,3.9697,3.9697,3.9697,3.9697,3.9697,3.9697,3.9697,3.9697,3.9697,3.9697,3.9697,3.9697,3.9697,3.9697,3.9697,3.9904,3.694,3.8407,3.9369,3.8262,3.6411,3.4126,3.1502,2.8422,2.5661,2.4131,2.2935,2.2357,2.2911,2.3416,2.43,2.5853,2.744,2.9605,3.2827,3.5284,3.7568,3.9758,4.1663,4.3595,4.5633,4.8121,4.959,4.959,4.959,4.959,4.959,4.8535,4.7908,4.7908,4.6878,4.6301,4.6301,4.6301,4.6301,4.6301,4.6301,4.6301,4.6301,4.6301,4.6301,4.6301,4.6301,4.6301,4.6301,4.6301,4.6301,4.6301,4.6301,4.6301,4.6175,4.5016,4.4589,4.4439,4.3363,4.3014,4.3014,4.3014,4.3014,4.3014,4.3014,4.3014,4.2889,4.2336,4.1354,4.0374,3.9848,3.9697,3.9697,3.9697,3.9697,3.9697,3.9697,3.9697,3.9697,3.9697,3.9697,3.9697,3.9697,3.9697,3.9697,3.9697,3.9697,3.9697,3.9697,3.9697,3.9697,3.9697,3.9697,3.9697,3.9697,3.9697,3.9697,3.9697,3.9697,3.9697,3.9697,3.9697,3.9697,3.9697,3.9697,3.9697,3.9697,3.9697,3.9697,3.9697,3.9697,4.0389,3.3139,3.4583,3.5424,3.4053,3.3187,3.208,2.9773,2.7609,2.5661,2.4131,2.2935,2.2357,2.2911,2.3208,2.4396,2.7508,2.8573,3.0118,3.3397,3.5745,3.8152,4.0876,4.4903,4.7677,4.8352,4.9124,4.959,4.959,4.959,4.959,4.959,4.8535,4.7908,4.7908,4.6878,4.6301,4.6301,4.6301,4.6301,4.6301,4.6301,4.6301,4.6301,4.6301,4.6301,4.6301,4.6301,4.6301,4.6301,4.6301,4.6301,4.6301,4.6301,4.6301,4.6225,4.5472,4.497,4.4489,4.379,4.3316,4.3014,4.3014,4.3014,4.3014,4.3014,4.3014,4.2813,4.1856,4.1078,4.0374,3.9848,3.9697,3.9697,3.9697,3.9697,3.9697,3.9697,3.9697,3.9697,3.9697,3.9697,3.9697,3.9697,3.9697,3.9697,3.9697,3.9697,3.9697,3.9697,3.9697,3.9697,3.9697,3.9852,3.9981,3.9981,3.9981,3.9981,3.9981,3.9981,3.9878,3.9723,3.9878,3.9981,3.9981,4.0134,4.0262,4.0262,4.0945,4.1616,4.2277,4.2108,4.2325,3.0131,3.1793,3.2611,3.1647,3.0925,3.0058,2.8286,2.6502,2.4908,2.3746,2.2815,2.2294,2.2646,2.3135,2.4414,2.7236,2.8341,3.0007,3.3303,3.5714,3.8486,4.211,4.616,4.8661,4.8661,4.9238,4.959,4.959,4.959,4.959,4.959,4.8535,4.7908,4.7908,4.6878,4.6301,4.6301,4.6301,4.6301,4.6301,4.6301,4.6301,4.6301,4.6301,4.6301,4.6301,4.6301,4.6301,0.0,4.6301,4.6301,4.6301,4.6301,4.6301,4.625,4.5698,4.5121,4.4514,4.3991,4.3438,4.3014,4.3014,4.3014,4.3014,4.3014,4.3014,4.2813,4.1907,4.1254,4.0675,4.0149,3.9848,3.9697,3.9697,3.9697,3.9697,3.9697,3.9697,3.9697,3.9697,3.9697,3.9697,3.9697,3.9697,3.9697,3.9697,3.98,3.9852,3.9852,3.9955,4.0006,4.0006,4.0134,4.0287,4.0389,4.0313,4.0236,4.0236,4.0236,4.0185,4.0006,4.0542,4.0617,4.0262,4.1145,4.1445,4.1045,4.2084,4.2882,4.3504,4.3337,4.3598,0.0,2.9574,3.0392,3.0368,2.9288,2.7989,2.6935,2.5215,0.0,2.3152,2.2605,2.2292,2.2437,2.3361,2.4562,2.5913,2.76,2.9834,3.301,3.5733,3.9066,4.3561,4.5919,4.7224,4.7274,4.8686,4.959,4.959,4.959,4.9565,4.954,4.851,4.7883,4.7857,4.6853,4.6301,4.6301,4.6301,4.6301,4.6301,4.6301,4.6301,4.6301,4.6301,4.6301,4.6301,4.6301,4.6301,4.6301,4.6301,4.6301,4.6301,4.6301,4.6276,4.62,4.5723,4.5121,4.4464,4.4016,4.3463,4.3014,4.3014,4.3045,4.3101,4.3101,4.3045,4.2889,4.2336,4.1756,4.1202,4.0625,4.0099,3.9697,3.9697,3.9697,3.9697,3.9697,3.9697,3.9697,3.9697,3.9723,3.9723,3.9723,3.9749,3.9774,3.9774,3.9955,4.0134,4.0134,4.0415,4.0593,4.0593,4.0694,4.0846,4.1096,4.082,4.0643,4.0643,4.0694,4.0744,4.0719,4.1642,4.1716,4.077,4.2595,4.3122,4.2252,4.3194,4.3693,4.3764,4.3764,4.4396,2.3124,0.0,2.5518,2.5106,2.5411,2.5645,0.0,2.4466,2.3969,2.3488,2.295,2.3088,2.4778,2.5085,2.6268,2.9926,3.1664,3.3443,3.5892,3.9669,4.3357,4.6577,4.7807,4.856,4.8962,4.9364,4.959,4.959,4.959,4.9414,4.9019,4.8284,4.7732,4.7299,4.6652,4.6301,4.6301,4.6301,4.6301,4.6301,4.6301,4.6301,4.6301,4.6301,4.6301,4.6301,4.6301,4.6301,4.6301,4.6301,4.6301,4.6301,4.6301,4.605,4.5723,4.5999,4.5221,4.4041,4.4288,4.379,4.3014,4.3014,4.36,4.4315,4.4315,4.3685,4.2889,4.2336,4.1756,4.1202,4.0625,4.0099,3.9697,3.9697,3.9697,3.9697,3.9697,3.9697,3.9697,3.9697,3.9852,4.0006,4.0006,4.016,4.0287,4.0287,4.0364,4.0389,4.0389,4.112,4.1642,4.1642,4.2523,4.3122,4.3194,4.2428,4.1965,4.1965,4.2668,4.3002,4.2786,4.3218,4.3337,4.3098,4.3768,4.4377,4.4909,4.4955,4.5434,4.6388,4.6211,4.6366,2.1207,2.2941,2.4482,2.4458,2.4924,2.5335,2.5041,2.4206,2.3436,2.3197,2.3099,2.3517,2.4953,2.5963,2.756,3.0697,3.2735,3.5102,3.8592,4.2032,4.4991,4.7249,4.8259,4.8818,4.8812,4.9063,4.9113,4.8837,4.8812,4.8686,4.8385,4.7857,4.74,4.7124,4.6572,4.6301,4.6301,4.6301,4.6301,4.6301,4.6301,4.6301,4.6301,4.6301,4.6301,4.6301,4.6301,4.6301,4.6301,4.6301,4.6301,4.6301,4.6301,4.5974,4.5552,4.5824,4.502,4.3925,4.4744,4.4482,4.385,4.4344,4.4588,4.4778,4.5262,4.4994,4.4456,4.4143,4.3093,4.208,4.232,4.1746,4.112,4.112,4.112,4.112,4.112,4.112,4.1145,4.1244,4.0994,4.097,4.1541,4.1021,4.0669,4.112,4.0895,4.0846,4.1322,4.1938,4.2547,4.3006,4.3673,4.4097,4.4097,4.4003,4.3768,4.3297,4.3792,4.4027,4.3886,4.447,4.5001,4.5434,4.5167,4.5485,4.6506,4.6344,4.6638,4.7309,4.7127,4.7149,2.0987,2.3318,2.5455,2.5527,2.5839,2.6071,2.5881,2.4534,2.3291,2.3291,2.3645,2.4238,2.52,2.6991,2.8942,3.0916,3.3236,3.6433,4.1152,4.341,4.5217,4.6898,4.7958,4.836,4.7958,4.836,4.8435,4.7933,4.7908,4.7883,4.7782,4.735,4.7074,4.6973,4.6522,4.6301,4.6301,4.6301,4.6301,4.6301,4.6301,4.6301,4.6301,4.6301,4.6301,4.6301,4.6301,4.6301,4.6301,4.6301,4.6301,4.6301,4.6225,4.5849,4.5376,4.5553,4.4908,4.4117,4.5236,4.5307,4.5101,4.6005,4.582,4.5369,4.6267,4.6582,4.658,4.6762,4.512,4.3517,4.4381,4.3766,4.2925,4.2819,4.2792,4.2792,4.2792,4.2816,4.2885,4.3074,4.2471,4.2277,4.3385,4.2184,4.137,4.223,4.1815,4.1718,4.2574,4.3033,4.3579,4.4452,4.4661,4.4753,4.4753,4.5531,4.5666,4.48,4.4753,4.4753,4.4753,4.5576,4.641,4.7287,4.6484,4.6432,4.7309,4.7309,4.7309,4.7309,4.7309,4.7309,2.2191,2.4827,2.6486,2.4532,2.556,2.6847,2.5853,2.5787,2.5929,2.5929,2.5979,2.6914,2.9777,3.0247,3.1345,3.4879,3.7337,4.0049,4.3586,4.4389,4.5217,4.6898,4.7249,4.75,4.7883,4.7983,4.8008,4.7908,4.7908,4.7676,4.7249,4.7149,4.6898,4.6451,4.6351,4.6301,4.6301,4.6301,4.6301,4.6301,4.6301,4.6301,4.6301,4.6301,4.6301,4.6301,4.6301,4.6301,4.6301,4.6301,4.6301,4.625,4.5799,4.5271,4.486,4.5842,4.5488,4.4719,4.5795,4.6112,4.6057,4.6241,4.6841,4.7538,4.7691,4.7742,4.7945,4.8927,4.7212,4.5001,4.4691,4.4065,4.3441,4.2925,4.2792,4.2792,4.2792,4.2934,4.305,4.3098,4.3337,4.3622,4.3811,4.3768,4.3772,4.3909,4.3867,4.3843,4.4008,4.4771,4.5417,4.5553,4.6322,4.6844,4.6844,4.6975,4.6997,4.6844,4.6844,4.6844,4.6844,4.6997,4.7127,4.7309,4.7127,4.7127,4.7309,4.7309,4.7309,4.7309,4.7309,4.7309,2.1706,2.4217,2.6247,2.5761,2.7816,2.9729,2.89,2.8492,2.8266,2.8266,2.8517,2.9352,3.1461,3.2369,3.4076,3.7965,4.0224,4.2208,4.4288,4.4895,4.5497,4.6522,4.6923,4.7074,4.7054,4.7305,4.7355,4.7079,4.7054,4.6928,4.6672,4.6672,4.6547,4.6326,4.6301,4.6301,4.6301,4.6301,4.6301,4.6301,4.6301,4.6301,4.6301,4.6301,4.6301,4.6301,4.6301,4.6665,4.7265,4.7265,4.7652,4.8213,4.761,4.7033,4.6486,4.635,4.6383,4.6556,4.7048,4.7229,4.7331,4.7943,4.8072,4.8097,4.8728,4.8927,4.9026,4.9547,4.807,4.6353,4.6335,4.5862,4.5218,4.4621,4.4573,4.4638,4.4638,4.4823,4.503,4.5138,4.4909,4.4932,4.5621,4.4938,4.4499,4.503,4.4661,4.4499,4.5052,4.5508,4.6003,4.655,4.7019,4.7309,4.7309,4.7309,4.7309,4.7309,4.7309,4.7309,4.7309,4.7309,4.7309,4.7309,4.7309,4.7309,4.7309,4.7309,4.7309,4.7309,4.7309,4.7309,2.1542,2.3726,2.5937,2.7336,2.9779,3.1842,3.1964,3.1235,3.0728,3.1256,3.1562,3.2068,3.3169,3.4828,3.7162,4.0551,4.2359,4.374,4.484,4.5397,4.5824,4.625,4.6647,4.6747,4.6351,4.6672,4.6722,4.6351,4.6301,4.6301,4.6301,4.6301,4.6301,4.6301,4.6301,4.6301,4.6301,4.6301,4.6301,4.6301,4.6301,4.6301,4.6301,4.6301,4.6451,4.6725,4.6725,4.7412,4.8503,4.8503,4.8969,4.9629,4.9005,4.8491,4.7942,4.704,4.7408,4.8399,4.8399,4.8399,4.8553,4.9424,4.91,4.8578,4.9449,4.9693,4.9693,4.9693,4.878,4.782,4.782,4.7433,4.6853,4.6137,4.609,4.6225,4.6291,4.6491,4.6712,4.6887,4.6322,4.6166,4.7127,4.601,4.5258,4.6054,4.5485,4.5281,4.6054,4.6166,4.6432,4.7222,4.7309,4.7309,4.7309,4.7309,4.7309,4.7309,4.7309,4.7309,4.7309,4.7309,4.7309,4.7309,4.7309,4.7309,4.7309,4.7309,4.7309,4.7309,4.7309,4.7309,2.3075,2.4666,2.6113,2.8254,2.976,3.124,3.3269,3.3291,3.3442,3.5502,3.5504,3.5506,3.6634,3.8617,4.0701,4.2537,4.3765,4.4865,4.6024,4.6225,4.6276,4.6301,4.6351,4.6351,4.6301,4.6351,4.6351,4.6301,4.6301,4.6301,4.6301,4.6301,4.6301,4.6301,4.6301,4.6301,4.6301,4.6301,4.6301,4.6301,4.6301,4.6301,4.6301,4.6301,4.6934,4.7977,4.7977,4.8673,4.976,4.976,4.9492,4.9005,4.8409,4.8099,4.8007,4.7897,4.8603,4.9571,4.9571,4.9571,4.9595,4.9669,4.9644,4.9595,4.9669,4.9693,4.9693,4.9693,4.9786,4.9538,4.8172,4.7776,4.7474,4.6427,4.6202,4.6269,4.6513,4.6734,4.6887,4.6909,4.704,4.7201,4.7287,4.7171,4.7106,4.7171,4.7127,4.7106,4.7171,4.7201,4.7222,4.7287,4.7309,4.7309,4.7309,4.7309,4.7309,4.7309,4.7309,4.7309,4.7309,4.7309,4.7309,4.7309,4.7309,4.7309,4.7309,4.7309,4.7309,4.7309,4.7309,4.7309,2.1571,2.4246,2.6942,2.8104,3.0538,3.2968,3.4126,3.5052,3.618,3.8065,3.8266,3.8241,3.8668,3.9972,4.1327,4.2336,4.3689,4.4865,4.5698,4.61,4.6301,4.6301,4.6301,4.6301,4.6301,4.6301,4.6301,4.6301,4.6301,4.6301,4.6301,4.6301,4.6636,4.7387,4.7416,4.7769,4.8529,4.8529,4.8529,4.85,4.7023,4.6695,4.7416,4.7416,4.8065,4.9221,4.9221,4.9901,5.0989,5.0601,5.0758,5.1144,5.0124,4.9443,4.905,4.905,4.935,4.9693,4.9693,4.9693,4.9693,4.9693,4.9693,4.9693,4.9693,4.9693,4.9693,4.9693,4.9601,4.9273,4.8243,4.8132,4.7949,4.6748,4.6558,4.6668,4.6756,4.6975,4.7127,4.7127,4.7244,4.7309,4.7309,4.7309,4.7309,4.7309,4.7309,4.7309,4.7309,4.7309,4.7309,4.7309,4.7309,4.7309,4.7309,4.7309,4.7309,4.7309,4.7309,4.7309,4.7309,4.7309,4.7309,4.7309,4.7309,4.7309,4.7309,4.7309,4.7309,4.7309,4.7849,4.8124,2.1306,2.4196,2.7311,2.8373,3.1009,3.3796,3.538,3.6634,3.8015,4.0075,4.0325,4.0224,4.0224,4.08,4.1603,4.2562,4.3765,4.4865,4.5648,4.6075,4.6451,4.6815,4.6541,4.6601,4.7353,4.6725,4.6636,4.7505,4.7205,4.7176,4.7534,4.7563,4.7889,4.8618,4.8647,4.9049,4.9873,4.9901,4.9901,4.9873,4.8236,4.7886,4.8647,4.8647,4.9335,5.0462,5.0462,5.1016,5.1958,5.1534,5.1637,5.19,5.0797,5.01,4.9693,4.9693,4.9693,4.9693,4.9693,4.9693,4.9693,4.9693,4.9742,4.9815,4.9815,4.9892,4.9965,4.9965,4.9666,4.9187,4.8511,4.8286,4.7936,4.6934,4.68,4.6931,4.7019,4.7149,4.7309,4.7309,4.7309,4.7309,4.7309,4.7309,4.7309,4.7309,4.7309,4.7309,4.7309,4.7309,4.7309,4.7309,4.7309,4.7309,4.7309,4.7309,4.7309,4.7309,4.7309,4.7309,4.7309,4.7309,4.7409,4.7709,4.773,4.773,4.773,4.8009,4.803,4.7807,4.8728,4.9177,2.2945,2.4782,2.7052,2.9271,3.1035,3.3269,3.7136,3.8015,3.8818,4.1634,4.1731,4.1327,4.1327,4.1327,4.1854,4.3514,4.4242,4.4966,4.6125,4.6301,4.673,4.7922,4.7057,4.7265,4.9647,4.774,4.7446,5.01,4.9194,4.9022,5.024,5.0296,5.0183,4.9929,4.9901,4.9929,4.9929,4.9929,4.9929,4.9929,4.9929,4.9901,4.9901,4.9901,5.0573,5.1702,5.1702,5.2037,5.2597,5.2568,5.1842,5.0622,4.9954,4.9693,4.9693,4.9693,4.9693,4.9693,4.9693,4.9693,4.9693,4.9693,4.9892,5.011,5.011,5.0279,5.0501,5.0501,5.0189,4.9723,4.9047,4.8213,4.7398,4.6992,4.6909,4.6975,4.7244,4.7309,4.7309,4.7309,4.7309,4.7309,4.7309,4.7309,4.7309,4.7309,4.7309,4.7309,4.7309,4.7309,4.7309,4.7309,4.7309,4.7309,4.7309,4.7309,4.7309,4.7309,4.7309,4.7309,4.7309,4.7309,4.773,4.8594,4.8615,4.8615,4.8615,4.9595,4.9655,4.8861,4.9911,5.0397,2.2608,2.5293,2.8549,3.0005,3.337,3.6709,3.8291,3.8919,3.9873,4.2261,4.2336,4.1934,4.1934,4.1934,4.211,4.2587,4.3438,4.4166,4.4493,4.554,4.6432,4.6778,4.7657,4.8549,4.9444,4.8859,4.9021,5.0463,4.9802,4.9719,5.0519,5.0574,5.0934,5.1701,5.1728,5.2162,5.2992,5.2404,5.2298,5.2699,5.2113,5.1579,5.1154,5.1154,5.1613,5.2334,5.2334,5.2171,5.1875,5.1436,5.0768,4.9983,4.978,4.9693,4.9693,4.9693,4.9693,4.9693,4.9693,4.9815,4.9965,4.9742,4.9892,5.011,5.011,5.0159,5.0167,4.9864,4.9508,4.904,4.8387,4.78,4.733,4.7209,4.7171,4.7222,4.7287,4.7309,4.7309,4.7309,4.7309,4.7309,4.7309,4.7309,4.7309,4.7309,4.7309,4.7309,4.7309,4.7309,4.7309,4.7309,4.7309,4.7309,4.7309,4.7309,4.7309,4.7309,4.7309,4.7309,4.7309,4.7892,4.8324,4.8594,4.9157,4.9427,4.9427,4.9872,4.997,4.9754,5.0779,5.1248,2.4666,2.7526,3.0638,3.2441,3.5479,3.8391,3.9874,4.0451,4.113,4.2688,4.2562,4.2288,4.2462,4.2336,4.2475,4.3373,4.4038,4.4745,4.5514,4.6495,4.7344,4.7947,4.8545,4.9363,5.0488,4.9686,4.9771,5.1392,5.0736,5.06,5.1472,5.1526,5.1819,5.2425,5.2451,5.2817,5.3541,5.3006,5.296,5.3312,5.2778,5.2343,5.1983,5.2029,5.2263,5.2568,5.2046,5.1639,5.1207,5.0564,5.0071,4.9693,4.9693,4.9766,4.9868,4.9742,4.9766,4.9815,4.9742,4.9892,5.0062,4.9917,5.0081,5.037,5.037,5.0294,5.0094,4.9844,4.9241,4.8551,4.8164,4.7678,4.7309,4.7309,4.7309,4.7309,4.7309,4.7309,4.7309,4.7309,4.7309,4.7309,4.7309,4.7309,4.7309,4.7309,4.7309,4.7309,4.7309,4.7309,4.7309,4.7309,4.7309,4.7309,4.7309,4.7309,4.746,4.7785,4.7807,4.7955,4.8282,4.849,4.8953,4.9718,5.0112,5.0371,5.0512,5.0968,5.1094,5.0855,5.1867,5.2348,2.7853,3.0362,3.2817,3.5678,3.7361,3.8994,4.1582,4.2263,4.2386,4.2889,4.2612,4.2411,4.2914,4.2698,4.3112,4.5106,4.5564,4.627,4.8028,4.8352,4.8912,5.0275,4.9601,4.9918,5.2154,5.0362,5.0129,5.266,5.1746,5.162,5.2758,5.2862,5.2739,5.2466,5.2466,5.2466,5.2466,5.2383,5.2358,5.2442,5.2358,5.2333,5.2397,5.2504,5.2507,5.2365,5.117,5.0672,5.0589,4.9979,4.9742,4.9742,4.9742,4.9892,5.0062,4.9868,4.9941,5.011,4.9868,4.9965,5.0159,5.0135,5.0442,5.0793,5.0793,5.0517,5.0173,5.0136,4.9254,4.8289,4.8207,4.7758,4.7309,4.7309,4.7309,4.7309,4.7309,4.7309,4.7309,4.7309,4.7309,4.7309,4.7309,4.7309,4.7309,4.7309,4.7309,4.7309,4.7309,4.7309,4.7309,4.7309,4.7309,4.7309,4.7309,4.7374,4.7743,4.8573,4.8687,4.9116,4.9943,4.9258,4.9678,5.1383,5.1308,5.1406,5.1707,5.2522,5.2626,5.2029,5.3041,5.3518,2.6582,2.9246,3.2361,3.5577,3.8517,4.0876,4.1934,4.2512,4.2864,4.2989,4.2914,4.2864,4.2989,4.3749,4.4566,4.5045,4.6034,4.6902,4.7325,4.8154,4.8843,4.9145,5.0179,5.1124,5.187,5.1474,5.1699,5.3022,5.2405,5.2267,5.3071,5.3101,5.3077,5.3028,5.3003,5.3003,5.3003,5.2307,5.221,5.2714,5.1984,5.1891,5.2367,5.2214,5.1754,5.1083,5.0495,5.0218,5.0218,5.0072,5.0014,5.0014,5.0014,5.0062,5.011,5.0255,5.0381,5.0405,5.0357,5.0471,5.0632,5.0447,5.0591,5.0793,5.0793,5.04,4.9898,4.9568,4.8917,4.8199,4.7638,4.7429,4.7309,4.7309,4.7309,4.7309,4.7309,4.7309,4.7309,4.7309,4.7309,4.7309,4.7309,4.7309,4.7309,4.7309,4.7309,4.7309,4.7309,4.7309,4.7309,4.7309,4.7309,4.7309,4.7309,4.7934,4.8449,4.8738,4.9396,5.0223,5.1173,5.0943,5.0995,5.1401,5.2113,5.2538,5.2626,5.2972,5.3076,5.2922,5.3331,5.3518,2.6608,2.9698,3.3162,3.7177,4.0058,4.2032,4.2597,4.2635,4.2888,4.4092,4.3618,4.3042,4.3156,4.4155,4.5235,4.5926,4.7096,4.8139,4.8763,4.9386,4.9805,4.9926,5.076,5.1381,5.15,5.15,5.1721,5.2217,5.1917,5.1887,5.2217,5.2247,5.2247,5.2247,5.2247,5.2247,5.2247,5.1775,5.1703,5.2031,5.1529,5.1409,5.162,5.167,5.1321,5.0584,5.0383,5.0279,5.0279,5.0279,5.0279,5.0279,5.0279,5.0351,5.0442,5.0471,5.0543,5.0638,5.0548,5.0638,5.0799,5.0656,5.0775,5.0988,5.0988,5.0355,4.9566,4.9374,4.8588,4.7728,4.7399,4.7309,4.7309,4.7309,4.7309,4.7309,4.7309,4.7309,4.7309,4.7309,4.7309,4.7309,4.7309,4.7309,4.7309,4.7309,4.7309,4.7309,4.7309,4.7309,4.7309,4.7309,4.7688,4.7913,4.7913,4.879,4.9527,5.0021,5.0531,5.1229,5.2187,5.2256,5.2256,5.2256,5.2661,5.299,5.3195,5.3179,5.323,5.3348,5.3433,5.3518,2.6206,3.013,3.4408,3.9154,4.1479,4.2791,4.335,4.3048,4.3206,4.5256,4.4414,4.3445,4.3936,4.4968,4.6109,4.7357,4.8496,4.9611,5.0698,5.087,5.0964,5.1182,5.1206,5.1206,5.1206,5.1206,5.1206,5.1206,5.1206,5.1206,5.1206,5.1206,5.1206,5.1206,5.1206,5.1206,5.1206,5.1206,5.1206,5.1206,5.1206,5.1082,5.087,5.1219,5.1045,5.0501,5.0548,5.0543,5.0543,5.0543,5.0543,5.0543,5.0543,5.0662,5.0799,5.0662,5.0733,5.0846,5.0662,5.0733,5.084,5.0721,5.0832,5.0996,5.0877,5.0085,4.9127,4.9127,4.8259,4.7309,4.7309,4.7309,4.7309,4.7309,4.7309,4.7309,4.7309,4.7309,4.7309,4.7309,4.7309,4.7309,4.7309,4.7309,4.7309,4.7309,4.7309,4.7309,4.7309,4.7309,4.7309,4.7309,4.8082,4.8615,4.8625,4.9647,5.0621,5.1424,5.1685,5.2187,5.2972,5.3144,5.323,5.323,5.3076,5.3178,5.3518,5.3348,5.3348,5.3518,5.3518,5.3518,2.2831,2.8446,3.508,4.006,4.2265,4.3369,4.4023,4.4447,4.4779,4.5111,4.4741,4.4836,4.634,4.7707,4.8688,4.8915,5.0023,5.0941,5.1105,5.1129,5.1182,5.1206,5.1206,5.1206,5.1206,5.1206,5.1206,5.1206,5.1206,5.1206,5.1206,5.1206,5.1206,5.1206,5.1206,5.1206,5.1206,5.1206,5.1206,5.1206,5.1206,5.1182,5.1159,5.1195,5.0965,5.0525,5.068,5.0775,5.0775,5.0775,5.0775,5.0775,5.0775,5.0799,5.0846,5.1011,5.1135,5.1129,5.1135,5.1135,5.1039,5.0471,5.0292,5.0249,4.9703,4.9037,4.8438,4.8438,4.7878,4.7309,4.7309,4.7309,4.7309,4.7309,4.7309,4.7309,4.7309,4.7309,4.7309,4.7309,4.7309,4.7309,4.7309,4.7309,4.7309,4.7309,4.7309,4.7309,4.7309,4.7309,4.7309,4.7309,4.8082,4.8646,4.8759,5.0099,5.1201,5.1795,5.2398,5.2938,5.3382,5.3467,5.345,5.345,5.3416,5.3467,5.3518,5.345,5.345,5.3518,5.3518,5.3518,2.5438,3.0226,3.5026,3.9587,4.2071,4.3596,4.4263,4.4532,4.504,4.6404,4.621,4.5927,4.6217,4.727,4.812,4.8293,4.9345,5.0122,5.0122,5.0122,5.0272,5.0607,5.0637,5.0787,5.1146,5.1206,5.1206,5.1206,5.1206,5.1206,5.1206,5.1206,5.1206,5.1206,5.1206,5.1206,5.1206,5.1206,5.1206,5.1206,5.1206,5.1206,5.1206,5.1206,5.1088,5.0899,5.0994,5.1011,5.1011,5.1011,5.1011,5.1011,5.1011,5.1011,5.1005,5.074,5.0877,5.1146,5.0787,5.0637,5.0607,5.0285,4.9979,4.9643,4.9366,4.8828,4.8319,4.8319,4.7818,4.7309,4.7309,4.7309,4.7309,4.7309,4.7309,4.7309,4.7309,4.7309,4.7309,4.7309,4.7309,4.7309,4.7309,4.7309,4.7309,4.7309,4.7309,4.7473,4.7976,4.804,4.824,4.8831,4.9647,5.0236,5.0365,5.1539,5.2363,5.261,5.3024,5.3314,5.3501,5.3518,5.3518,5.3518,5.3518,5.3518,5.3518,5.3518,5.3518,5.3518,5.3518,5.3518,2.7031,3.0472,3.3308,3.8,4.0969,4.3013,4.4189,4.4496,4.5158,4.7311,4.731,4.6747,4.6125,4.697,4.7812,4.7998,4.8748,4.9277,4.9277,4.9277,4.9486,4.992,4.9979,5.0159,5.069,5.072,5.072,5.072,5.072,5.072,5.072,5.072,5.072,5.072,5.072,5.081,5.0936,5.0936,5.0936,5.0936,5.0936,5.1026,5.1206,5.1206,5.1206,5.1206,5.1206,5.1086,5.0936,5.0936,5.0847,5.072,5.072,5.072,5.0661,5.0159,5.0301,5.0661,5.0129,4.9979,4.9949,4.977,4.9562,4.9289,4.8895,4.8593,4.8325,4.8115,4.7698,4.7309,4.7309,4.7309,4.7374,4.7581,4.7645,4.7645,4.7645,4.7645,4.7645,4.7645,4.7645,4.7645,4.7645,4.7645,4.7709,4.7913,4.7997,4.824,4.8892,4.9035,4.9347,5.0087,5.0943,5.1502,5.1653,5.2575,5.3161,5.328,5.3365,5.3433,5.3518,5.3518,5.3518,5.3518,5.3518,5.3518,5.3518,5.3518,5.3518,5.3518,5.3668,5.3717,2.443,2.6707,2.903,3.5146,3.8627,4.123,4.3738,4.4792,4.5627,4.7027,4.7304,4.726,4.7225,4.8305,4.9186,4.9209,4.9254,4.9277,4.9277,4.9277,4.9307,4.9337,4.9337,4.9366,4.9396,4.9396,4.9396,4.9396,4.9396,4.9396,4.9396,4.9396,4.9396,4.9396,4.9396,4.9673,5.0255,5.0255,5.0255,5.0255,5.0255,5.0578,5.1206,5.1206,5.1206,5.1206,5.1206,5.0847,5.0255,5.0255,4.9912,4.9396,4.9396,4.9396,4.9396,4.9366,4.9366,4.9366,4.9366,4.9337,4.9247,4.8618,4.8897,4.9221,4.7839,4.7961,4.8427,4.7577,4.7339,4.7309,4.7309,4.7309,4.7495,4.8324,4.8532,4.8532,4.8532,4.8532,4.8532,4.8532,4.8532,4.8532,4.8532,4.8532,4.8769,4.9547,4.9813,4.997,5.0029,5.0184,5.032,5.0378,5.1117,5.1653,5.1885,5.2504,5.3092,5.3484,5.3331,5.3314,5.3501,5.3518,5.3518,5.3518,5.3518,5.3518,5.3518,5.3518,5.3518,5.3501,5.4074,5.4343,2.3641,2.5736,2.808,3.2765,3.6237,3.896,4.0737,4.2951,4.4915,4.5813,4.6381,4.6779,4.7219,4.7698,4.8019,4.8019,4.8019,4.8019,4.8019,4.8019,4.8199,4.8618,4.8648,4.8828,4.9247,4.9277,4.9277,4.9277,4.9277,4.9277,4.9277,4.9277,4.9277,4.9277,4.9277,4.9396,4.9613,4.9613,4.9613,4.9613,5.0009,5.0338,5.0578,5.0578,5.0578,5.0548,5.0152,5.0062,5.0166,4.9793,4.9516,4.9277,4.9277,4.9277,4.9247,4.8828,4.8917,4.9217,4.8798,4.8648,4.8707,4.8975,4.8986,4.8819,4.829,4.8708,4.9217,4.8366,4.8115,4.8115,4.8115,4.8115,4.8345,4.9177,4.9378,4.9539,5.0073,4.9777,4.9378,4.9378,4.9378,4.9378,4.9378,4.9378,4.9447,4.9746,4.997,5.0301,5.0849,5.1061,5.1414,5.2116,5.2469,5.2697,5.2904,5.3144,5.3348,5.3501,5.3416,5.3416,5.3518,5.3518,5.3518,5.3518,5.3518,5.3518,5.3518,5.3518,5.3684,5.4074,5.428,5.4626,2.241,2.4189,2.6486,3.0529,3.3006,3.534,3.8644,4.0737,4.2491,4.4237,4.5164,4.5912,4.6779,4.6958,4.704,4.7279,4.7309,4.7309,4.7309,4.7309,4.7459,4.7908,4.7967,4.8139,4.8588,4.8618,4.8618,4.8618,4.8618,4.8618,4.8618,4.8618,4.8618,4.8618,4.8858,4.8858,4.8618,4.8858,4.8947,4.8977,4.9374,4.968,4.989,4.989,4.989,4.986,4.9247,4.9194,4.9531,4.9127,4.8828,4.8618,4.8618,4.8618,4.8588,4.8139,4.8259,4.8558,4.8117,4.8156,4.8494,4.9009,4.9305,4.9378,4.9096,4.9599,5.0073,4.9237,4.8994,4.8994,4.8994,4.9217,4.9579,5.0112,5.0461,5.0824,5.1415,5.0857,5.0248,5.0248,5.0274,5.0332,5.0332,5.039,5.0493,5.0792,5.1019,5.1355,5.1933,5.2134,5.2522,5.3213,5.3314,5.3365,5.3501,5.3518,5.3518,5.3518,5.3518,5.3518,5.3518,5.3518,5.3518,5.3518,5.3518,5.3601,5.38,5.38,5.4011,5.4407,5.4857,5.5361,0.0,0.0,0.0,2.8349,2.9009,3.0432,3.7507,3.8135,3.8374,4.2322,4.3668,4.4536,4.5942,4.6241,4.648,4.716,4.7309,4.7309,4.7309,4.7309,4.7309,4.7309,4.7309,4.7309,4.7309,4.7309,4.7309,4.7309,4.7309,4.7309,4.7309,4.7309,4.7309,4.7309,4.7908,4.7967,4.7309,4.7938,4.8289,4.8289,4.8289,4.8648,4.9247,4.9247,4.9247,4.9217,4.8558,4.8289,4.8289,4.8289,4.7878,4.7309,4.7309,4.7309,4.7309,4.7309,4.7331,4.7352,4.7352,4.7913,4.8656,4.8677,4.9777,5.0932,5.008,5.0442,5.0951,5.006,4.9825,4.9825,4.9825,5.0461,5.1102,5.1121,5.1765,5.2391,5.2391,5.1762,5.1153,5.1153,5.129,5.1438,5.1438,5.1539,5.1921,5.2748,5.3076,5.3196,5.3196,5.3382,5.3518,5.3518,5.3518,5.3518,5.3518,5.3518,5.3518,5.3518,5.3518,5.3518,5.3518,5.3534,5.3551,5.3551,5.3534,5.3849,5.4438,5.4407,5.4422,5.4485,5.5744,5.6635,2.1057,0.0,0.0,0.0,0.0,0.0,3.1644,3.3125,3.4845,3.8315,3.9559,4.0876,4.3638,4.4536,4.5224,4.639,4.6958,4.7309,4.7309,4.7309,4.7309,4.7309,4.7309,4.7309,4.7309,4.7309,4.7309,4.7309,4.7309,4.7309,4.7309,4.7309,4.7309,4.7309,4.7489,4.7489,4.7309,4.7489,4.7578,4.7578,4.8079,4.8409,4.8588,4.8588,4.8588,4.8528,4.7848,4.7578,4.7578,4.7578,4.7459,4.7309,4.7309,4.7309,4.7309,4.7309,4.7709,4.8219,4.8219,4.8769,4.9567,5.019,5.0723,5.1046,5.0819,5.1359,5.1871,5.0989,5.0761,5.0761,5.0761,5.0914,5.1266,5.189,5.223,5.2391,5.2391,5.223,5.2035,5.2035,5.2179,5.2254,5.2254,5.2432,5.2626,5.2868,5.3076,5.3196,5.3196,5.3382,5.3518,5.3518,5.3518,5.3518,5.3518,5.3518,5.3518,5.3518,5.3518,5.3518,5.3518,5.3913,5.4155,5.4155,5.4629,5.4968,5.5114,5.4641,5.4852,5.5787,5.6595,5.7049,0.0,0.0,0.0,2.5914,0.0,0.0,3.0476,3.124,3.2377,3.6237,3.7524,3.8811,4.1575,4.2412,4.319,4.4805,4.5403,4.6052,4.716,4.7309,4.7309,4.7309,4.7309,4.7309,4.7309,4.7309,4.7309,4.7309,4.7309,4.7309,4.7309,4.7309,4.7309,4.7309,4.7309,4.7309,4.7309,4.7309,4.7309,4.7309,4.7698,4.7878,4.7878,4.7878,4.7878,4.7848,4.7489,4.7309,4.7309,4.7309,4.7309,4.7309,4.7309,4.7516,4.7828,4.7828,4.8386,4.9096,4.9096,4.9658,5.0422,5.0932,5.1359,5.1637,5.1637,5.1999,5.2302,5.1798,5.1637,5.1637,5.1637,5.1637,5.178,5.2284,5.2391,5.2391,5.2391,5.2445,5.2463,5.2409,5.2587,5.2729,5.2729,5.2955,5.3161,5.3161,5.3263,5.3331,5.3331,5.3416,5.3518,5.3518,5.3518,5.3518,5.3518,5.3518,5.3518,5.3518,5.3518,5.3618,5.3882,5.4219,5.4532,5.4811,5.5189,5.5534,5.578,5.5396,5.568,5.6674,5.7049,5.7188,2.5442,2.5561,0.0,2.8919,2.741,0.0,3.1599,3.1045,3.0626,3.4667,3.5938,3.6985,3.914,3.9649,4.0397,4.2322,4.288,4.4018,4.6711,4.707,4.707,4.707,4.716,4.7189,4.7189,4.7279,4.7309,4.7309,4.7309,4.7309,4.7309,4.7309,4.7309,4.7309,4.7309,4.7309,4.7309,4.7309,4.7309,4.7309,4.7309,4.7309,4.7309,4.7309,4.7309,4.7309,4.7309,4.7309,4.7309,4.7417,4.7396,4.7309,4.7417,4.7913,4.8615,4.8718,4.9258,4.9943,4.9943,5.0519,5.1247,5.1247,5.178,5.2391,5.2391,5.2391,5.2391,5.2391,5.2391,5.2391,5.2391,5.2391,5.2391,5.2391,5.2391,5.2391,5.2409,5.2533,5.2553,5.248,5.2694,5.2938,5.2938,5.3246,5.3518,5.3518,5.3518,5.3518,5.3518,5.3518,5.3518,5.3518,5.3518,5.3518,5.3518,5.3518,5.3518,5.3518,5.3518,5.3767,5.4375,5.4469,5.4826,5.5505,5.5578,5.5844,5.6393,5.6393,5.6661,5.7188,5.7188,5.7188,2.8325,2.8667,2.9401,2.8906,2.9491,0.0,2.8278,2.8397,2.8889,2.9262,2.9442,3.0446,3.3469,3.4921,3.6284,3.8242,3.9918,4.2073,4.5244,4.5693,4.5693,4.5693,4.6172,4.651,4.651,4.6958,4.7309,4.7309,4.7309,4.7309,4.7309,4.7309,4.7309,4.7309,4.7309,4.7309,4.7309,4.7309,4.7309,4.7309,4.7309,4.7309,4.7309,4.7309,4.7309,4.7309,4.7309,4.7309,4.7374,4.8061,4.7934,4.7374,4.8082,4.8449,4.8697,4.9338,5.0112,5.0857,5.0857,5.1434,5.2158,5.2158,5.2266,5.2391,5.2391,5.2391,5.2391,5.2391,5.2391,5.2391,5.2391,5.2391,5.2391,5.2391,5.2391,5.2427,5.2518,5.2571,5.2624,5.2764,5.299,5.3127,5.3127,5.3348,5.3518,5.3518,5.3518,5.3518,5.3518,5.3518,5.3518,5.3518,5.3518,5.3518,5.3518,5.3518,5.3518,5.3518,5.3518,5.3767,5.4375,5.4918,5.5484,5.6118,5.6595,5.692,5.7036,5.7036,5.7087,5.7188,5.7188,5.7188,3.1166,3.1017,3.1405,3.112,3.1017,0.0,0.0,2.9056,2.8966,3.0267,2.9502,2.9398,3.2004,3.3066,3.4023,3.5685,3.7614,3.9469,4.1115,4.309,4.4347,4.4317,4.4895,4.5284,4.5284,4.5933,4.6441,4.6779,4.6779,4.6929,4.7279,4.7309,4.7309,4.7309,4.7309,4.7309,4.7309,4.7309,4.7309,4.7309,4.7309,4.7309,4.7309,4.7309,4.7309,4.7309,4.7309,4.7309,4.7331,4.7794,4.7955,4.804,4.8872,4.9217,4.9318,5.0151,5.1008,5.1762,5.1762,5.2017,5.2391,5.2391,5.2391,5.2391,5.2391,5.2391,5.2391,5.2391,5.2391,5.2391,5.2391,5.2391,5.2391,5.2391,5.2391,5.2427,5.2553,5.2676,5.2799,5.3007,5.3229,5.3331,5.3213,5.3365,5.3518,5.3518,5.3518,5.3518,5.3518,5.3518,5.3518,5.3518,5.3518,5.3518,5.3518,5.3518,5.3518,5.3518,5.3783,5.4219,5.4822,5.5499,5.6146,5.6727,5.7049,5.7188,5.7188,5.7188,5.7188,5.7188,5.7188,5.7188,3.3784,3.3349,3.3589,3.3514,3.2856,3.2168,0.0,0.0,0.0,3.1943,3.0686,2.9728,3.145,3.1645,3.1958,3.317,3.51,3.6387,3.6118,3.932,4.1803,4.2143,4.298,4.3579,4.3748,4.3988,4.4646,4.5822,4.5463,4.5732,4.704,4.713,4.7189,4.7309,4.7309,4.7309,4.7309,4.7309,4.7309,4.7309,4.7309,4.7309,4.7309,4.7309,4.7309,4.7309,4.7309,4.7417,4.7559,4.773,4.8177,4.8892,4.9547,4.9884,5.017,5.1027,5.1798,5.2391,5.2391,5.2391,5.2391,5.2391,5.2391,5.2391,5.2391,5.2391,5.2391,5.2391,5.2391,5.2391,5.2391,5.2409,5.2445,5.2445,5.2463,5.2551,5.2676,5.2834,5.3007,5.3213,5.3382,5.3433,5.3297,5.3382,5.3518,5.3518,5.3518,5.3518,5.3518,5.3518,5.3518,5.3518,5.3518,5.3518,5.3518,5.3618,5.3651,5.3651,5.4251,5.4852,5.5478,5.6124,5.6688,5.7188,5.7188,5.7188,5.7188,5.7188,5.7188,5.7188,5.7188,5.7188,3.5699,3.6417,3.7062,3.4203,3.5968,3.6909,3.1225,0.0,3.136,2.877,0.0,2.8094,2.8876,0.0,0.0,2.9146,3.142,3.2632,3.145,3.3724,3.6164,3.7883,3.9709,4.1085,4.1673,4.0726,4.1305,4.4296,4.2402,4.2641,4.6211,4.642,4.6689,4.7279,4.7309,4.7309,4.7309,4.7309,4.7309,4.7309,4.7309,4.7309,4.7309,4.7309,4.7309,4.7309,4.7309,4.7752,4.8511,4.9237,4.9567,4.9666,4.9765,5.0287,5.1046,5.1926,5.232,5.2391,5.2391,5.2391,5.2391,5.2391,5.2391,5.2391,5.2391,5.2391,5.2391,5.2391,5.2391,5.2391,5.2391,5.2498,5.2571,5.2571,5.2712,5.2886,5.3093,5.3144,5.3246,5.3416,5.3467,5.3501,5.345,5.3467,5.3518,5.3518,5.3518,5.3518,5.3518,5.3518,5.3518,5.3518,5.3518,5.3518,5.3518,5.3995,5.428,5.428,5.4918,5.5543,5.6174,5.6767,5.7125,5.7188,5.7188,5.7188,5.7188,5.7188,5.7188,5.7188,5.7188,5.7188,3.6028,3.6926,3.7811,3.528,3.6207,3.6686,3.2751,3.1599,3.1166,3.0552,0.0,0.0,0.0,0.0,0.0,0.0,2.9834,3.0193,2.8487,3.0207,3.2512,3.4861,3.6224,3.7691,3.9487,3.8482,3.8931,4.1833,4.0307,4.0816,4.4386,4.5284,4.6052,4.6689,4.71,4.7309,4.7309,4.7309,4.7309,4.7309,4.7309,4.7309,4.7309,4.7309,4.7309,4.7331,4.7828,4.824,4.8677,4.9447,5.0112,5.0557,5.0557,5.08,5.1229,5.2071,5.2391,5.2391,5.2391,5.2391,5.2391,5.2391,5.2391,5.2391,5.2391,5.2391,5.2391,5.2391,5.2391,5.2391,5.2391,5.2516,5.2589,5.2589,5.2746,5.2955,5.3161,5.3196,5.3247,5.345,5.3518,5.3518,5.3518,5.3518,5.3518,5.3518,5.3518,5.3518,5.3518,5.3518,5.3518,5.3518,5.3518,5.3651,5.3995,5.4232,5.4563,5.4948,5.5557,5.6201,5.678,5.7074,5.7188,5.7188,5.7188,5.7188,5.7188,5.7188,5.7188,5.7188,5.7188,5.7188,3.6757,3.767,3.86,3.5685,3.5729,3.5895,3.3484,3.2258,3.1779,3.2362,3.1435,0.0,0.0,0.0,2.9235,2.8697,0.0,2.883,2.6632,2.7752,2.9548,3.1644,3.3111,3.4697,3.6596,3.5296,3.5699,3.908,3.7584,3.8344,4.2562,4.3868,4.4975,4.5971,4.6681,4.713,4.7309,4.7309,4.7309,4.7309,4.7309,4.7309,4.7309,4.7309,4.7309,4.7352,4.8219,4.8738,4.8994,4.9837,5.0653,5.1452,5.1452,5.1452,5.1526,5.2176,5.2391,5.2391,5.2391,5.2391,5.2391,5.2391,5.2391,5.2391,5.2391,5.2391,5.2391,5.2391,5.2391,5.2391,5.2391,5.2551,5.2676,5.2676,5.2868,5.3093,5.323,5.3264,5.3331,5.345,5.3518,5.3518,5.3518,5.3518,5.3518,5.3518,5.3518,5.3518,5.3518,5.3518,5.3518,5.3518,5.3651,5.3913,5.4359,5.4734,5.5219,5.5844,5.6311,5.6727,5.7176,5.7188,5.7188,5.7188,5.7188,5.7188,5.7188,5.7188,5.7188,5.7188,5.7188,5.7188,3.8577,3.9581,4.0281,3.4925,3.504,3.5639,3.2318,3.3036,3.4009,3.2751,3.3978,3.4891,3.3634,3.2303,0.0,0.0,2.9159,0.0,0.0,2.6243,2.6973,2.7705,3.0612,3.2602,3.2691,3.0358,3.1001,3.6224,3.3589,3.4576,4.1104,4.2141,4.3369,4.5274,4.5971,4.6629,4.7309,4.7309,4.7309,4.7309,4.7309,4.7309,4.7309,4.7309,4.7309,4.7352,4.8219,4.9035,4.9825,5.0691,5.1563,5.2356,5.2356,5.2356,5.2356,5.2391,5.2391,5.2391,5.2391,5.2391,5.2391,5.2391,5.2391,5.2391,5.2391,5.2391,5.2391,5.2391,5.2391,5.2391,5.2391,5.2657,5.2886,5.2886,5.3195,5.3501,5.3501,5.3501,5.3501,5.3518,5.3518,5.3518,5.3518,5.3518,5.3518,5.3518,5.3518,5.3518,5.3518,5.3518,5.3518,5.3518,5.4027,5.4375,5.4407,5.5543,5.6501,5.71,5.715,5.7176,5.7188,5.7188,5.7188,5.7188,5.7188,5.7188,5.7188,5.7188,5.7188,5.7188,5.7188,5.7188,4.0952,4.2201,4.2781,3.8146,3.7824,3.7592,3.3725,3.3709,3.4128,3.2796,3.4097,3.51,3.3754,3.2392,0.0,0.0,0.0,0.0,0.0,2.4477,2.5028,2.6123,2.8427,2.991,2.991,2.9116,3.0073,3.3604,3.2378,3.3828,3.9128,4.0894,4.2631,4.4586,4.5702,4.6629,4.7309,4.7309,4.7309,4.7309,4.7309,4.7309,4.7331,4.7892,4.8166,4.8219,4.9638,5.0403,5.071,5.16,5.2125,5.2391,5.2391,5.2391,5.2391,5.2391,5.2391,5.2391,5.2391,5.2391,5.2391,5.2391,5.2391,5.2391,5.2391,5.2391,5.2391,5.2391,5.2391,5.2391,5.2391,5.2657,5.2903,5.2903,5.3212,5.3518,5.3518,5.3518,5.3518,5.3518,5.3518,5.3518,5.3518,5.3518,5.3518,5.3518,5.3518,5.3518,5.3518,5.3518,5.3518,5.3518,5.406,5.4579,5.5024,5.618,5.6997,5.7176,5.7188,5.7188,5.7188,5.7188,5.7188,5.7188,5.7188,5.7188,5.7188,5.7188,5.7188,5.7188,5.7188,5.7188,4.3102,4.3979,4.4256,4.0534,3.9723,3.8944,3.5457,3.5363,3.5633,3.4312,3.5178,3.6091,3.5864,3.3846,3.1823,0.0,0.0,0.0,0.0,2.3819,2.4197,2.4795,2.644,2.7816,2.8517,2.753,2.8295,3.1884,3.1092,3.2482,3.7105,3.9469,4.1594,4.3569,4.5134,4.636,4.7309,4.7309,4.7309,4.7309,4.7309,4.7309,4.7331,4.8177,4.8615,4.8697,5.0364,5.1083,5.1191,5.2035,5.2391,5.2391,5.2391,5.2391,5.2391,5.2391,5.2391,5.2391,5.2391,5.2391,5.2391,5.2391,5.2391,5.2391,5.2391,5.2391,5.2391,5.2391,5.2427,5.248,5.248,5.2729,5.3007,5.3007,5.3263,5.3518,5.3518,5.3518,5.3518,5.3518,5.3518,5.3518,5.3518,5.3518,5.3518,5.3518,5.3518,5.3518,5.3518,5.3518,5.3518,5.3518,5.4235,5.5114,5.5957,5.6753,5.7188,5.7188,5.7188,5.7188,5.7188,5.7188,5.7188,5.7188,5.7188,5.7188,5.7188,5.7188,5.7188,5.7188,5.7188,5.7188]}]]